[[[{"header":{"parameterUnit":"kt","parameterCategory":2,"dx":1,"dy":1,"la1":29.285339999999998,"la2":30.599998999999997,"lo1":-89.70041500000002,"lo2":-87.6738589999976,"nx":112,"ny":82,"refTime":"2022-10-31T06:00:00:Z","depth":0,"parameterNumber":1,"parameterNumberName":"U-component_of_WINDS"},"data":[-4.1942,-4.0893,-3.983,-3.9734,-3.8254,-3.6644,-3.5891,-3.4436,-3.3161,-3.2904,-3.2073,0.0,0.0,0.0,0.0,0.0,0.0,0.0,0.0,-2.8766,0.0,0.0,0.0,0.0,0.0,0.0,0.0,0.0,0.0,0.0,0.0,-4.3591,-4.4839,-4.6244,-4.6746,-4.7863,-4.9577,-4.9603,-5.0174,-5.1291,-5.1291,-5.1706,-5.2459,-5.2902,-5.35,-5.4255,-5.4619,-5.4775,-5.4775,-5.4775,-5.4775,-5.4775,-5.4775,-5.4775,-5.4775,-5.4775,-5.4775,-5.4775,-5.4775,-5.4775,-5.4775,-5.4775,-5.4775,-5.4775,-5.4775,-5.4775,-5.4749,-5.4541,-5.4619,-5.4749,-5.4541,-5.4645,-5.4775,-5.4775,-5.4775,-5.4775,-5.4775,-5.4775,-5.4671,-5.4307,-5.3992,-5.3732,-5.3368,-5.2823,-5.2252,-5.168,-5.1421,-5.1291,-5.1291,-5.1291,-5.1291,-5.1291,-5.1291,-5.1291,-5.1291,-5.1291,-5.1291,-5.1291,-5.1291,-5.1291,-5.1291,-5.1291,-5.1291,-5.1291,-5.1291,-5.1109,-5.0821,-5.0639,-5.0145,-4.9417,-4.9135,-4.8746,-3.9942,-3.8773,-3.7553,-3.7315,-3.6046,-3.4566,-3.3787,-3.2615,-3.1575,-3.1185,-3.0904,0.0,0.0,0.0,0.0,0.0,0.0,0.0,0.0,0.0,0.0,0.0,0.0,0.0,0.0,0.0,0.0,0.0,-4.0799,0.0,-4.2954,-4.4123,-4.5256,-4.6244,-4.7136,-4.8252,-4.9577,-4.9785,-5.0356,-5.1291,-5.1291,-5.1602,-5.207,-5.2824,-5.3396,-5.3862,-5.4541,-5.4775,-5.4775,-5.4775,-5.4775,-5.4775,-5.4775,-5.4775,-5.4775,-5.4775,-5.4775,-5.4775,-5.4775,-5.4775,-5.4775,-5.4775,-5.4775,-5.4775,-5.4775,-5.4775,-5.4775,-5.4775,-5.4775,-5.4775,-5.4775,-5.4775,-5.4775,-5.4775,-5.4775,-5.4749,-5.4541,-5.4489,-5.4333,-5.368,-5.3394,-5.3135,-5.2771,-5.2226,-5.1732,-5.1343,-5.1291,-5.1291,-5.1291,-5.1291,-5.1291,-5.1291,-5.1291,-5.1291,-5.1291,-5.1291,-5.1291,-5.1291,-5.1291,-5.1291,-5.1291,-5.1291,-5.1291,-5.1291,-5.1109,-5.0899,-5.0535,-5.0145,-4.9573,-4.8819,-4.8538,-4.8252,-3.7739,-3.5918,-3.428,-3.48,-3.3684,-3.2463,-3.2437,-3.1995,-3.1341,-3.0177,-3.0339,-3.0391,0.0,0.0,0.0,0.0,0.0,0.0,0.0,0.0,0.0,0.0,0.0,0.0,0.0,-3.8352,-3.9804,0.0,-4.1692,-4.2499,-4.3552,-4.4653,-4.5629,-4.627,-4.7934,-4.9031,-4.9577,-5.0249,-5.0821,-5.1291,-5.1291,-5.1576,-5.2122,-5.2693,-5.329,-5.3862,-5.4515,-5.4775,-5.4775,-5.4775,-5.4775,-5.4775,-5.4775,-5.4775,-5.4775,-5.4775,-5.4775,-5.4775,-5.4775,-5.4775,-5.4775,-5.4775,-5.4775,-5.4775,-5.4775,-5.4775,-5.4775,-5.4775,-5.4775,-5.4775,-5.4775,-5.4775,-5.4775,-5.4775,-5.4749,-5.4593,-5.394,-5.381,-5.3654,-5.3162,-5.2511,-5.2122,-5.2044,-5.1654,-5.1291,-5.1291,-5.1291,-5.1291,-5.1291,-5.1291,-5.1291,-5.1291,-5.1291,-5.1291,-5.1291,-5.1291,-5.1291,-5.1291,-5.1291,-5.1291,-5.1291,-5.1291,-5.1265,-5.1265,-5.0795,-5.0483,-5.0483,-4.9365,-4.8746,-4.8793,-4.8076,-4.7817,-3.5346,-3.441,-3.3552,-3.3242,-3.2826,-3.2255,-3.1377,-3.1065,-3.0858,-3.0547,-3.0625,0.0,0.0,0.0,-3.0106,0.0,0.0,-2.9476,-2.8853,-2.9658,0.0,-3.3788,-3.537,-3.703,-3.9059,-4.0496,-4.1562,-4.2227,-4.2799,-4.3422,-4.4241,-4.5386,-4.6227,-4.6798,-4.8071,-4.9031,-4.9577,-5.0249,-5.0821,-5.1291,-5.1291,-5.1369,-5.155,-5.2122,-5.2693,-5.3344,-5.3836,-5.4411,-5.4775,-5.4775,-5.4775,-5.4775,-5.4775,-5.4775,-5.4775,-5.4775,-5.4775,-5.4775,-5.4775,-5.4775,-5.4775,-5.4775,-5.4775,-5.4775,-5.4775,-5.4775,-5.4775,-5.4775,-5.4775,-5.4775,-5.4775,-5.4775,-5.4671,-5.4173,-5.407,-5.3914,-5.3422,-5.3318,-5.3136,-5.2485,-5.2252,-5.1992,-5.1602,-5.1395,-5.1291,-5.1291,-5.1291,-5.1291,-5.1291,-5.1291,-5.1291,-5.1291,-5.1291,-5.1291,-5.1291,-5.1291,-5.1291,-5.1291,-5.1291,-5.1291,-5.1291,-5.0978,-5.0769,-5.0769,-5.0122,-4.9629,-4.9287,-4.8975,-4.8538,-4.805,-4.7895,-4.7817,-3.3317,-3.2745,-3.2225,-3.1839,-3.1714,-3.1532,-3.0884,-3.0728,-3.0651,-3.0417,0.0,0.0,0.0,0.0,0.0,0.0,-3.0073,-3.0671,-2.9754,-3.1273,-3.3244,-3.5163,-3.6615,-3.8202,-4.008,-4.1718,-4.2915,-4.3487,-4.3993,-4.4461,-4.4798,-4.5915,-4.672,-4.7032,-4.8382,-4.9265,-4.9603,-5.0408,-5.1056,-5.1291,-5.1291,-5.1291,-5.1317,-5.1888,-5.233,-5.2693,-5.3498,-5.4018,-5.4437,-5.4697,-5.4775,-5.4775,-5.4775,-5.4775,-5.4775,-5.4775,-5.4775,-5.4775,-5.4775,-5.4775,-5.4775,-5.4775,-5.4775,-5.4775,-5.4775,-5.4775,-5.4775,-5.4775,-5.4775,-5.4723,-5.4489,-5.4437,-5.4281,-5.3708,-5.3498,-5.3342,-5.2771,-5.2641,-5.2459,-5.1888,-5.1784,-5.168,-5.1343,-5.1291,-5.1291,-5.1291,-5.1291,-5.1291,-5.1291,-5.1291,-5.1291,-5.1291,-5.1291,-5.1291,-5.1291,-5.1291,-5.1291,-5.1291,-5.1291,-5.1291,-5.1291,-5.0821,-5.0405,-5.0096,-4.9525,-4.9083,-4.8819,-4.8512,-4.8226,-4.7817,-4.7817,-4.7817,-3.1549,-3.0982,-3.0547,-3.0599,-3.0625,-3.0651,-3.0702,0.0,-3.0599,-3.0203,0.0,-3.0676,-3.0307,0.0,0.0,-2.8428,-3.0645,-3.1969,-2.9988,-3.319,-3.5889,-3.6462,-3.7968,-3.9397,-4.0522,-4.2409,-4.3811,-4.4475,-4.5006,-4.5302,-4.5379,-4.646,-4.7084,-4.7136,-4.8746,-4.9603,-4.9603,-5.0719,-5.1291,-5.1291,-5.1291,-5.1291,-5.1317,-5.181,-5.207,-5.2122,-5.3213,-5.3732,-5.3888,-5.4489,-5.4723,-5.4775,-5.4775,-5.4775,-5.4775,-5.4775,-5.4775,-5.4775,-5.4775,-5.4775,-5.4775,-5.4775,-5.4775,-5.4775,-5.4775,-5.4775,-5.4775,-5.4697,-5.4697,-5.4567,-5.3888,-5.3732,-5.3602,-5.311,-5.298,-5.2745,-5.2174,-5.1966,-5.1888,-5.1395,-5.1291,-5.1291,-5.1291,-5.1291,-5.1291,-5.1291,-5.1291,-5.1291,-5.1291,-5.1291,-5.1291,-5.1291,-5.1291,-5.1291,-5.1291,-5.1291,-5.1291,-5.1291,-5.1291,-5.1265,-5.1213,-5.0795,-5.0223,-4.9499,-4.8928,-4.8642,-4.8642,-4.8076,-4.7817,-4.7817,-4.7817,-4.7817,-2.991,-2.9546,-2.9572,-2.9969,-3.0099,-3.0203,0.0,0.0,0.0,-3.1289,-3.1445,-3.158,-3.1917,-3.2073,-3.2151,-3.2225,-3.3187,-3.3734,-3.3317,-3.7059,-3.9916,-4.0046,-4.1162,-4.2175,-4.2851,-4.3253,-4.3811,-4.4475,-4.5006,-4.5551,-4.6088,-4.6694,-4.7265,-4.7635,-4.8928,-4.9603,-4.9603,-5.0719,-5.1291,-5.1291,-5.1291,-5.1291,-5.1291,-5.1421,-5.1706,-5.2148,-5.2303,-5.2979,-5.3862,-5.3966,-5.4359,-5.4775,-5.4775,-5.4775,-5.4775,-5.4775,-5.4775,-5.4775,-5.4775,-5.4775,-5.4775,-5.4775,-5.4775,-5.4775,-5.4775,-5.4775,-5.4697,-5.4147,-5.4018,-5.3888,-5.3396,-5.324,-5.311,-5.2433,-5.2304,-5.2148,-5.1576,-5.1447,-5.1421,-5.1317,-5.1291,-5.1291,-5.1291,-5.1291,-5.1291,-5.1291,-5.1291,-5.1291,-5.1291,-5.1291,-5.1291,-5.1291,-5.1291,-5.1291,-5.1291,-5.1291,-5.1291,-5.1291,-5.1291,-5.1083,-5.0717,-5.0587,-5.0041,-4.8928,-4.8356,-4.7973,-4.7973,-4.7869,-4.7817,-4.7817,-4.7817,-4.7817,-2.9286,-2.9338,-2.9624,-2.9866,-3.0151,0.0,0.0,-3.0936,-3.104,-3.2303,-3.2303,-3.2307,-3.3164,-3.3579,-3.3814,-3.4177,-3.5216,-3.6256,-3.7115,-3.9716,-4.1536,-4.1536,-4.2227,-4.2954,-4.3461,-4.3837,-4.4123,-4.4475,-4.5266,-4.6019,-4.659,-4.7162,-4.7532,-4.7817,-4.9005,-4.9603,-4.9603,-5.0719,-5.1291,-5.1291,-5.1291,-5.1291,-5.1291,-5.1291,-5.1447,-5.1732,-5.2018,-5.2459,-5.3031,-5.3602,-5.3836,-5.3969,-5.4255,-5.4359,-5.4385,-5.4671,-5.4775,-5.4775,-5.4775,-5.4775,-5.4775,-5.4775,-5.4775,-5.4775,-5.4775,-5.4593,-5.4229,-5.3576,-5.342,-5.329,-5.2719,-5.2563,-5.2433,-5.1862,-5.1706,-5.1628,-5.1369,-5.1291,-5.1291,-5.1291,-5.1291,-5.1291,-5.1291,-5.1291,-5.1291,-5.1291,-5.1291,-5.1291,-5.1291,-5.1291,-5.1291,-5.1291,-5.1291,-5.1291,-5.1291,-5.1291,-5.1187,-5.0978,-5.0951,-5.0616,-5.0044,-4.9833,-4.9417,-4.8845,-4.8174,-4.7817,-4.7817,-4.7817,-4.7817,-4.7817,-4.7817,-4.7817,-2.8818,-2.9208,-2.9632,-2.9736,-3.0177,0.0,-3.132,-3.1268,-3.1528,-3.3133,-3.3291,-3.3475,-3.4488,-3.5111,-3.5552,-3.5681,-3.7085,-3.8805,-4.0496,-4.164,-4.2291,-4.2291,-4.2785,-4.324,-4.3708,-4.4241,-4.4553,-4.4683,-4.5568,-4.6331,-4.7006,-4.7506,-4.7817,-4.7817,-4.9005,-4.9603,-4.9603,-5.0719,-5.1291,-5.1291,-5.1291,-5.1291,-5.1291,-5.1291,-5.1291,-5.1317,-5.1784,-5.2044,-5.22,-5.3135,-5.3239,-5.298,-5.3446,-5.368,-5.3732,-5.4281,-5.4463,-5.4463,-5.4463,-5.4463,-5.4463,-5.4463,-5.4463,-5.4463,-5.4463,-5.4125,-5.3576,-5.3214,-5.3006,-5.2693,-5.2122,-5.1966,-5.1862,-5.1395,-5.1291,-5.1291,-5.1291,-5.1291,-5.1291,-5.1291,-5.1291,-5.1291,-5.1291,-5.1291,-5.1291,-5.1291,-5.1291,-5.1291,-5.1291,-5.1291,-5.1291,-5.1291,-5.1291,-5.1291,-5.1291,-5.1187,-5.1004,-5.0561,-5.0431,-5.0093,-4.9447,-4.8979,-4.8694,-4.859,-4.8122,-4.7817,-4.7817,-4.7817,-4.7817,-4.7817,-4.7817,-4.7817,-2.771,-2.7996,-2.8498,-2.9104,-2.965,0.0,-3.0676,-3.1558,-3.2488,-3.3289,-3.4566,-3.5761,-3.6384,-3.6955,-3.7583,-3.802,-3.9111,-4.0574,-4.2201,-4.3006,-4.3396,-4.3396,-4.3955,-4.4345,-4.4397,-4.4475,-4.4735,-4.5214,-4.5302,-4.5846,-4.698,-4.7506,-4.7817,-4.7817,-4.9005,-4.9603,-4.9603,-5.0719,-5.1291,-5.1291,-5.1291,-5.1291,-5.1291,-5.1291,-5.1291,-5.1291,-5.1369,-5.168,-5.2148,-5.2199,-5.2278,-5.2278,-5.2954,-5.3162,-5.3188,-5.324,-5.3266,-5.3266,-5.3266,-5.3266,-5.3266,-5.3266,-5.3266,-5.3266,-5.3266,-5.3214,-5.3162,-5.311,-5.2615,-5.2096,-5.1525,-5.1395,-5.1369,-5.1317,-5.1291,-5.1291,-5.1291,-5.1291,-5.1291,-5.1291,-5.1291,-5.1291,-5.1291,-5.1291,-5.1291,-5.1291,-5.1291,-5.1291,-5.1291,-5.1291,-5.1291,-5.1291,-5.1291,-5.1291,-5.1291,-5.0899,-5.0613,-5.0535,-4.9966,-4.9421,-4.8876,-4.8871,-4.8512,-4.7921,-4.7843,-4.7817,-4.7817,-4.7817,-4.7817,-4.7817,-4.7817,-4.7817,-2.745,-2.809,-2.8818,-2.9121,0.0,0.0,-3.1506,-3.2125,-3.3008,-3.4956,-3.5917,-3.6744,-3.7989,-3.9007,-3.9708,-3.9942,-4.1214,-4.2409,-4.3136,-4.3708,-4.4071,-4.4071,-4.4371,-4.4501,-4.4501,-4.4772,-4.5084,-4.525,-4.5967,-4.6538,-4.7032,-4.7506,-4.7817,-4.7817,-4.9005,-4.9603,-4.9603,-5.0719,-5.1291,-5.1291,-5.1291,-5.1291,-5.1291,-5.1291,-5.1291,-5.1291,-5.1291,-5.1421,-5.1654,-5.1654,-5.1654,-5.1706,-5.2278,-5.2485,-5.2537,-5.2954,-5.3084,-5.3084,-5.3084,-5.3084,-5.3084,-5.3084,-5.3084,-5.3084,-5.3084,-5.2771,-5.2485,-5.2485,-5.2096,-5.1602,-5.1369,-5.1291,-5.1291,-5.1291,-5.1291,-5.1291,-5.1291,-5.1291,-5.1291,-5.1291,-5.1291,-5.1291,-5.1291,-5.1291,-5.1291,-5.1291,-5.1291,-5.1291,-5.1291,-5.1291,-5.1291,-5.1291,-5.1082,-5.0873,-5.0873,-5.0353,-4.981,-4.9547,-4.9239,-4.885,-4.8278,-4.8252,-4.805,-4.7817,-4.7817,-4.7817,-4.7817,-4.7817,-4.7817,-4.7817,-4.7817,-4.7817,-2.7528,0.0,0.0,0.0,0.0,0.0,-3.2488,-3.3216,-3.4203,-3.6304,-3.7367,-3.8274,-3.9519,-4.0721,-4.1552,-4.1708,-4.2902,-4.3811,-4.3811,-4.4241,-4.4501,-4.4501,-4.4501,-4.4579,-4.4668,-4.5084,-4.5405,-4.5785,-4.659,-4.711,-4.7265,-4.7584,-4.7817,-4.7817,-4.885,-4.9421,-4.9603,-5.0564,-5.1135,-5.1291,-5.1291,-5.1291,-5.1291,-5.1291,-5.1291,-5.1291,-5.1291,-5.1291,-5.1291,-5.1291,-5.1291,-5.1343,-5.1732,-5.1914,-5.1966,-5.2382,-5.2616,-5.2616,-5.2616,-5.2616,-5.2616,-5.2616,-5.2616,-5.2616,-5.2616,-5.2226,-5.1914,-5.1914,-5.1602,-5.1291,-5.1291,-5.1291,-5.1291,-5.1291,-5.1291,-5.1291,-5.1291,-5.1291,-5.1291,-5.1291,-5.1291,-5.1291,-5.1291,-5.1291,-5.1291,-5.1291,-5.1291,-5.1291,-5.1291,-5.1291,-5.1239,-5.116,-5.0769,-5.0457,-5.0301,-4.9681,-4.9187,-4.8772,-4.859,-4.833,-4.7843,-4.7817,-4.7817,-4.7817,-4.7817,-4.7817,-4.7817,-4.7817,-4.7817,-4.7817,-4.7817,-4.7739,0.0,0.0,0.0,-3.0391,-3.1532,-3.2592,-3.3289,-3.5034,-3.6615,-3.6718,-3.8923,-4.0929,-4.0981,-4.1916,-4.2851,-4.3422,-4.4019,-4.4475,-4.4475,-4.4501,-4.4501,-4.4501,-4.4501,-4.4735,-4.5198,-4.5276,-4.5742,-4.6902,-4.7032,-4.7291,-4.7765,-4.7817,-4.7817,-4.7817,-4.846,-4.9031,-4.9577,-5.0249,-5.0821,-5.1291,-5.1291,-5.1291,-5.1291,-5.1291,-5.1291,-5.1291,-5.1291,-5.1291,-5.1291,-5.1291,-5.1291,-5.1291,-5.1317,-5.1317,-5.1317,-5.1343,-5.1343,-5.1343,-5.1343,-5.1343,-5.1343,-5.1343,-5.1343,-5.1343,-5.1343,-5.1343,-5.1317,-5.1317,-5.1317,-5.1291,-5.1291,-5.1291,-5.1291,-5.1291,-5.1291,-5.1291,-5.1291,-5.1291,-5.1291,-5.1291,-5.1291,-5.1291,-5.1291,-5.1291,-5.1291,-5.1291,-5.1291,-5.1291,-5.1291,-5.1291,-5.1083,-5.0613,-5.0535,-5.0301,-4.9655,-4.9109,-4.8845,-4.8819,-4.8154,-4.7843,-4.7817,-4.7817,-4.7817,-4.7817,-4.7817,-4.7817,-4.7817,-4.7817,-4.7817,-4.7817,-4.7817,-4.7532,-2.7876,-2.8931,-2.9962,-3.106,-3.2251,-3.3447,-3.48,-3.5968,-3.7159,-3.8747,-4.0098,-4.1266,-4.2019,-4.3175,-4.4007,-4.4189,-4.4371,-4.4501,-4.4501,-4.4501,-4.4501,-4.4501,-4.4501,-4.4735,-4.5224,-4.5681,-4.6227,-4.698,-4.7395,-4.7609,-4.7817,-4.7817,-4.7817,-4.7817,-4.7998,-4.8569,-4.9577,-5.0249,-5.0821,-5.1291,-5.1291,-5.1291,-5.1291,-5.1291,-5.1291,-5.1291,-5.1291,-5.1291,-5.1291,-5.1291,-5.1291,-5.1291,-5.1291,-5.1291,-5.1291,-5.1291,-5.1291,-5.1291,-5.1291,-5.1291,-5.1291,-5.1291,-5.1291,-5.1291,-5.1291,-5.1291,-5.1291,-5.1291,-5.1291,-5.1291,-5.1291,-5.1291,-5.1291,-5.1291,-5.1291,-5.1291,-5.1291,-5.1291,-5.1291,-5.1291,-5.1291,-5.1291,-5.1291,-5.1291,-5.1291,-5.1291,-5.1291,-5.1161,-5.0873,-5.0821,-5.0587,-4.994,-4.9625,-4.9313,-4.9057,-4.8512,-4.8174,-4.8174,-4.7921,-4.7817,-4.7817,-4.7817,-4.7817,-4.7817,-4.7817,-4.7817,-4.7817,-4.7817,-4.7817,-4.7817,-4.7817,-4.7506,-2.842,-2.9528,-3.0593,-3.2199,-3.3291,-3.4462,-3.6204,-3.7137,-3.8171,-4.0098,-4.1111,-4.1916,-4.2876,-4.3877,-4.4501,-4.4501,-4.4501,-4.4501,-4.4501,-4.4501,-4.4501,-4.4501,-4.4501,-4.4839,-4.5577,-4.5993,-4.6512,-4.7291,-4.7609,-4.7817,-4.7817,-4.7817,-4.7817,-4.7817,-4.7817,-4.818,-4.8906,-4.9759,-5.0509,-5.1082,-5.1187,-5.1291,-5.1291,-5.1291,-5.1291,-5.1291,-5.1291,-5.2109,-5.3306,-5.1879,-5.2109,-5.323,-5.1905,-5.1291,-5.1291,-5.1291,-5.1291,-5.1291,-5.1291,-5.1291,-5.1291,-5.1291,-5.1291,-5.1291,-5.1291,-5.1291,-5.1291,-5.1291,-5.1291,-5.1291,-5.1291,-5.1291,-5.1291,-5.1291,-5.1291,-5.1291,-5.1291,-5.1291,-5.1291,-5.1291,-5.1291,-5.1291,-5.1291,-5.1291,-5.1239,-5.1108,-5.1082,-5.0873,-5.0301,-5.0223,-4.9914,-4.9343,-4.8979,-4.8668,-4.846,-4.8024,-4.7817,-4.7817,-4.7817,-4.7817,-4.7817,-4.7817,-4.7817,-4.7817,-4.7817,-4.7817,-4.7817,-4.7817,-4.7713,-4.7506,-4.7506,-4.7291,-2.9502,-3.0391,-3.1377,-3.3657,-3.4696,-3.5605,-3.7401,-3.8617,-3.9675,-4.0877,-4.1994,-4.2954,-4.3526,-4.4071,-4.4501,-4.4501,-4.4501,-4.4501,-4.4501,-4.4501,-4.4501,-4.4501,-4.4501,-4.4969,-4.6166,-4.627,-4.6668,-4.7739,-4.7817,-4.7817,-4.7817,-4.7817,-4.7889,-4.8104,-4.8104,-4.8104,-4.8104,-4.92,-5.006,-5.0535,-5.1208,-5.1495,-5.1291,-5.1521,-5.1598,-5.1598,-5.1598,-5.3612,-5.6564,-5.3077,-5.3813,-5.6791,-5.3077,-5.1598,-5.1598,-5.1368,-5.1291,-5.1291,-5.1291,-5.1291,-5.1291,-5.1291,-5.1291,-5.1291,-5.1291,-5.1291,-5.1291,-5.1291,-5.1291,-5.1291,-5.1291,-5.1291,-5.1291,-5.1291,-5.1291,-5.1291,-5.1291,-5.1291,-5.1291,-5.1291,-5.1291,-5.1291,-5.1265,-5.1265,-5.1134,-5.0561,-5.0483,-5.0275,-4.9629,-4.9551,-4.9343,-4.8772,-4.872,-4.8486,-4.7869,-4.7817,-4.7817,-4.7817,-4.7817,-4.7817,-4.7817,-4.7817,-4.7817,-4.7817,-4.7817,-4.7817,-4.7817,-4.7791,-4.7506,-4.7058,-4.7032,-4.6694,-2.9821,-3.1606,-3.3083,-3.4436,-3.5917,-3.7319,-3.8617,-3.9786,-4.0929,-4.2071,-4.2876,-4.3552,-4.4123,-4.4397,-4.4501,-4.4501,-4.4501,-4.4501,-4.4501,-4.4501,-4.4501,-4.4501,-4.4501,-4.4969,-4.6166,-4.627,-4.6668,-4.7739,-4.7817,-4.7817,-4.7817,-4.7817,-4.908,-5.1942,-5.2012,-5.2012,-5.2012,-5.2703,-5.2197,-5.0611,-5.3602,-5.3754,-5.1444,-5.4346,-5.5685,-5.5685,-5.5685,-5.4575,-5.2924,-5.4851,-5.6262,-5.7093,-5.6035,-5.5685,-5.5306,-5.2415,-5.1291,-5.1291,-5.1291,-5.1291,-5.1291,-5.1291,-5.1291,-5.1291,-5.1291,-5.1291,-5.1291,-5.1291,-5.1291,-5.1291,-5.1291,-5.1291,-5.1291,-5.1291,-5.1291,-5.1291,-5.1291,-5.1291,-5.1291,-5.1291,-5.1291,-5.1161,-5.0821,-5.0743,-5.0535,-4.9888,-4.981,-4.9603,-4.9031,-4.8953,-4.8746,-4.8102,-4.8096,-4.7973,-4.7843,-4.7817,-4.7817,-4.7817,-4.7817,-4.7817,-4.7817,-4.7817,-4.7817,-4.7817,-4.7817,-4.7817,-4.7817,-4.7402,-4.7188,-4.7032,-4.6616,-4.6123,-2.9639,-3.2021,-3.4046,-3.5163,-3.6566,-3.7999,-3.9,-4.0141,-4.137,-4.2513,-4.3396,-4.4071,-4.4449,-4.4501,-4.4501,-4.4501,-4.4501,-4.4501,-4.4501,-4.4501,-4.4501,-4.4501,-4.4501,-4.4969,-4.6166,-4.627,-4.6668,-4.7739,-4.7817,-4.7817,-4.7817,-4.7817,-4.9553,-5.3325,-5.3466,-5.421,-5.5859,-5.6154,-5.4884,-5.2149,-5.5017,-5.537,-5.3658,-5.7849,-5.9841,-5.9691,-5.7892,-5.6942,-5.6593,-5.6942,-5.8192,-5.9841,-5.9841,-5.9841,-5.9317,-5.5306,-5.3889,-5.3584,-5.1905,-5.1291,-5.1291,-5.1291,-5.1291,-5.1291,-5.1291,-5.1291,-5.1291,-5.1291,-5.1291,-5.1291,-5.1291,-5.1291,-5.1291,-5.1291,-5.1291,-5.1291,-5.1291,-5.1291,-5.1291,-5.1291,-5.1083,-5.0821,-5.0174,-5.007,-4.9888,-4.9317,-4.9213,-4.9005,-4.846,-4.8382,-4.8252,-4.7843,-4.7817,-4.7817,-4.7817,-4.7817,-4.7817,-4.7817,-4.7817,-4.7817,-4.7817,-4.7817,-4.7817,-4.7817,-4.7584,-4.7454,-4.7454,-4.6954,-4.6538,-4.6279,-4.5967,-4.5525,-2.9476,-3.2069,-3.441,-3.5631,-3.6959,-3.8124,-3.9052,-4.0271,-4.1552,-4.2539,-4.3721,-4.4501,-4.4501,-4.4501,-4.4501,-4.4501,-4.4501,-4.4501,-4.4501,-4.4501,-4.4501,-4.4501,-4.4501,-4.4943,-4.6062,-4.6244,-4.6642,-4.7635,-4.7765,-4.7817,-4.7817,-4.7817,-4.9767,-5.407,-5.414,-5.5929,-5.9605,-5.9674,-5.8058,-5.4851,-5.6201,-5.6922,-5.7247,-6.2295,-6.4275,-6.3614,-6.0227,-6.0407,-6.2963,-5.996,-6.078,-6.3964,-6.3964,-6.3964,-6.3448,-5.9467,-5.7967,-5.747,-5.4042,-5.2875,-5.2875,-5.2875,-5.2569,-5.2109,-5.2109,-5.1752,-5.1291,-5.1291,-5.1291,-5.1291,-5.1291,-5.1291,-5.1291,-5.1291,-5.1752,-5.2109,-5.2109,-5.1675,-5.1265,-5.1187,-5.0873,-5.0353,-4.9681,-4.9525,-4.9291,-4.872,-4.8642,-4.846,-4.7895,-4.7817,-4.7817,-4.7817,-4.7817,-4.7817,-4.7817,-4.7817,-4.7817,-4.7817,-4.7817,-4.7817,-4.7817,-4.7817,-4.7791,-4.7713,-4.7291,-4.7006,-4.6928,-4.6356,-4.5837,-4.5276,-4.5198,-4.4928,-3.0339,-3.2021,-3.3992,-3.5527,-3.7501,-3.9026,-3.9234,-4.0929,-4.2487,-4.2695,-4.3721,-4.4501,-4.4501,-4.4501,-4.4501,-4.4501,-4.4501,-4.4501,-4.4501,-4.4501,-4.4501,-4.4501,-4.4501,-4.4787,-4.5353,-4.5915,-4.6556,-4.7136,-4.7558,-4.7817,-4.7817,-4.7817,-5.0921,-5.7743,-5.7951,-5.9775,-6.3495,-6.3563,-6.1692,-5.8071,-5.889,-5.9828,-6.1107,-6.8481,-7.008,-6.7016,-6.6986,-6.5507,-6.3407,-6.5946,-6.7405,-6.7986,-6.7986,-6.7986,-6.755,-6.3596,-6.2149,-6.2074,-6.1406,-6.1108,-6.1108,-6.1108,-5.8868,-5.6111,-5.6111,-5.3889,-5.1291,-5.1291,-5.1291,-5.1291,-5.1291,-5.1291,-5.1291,-5.1291,-5.3737,-5.6111,-5.6111,-5.3612,-5.1161,-5.0769,-5.0587,-5.0353,-4.9681,-4.9213,-4.8694,-4.8122,-4.7973,-4.7921,-4.7843,-4.7817,-4.7817,-4.7817,-4.7817,-4.7817,-4.7817,-4.7817,-4.7817,-4.7817,-4.7817,-4.7817,-4.7817,-4.7817,-4.7609,-4.7213,-4.7084,-4.6824,-4.6426,-4.5785,-4.5379,-4.525,-4.4824,-4.4605,-3.0904,-3.2303,-3.3862,-3.5554,-3.7657,-3.926,-3.926,-4.1085,-4.2707,-4.2421,-4.3253,-4.3993,-4.3993,-4.4293,-4.4501,-4.4501,-4.4501,-4.4501,-4.4501,-4.4501,-4.4501,-4.4501,-4.4501,-4.4735,-4.5224,-4.5863,-4.6504,-4.7006,-4.9372,-5.0736,-5.0736,-5.0736,-5.411,-6.1625,-5.9949,-6.1625,-6.7304,-6.7371,-6.5489,-6.1829,-6.2131,-6.2871,-6.3983,-6.9782,-7.1666,-7.0162,-6.8979,-6.7327,-6.5772,-6.8065,-6.9,-6.9217,-7.1304,-7.2128,-7.1699,-6.773,-6.6239,-6.5946,-6.3923,-6.3185,-6.3185,-6.3185,-6.1852,-6.0289,-6.0289,-5.8943,-5.747,-5.747,-5.747,-5.747,-5.747,-5.747,-5.747,-5.747,-5.8524,-5.9102,-5.7123,-5.4951,-5.2681,-5.0494,-4.9859,-4.9547,-4.9213,-5.0314,-5.1094,-5.0791,-4.908,-4.7817,-4.7817,-4.7817,-4.7817,-4.7817,-4.7817,-4.7817,-4.7817,-4.7817,-4.7817,-4.7817,-4.7817,-4.7817,-4.7817,-4.7532,-4.7188,-4.6616,-4.6305,-4.6019,-4.5759,-4.5162,-4.4876,-4.4876,-4.4631,-4.4501,-3.1133,-3.2511,-3.3916,-3.5371,-3.7211,-3.8819,-3.9182,-4.0825,-4.216,-4.1848,-4.2695,-4.3512,-4.3512,-4.4045,-4.4501,-4.4501,-4.4501,-4.4501,-4.4501,-4.4501,-4.4501,-4.4501,-4.4501,-4.4683,-4.511,-4.5681,-4.6599,-4.7961,-5.1307,-5.3642,-5.4631,-5.4631,-5.7667,-6.4342,-6.1693,-6.3292,-6.9876,-6.9942,-6.8541,-6.5726,-6.5726,-6.6048,-6.6687,-6.968,-7.1451,-7.215,-6.9846,-6.8977,-6.9156,-6.9762,-7.0119,-7.0658,-7.3771,-7.5053,-7.459,-7.1484,-7.0262,-6.983,-6.6783,-6.576,-6.576,-6.576,-6.5174,-6.4406,-6.4406,-6.3849,-6.3185,-6.3185,-6.3185,-6.3185,-6.3185,-6.3185,-6.3564,-6.5048,-6.4089,-6.2014,-5.921,-5.6772,-5.4523,-5.2215,-5.0837,-5.0196,-5.0831,-5.3006,-5.4631,-5.4631,-5.1446,-4.8722,-4.7889,-4.7817,-4.7817,-4.7817,-4.7817,-4.7817,-4.7817,-4.7817,-4.7817,-4.7817,-4.7817,-4.7765,-4.7635,-4.7162,-4.659,-4.6114,-4.5577,-4.5224,-4.5136,-4.4735,-4.4501,-4.4501,-4.4501,-4.4501,-3.0754,-3.2437,-3.4306,-3.493,-3.6072,-3.7367,-3.8923,-3.989,-4.06,-4.1007,-4.2435,-4.3512,-4.3512,-4.4045,-4.4501,-4.4501,-4.4501,-4.4501,-4.4501,-4.4501,-4.4501,-4.4501,-4.4501,-4.4527,-4.4579,-4.5058,-4.7035,-5.1005,-5.209,-5.4264,-5.8195,-5.8365,-6.0325,-6.441,-6.4207,-6.5928,-6.9942,-6.9942,-6.981,-6.9479,-6.9479,-6.9479,-6.9592,-6.9924,-7.0578,-7.1451,-7.1907,-7.2455,-7.3134,-7.3209,-7.3769,-7.4519,-7.4911,-7.5053,-7.4982,-7.4628,-7.4448,-7.4448,-7.4093,-7.3951,-7.3951,-7.3951,-7.1484,-6.8494,-6.8494,-6.6019,-6.3185,-6.3185,-6.3185,-6.3185,-6.3185,-6.3185,-6.4788,-7.1179,-6.9288,-6.5985,-6.5633,-6.0097,-5.5979,-5.8466,-5.611,-5.462,-5.7477,-5.819,-5.8365,-5.8365,-5.5301,-5.1729,-4.8247,-4.7817,-4.7817,-4.7817,-4.7817,-4.7817,-4.7817,-4.7817,-4.7817,-4.7817,-4.7817,-4.7584,-4.7136,-4.659,-4.6019,-4.5379,-4.5302,-4.5084,-4.4579,-4.4527,-4.4501,-4.4501,-4.4501,-4.4501,-3.0625,-3.2203,-3.3942,-3.4774,-3.5344,-3.6148,-3.7916,-3.8747,-3.9422,-4.0331,-4.1604,-4.2733,-4.3006,-4.3266,-4.3695,-4.4397,-4.4215,-4.4045,-4.4449,-4.624,-4.6834,-4.4767,-4.6306,-4.6768,-4.4701,-4.498,-4.6889,-5.0708,-5.4015,-5.7511,-6.1291,-6.2001,-6.3969,-6.7741,-6.5659,-6.6263,-6.9942,-6.9942,-6.9942,-6.9942,-6.9942,-6.9942,-6.9942,-6.9942,-7.0198,-7.054,-7.0882,-7.1489,-7.2287,-7.278,-7.3198,-7.3539,-7.4033,-7.4223,-7.4299,-7.4863,-7.5053,-7.5053,-7.5053,-7.5053,-7.5053,-7.5053,-7.3913,-7.2665,-7.2665,-7.1555,-7.0333,-7.0333,-7.0333,-7.0333,-7.0333,-6.9905,-7.0081,-7.2398,-7.1123,-6.878,-6.647,-6.325,-6.0556,-5.9468,-5.8082,-5.7462,-5.8705,-6.0771,-6.1556,-5.9261,-5.7705,-5.4601,-4.8579,-4.7817,-4.7817,-4.7817,-4.7817,-4.7817,-4.7817,-4.7817,-4.7661,-4.7395,-4.7395,-4.698,-4.6071,-4.5811,-4.5396,-4.4798,-4.4798,-4.4761,-4.4501,-4.4501,-4.4501,-4.4501,-4.4501,-4.4501,-3.0365,-3.1891,-3.3552,-3.4099,-3.4774,-3.5629,-3.7085,-3.7579,-3.8072,-3.9247,-4.0678,-4.1874,-4.2447,-4.2681,-4.3058,-4.4085,-4.3837,-4.4087,-4.5762,-4.8058,-4.9078,-4.7729,-4.8751,-4.862,-4.624,-4.6312,-4.8083,-5.1859,-5.6629,-6.0984,-6.4679,-6.5698,-6.7304,-6.9876,-6.7504,-6.7371,-6.9942,-6.9942,-6.9942,-6.9942,-6.9942,-6.9942,-6.9942,-6.9942,-6.9942,-6.9942,-6.9942,-7.035,-7.1025,-7.1793,-7.2287,-7.2552,-7.3122,-7.335,-7.3426,-7.4033,-7.4413,-7.4602,-7.4602,-7.4792,-7.5053,-7.5053,-7.5053,-7.5053,-7.5053,-7.5053,-7.5015,-7.4678,-7.4602,-7.4564,-7.4369,-7.3615,-7.2856,-7.2287,-7.1527,-7.0211,-6.7499,-6.5677,-6.4037,-6.251,-6.1352,-6.0908,-6.1966,-6.4375,-6.5219,-6.2578,-6.1283,-5.8296,-5.1885,-5.0167,-4.908,-4.796,-4.8794,-4.8929,-4.7726,-4.7558,-4.7395,-4.6824,-4.6798,-4.6279,-4.5136,-4.5084,-4.4876,-4.4501,-4.4501,-4.4501,-4.4501,-4.4501,-4.4501,-4.4501,-4.4501,-4.4501,-2.9943,-3.1653,-3.3289,-3.2644,-3.4228,-3.6072,-3.6615,-3.6358,-3.628,-3.7479,-3.9474,-4.1214,-4.1848,-4.2421,-4.2928,-4.35,-4.3512,-4.4911,-4.8992,-4.9536,-5.081,-5.4297,-5.1653,-4.9536,-4.9536,-4.9536,-5.1274,-5.561,-5.989,-6.4218,-6.8561,-6.9487,-6.9942,-6.9942,-6.9942,-6.9942,-6.9942,-6.9942,-6.9942,-6.9942,-6.9942,-6.9942,-6.9942,-6.9942,-6.9942,-6.9942,-6.9942,-6.9942,-7.0018,-7.0958,-7.1823,-7.2514,-7.2514,-7.2514,-7.2514,-7.2514,-7.3046,-7.366,-7.366,-7.4299,-7.5053,-7.5053,-7.5053,-7.5053,-7.5053,-7.5053,-7.4792,-7.3957,-7.366,-7.347,-7.2742,-7.1907,-7.1367,-7.1367,-7.0654,-6.9942,-6.9942,-6.7103,-6.5592,-6.9176,-6.697,-6.5659,-6.9242,-6.9876,-6.9876,-6.9876,-6.6769,-6.3088,-5.9261,-5.565,-5.1913,-4.8247,-5.1162,-5.1688,-4.7392,-4.7058,-4.6824,-4.6322,-4.627,-4.575,-4.4553,-4.4501,-4.4501,-4.4501,-4.4501,-4.4501,-4.4501,-4.4501,-4.4501,-4.4501,-4.4501,-4.4501,-2.9286,-3.0437,-3.1813,-3.2875,-3.3656,-3.4254,-3.4436,-3.5501,-3.6514,-3.6488,-3.7739,-3.9195,-4.0548,-4.3069,-4.4598,-4.3669,-4.5022,-4.6976,-4.9261,-5.1653,-5.359,-5.4681,-5.3847,-5.314,-5.314,-5.1005,-5.2103,-5.8168,-6.0425,-6.3354,-6.7614,-6.8718,-6.9439,-6.9942,-6.9942,-6.9942,-6.9942,-6.9942,-6.9942,-6.9942,-6.9942,-6.9942,-6.9942,-6.9942,-6.9942,-6.9942,-6.9942,-6.9942,-6.998,-7.0312,-7.0578,-7.0844,-7.1451,-7.1747,-7.1717,-7.2287,-7.2666,-7.2894,-7.2894,-7.3046,-7.3274,-7.3274,-7.3274,-7.3274,-7.3274,-7.3274,-7.3236,-7.297,-7.2894,-7.2552,-7.1186,-7.0616,-7.0426,-7.0426,-7.0198,-6.9942,-6.9942,-6.9043,-6.8645,-6.9744,-6.9043,-6.8607,-6.981,-6.9942,-6.9942,-6.9942,-6.6903,-6.4139,-6.2884,-5.95,-5.6734,-5.555,-5.3837,-5.108,-4.6861,-4.6556,-4.6227,-4.5655,-4.5308,-4.4891,-4.4527,-4.4501,-4.4501,-4.4501,-4.4501,-4.4501,-4.4501,-4.4501,-4.4501,-4.4501,-4.4501,-4.4501,-2.9026,-2.9917,-3.104,-3.2407,-3.2794,-3.2951,-3.3602,-3.5317,-3.68,-3.6638,-3.8581,-4.0324,-4.026,-4.2157,-4.447,-4.6609,-4.6263,-4.7514,-5.2729,-5.4233,-5.5768,-5.8339,-5.7484,-5.6723,-5.6723,-5.4713,-5.5225,-5.9563,-6.1852,-6.4158,-6.6908,-6.8148,-6.9022,-6.9553,-6.9857,-6.9942,-6.9942,-6.9942,-6.9942,-6.9942,-6.9942,-6.9942,-6.9942,-6.9942,-6.9942,-6.9942,-6.9942,-6.9942,-6.9942,-6.9942,-6.9942,-7.0018,-7.0578,-7.0806,-7.0882,-7.1375,-7.1755,-7.2021,-7.2021,-7.2249,-7.2514,-7.2514,-7.2514,-7.2514,-7.2514,-7.2514,-7.2438,-7.2135,-7.2021,-7.1717,-7.0388,-6.9942,-6.9942,-6.9942,-6.9942,-6.9942,-6.9942,-6.9942,-6.9942,-6.9942,-6.9942,-6.9942,-6.9942,-6.9942,-6.9942,-6.9942,-6.8075,-6.6062,-6.468,-6.2204,-6.051,-6.051,-5.5442,-5.0362,-4.6259,-4.5889,-4.5629,-4.5032,-4.5884,-4.587,-4.4568,-4.4501,-4.4501,-4.4501,-4.4501,-4.4501,-4.4501,-4.4501,-4.4501,-4.4501,-4.4501,-4.4501,-2.9052,-2.9814,-3.0754,-3.1523,-3.1821,-3.2335,-3.3933,-3.5661,-3.7073,-3.7663,-4.1293,-4.3596,-4.0909,-4.0278,-4.2767,-5.0799,-4.7437,-4.7549,-5.8248,-5.7133,-5.761,-6.4122,-6.1945,-5.994,-6.019,-6.0002,-5.994,-6.019,-6.3924,-6.6237,-6.6313,-6.7769,-6.868,-6.8794,-6.9515,-6.9905,-6.9942,-6.9942,-6.9942,-6.9942,-6.9942,-6.9942,-6.9942,-6.9942,-6.9942,-6.9942,-6.9942,-6.9942,-6.9942,-6.9942,-6.9942,-6.9942,-6.9942,-6.9942,-6.9942,-6.9942,-7.0502,-7.1253,-7.1253,-7.1679,-7.2325,-7.2325,-7.2325,-7.2325,-7.2325,-7.2325,-7.2173,-7.1481,-7.1253,-7.1063,-7.0236,-6.9942,-6.9942,-6.9942,-6.9942,-6.9942,-6.9942,-6.9942,-6.9942,-6.9942,-6.9942,-6.9942,-6.9942,-6.9942,-6.9942,-6.9942,-6.9971,-6.8666,-6.5283,-6.404,-6.348,-6.348,-5.6649,-5.0486,-4.6768,-4.6146,-4.5706,-4.4927,-4.7861,-4.8058,-4.4634,-4.4501,-4.4501,-4.4501,-4.4501,-4.4501,-4.4501,-4.4501,-4.4501,-4.4501,-4.4501,-4.4501,-2.8307,-2.8957,-2.9884,-3.1315,-3.3022,-3.4468,-3.4844,-3.5965,-3.7205,-3.8217,-4.0051,-4.1564,-4.195,-4.0387,-4.0704,-4.5897,-5.0783,-5.5073,-5.8524,-5.884,-6.0225,-6.4406,-6.1945,-6.0913,-6.3468,-6.1349,-6.0975,-6.3567,-6.4718,-6.5529,-6.6275,-6.6655,-6.7491,-6.8756,-6.8984,-6.9401,-7.0009,-6.9942,-6.9942,-6.9942,-6.9942,-6.9942,-6.9942,-6.9942,-6.9942,-6.9942,-6.9942,-6.9942,-6.9942,-6.9942,-6.9942,-6.9942,-6.9942,-6.9942,-6.9942,-6.9942,-7.016,-7.0312,-7.0312,-7.0426,-7.0549,-7.0549,-7.0549,-7.0549,-7.0549,-7.0549,-7.0473,-7.0388,-7.0312,-7.0274,-7.0047,-6.9942,-6.9942,-6.9942,-6.9942,-6.9942,-6.9942,-6.9942,-6.9942,-6.9942,-6.9942,-6.9942,-6.9942,-6.9942,-6.9942,-6.9942,-6.9477,-6.8733,-6.791,-6.7033,-6.641,-6.641,-6.1837,-5.8375,-5.7431,-5.4416,-5.138,-4.8583,-4.9144,-4.8058,-4.4634,-4.4501,-4.4501,-4.4501,-4.4501,-4.4501,-4.4501,-4.4501,-4.4501,-4.4501,-4.4501,-4.4501,-2.9486,-3.0172,-3.1387,-3.3917,-3.5481,-3.653,-3.6742,-3.7895,-3.919,-3.9819,-4.1912,-4.3485,-4.2946,-4.437,-4.5341,-4.4336,-4.9098,-5.4512,-5.924,-5.916,-6.0108,-6.3926,-6.3061,-6.2912,-6.4775,-6.3283,-6.2974,-6.4775,-6.4898,-6.5149,-6.5605,-6.6022,-6.6731,-6.7643,-6.7996,-6.8604,-6.9439,-6.9439,-6.9439,-6.9477,-6.9791,-6.9942,-6.9942,-6.9942,-6.9942,-6.9942,-6.9942,-6.9942,-6.9942,-6.9942,-6.9942,-6.9942,-6.9942,-6.9942,-6.9942,-6.9942,-6.9942,-6.9942,-6.9942,-6.9942,-6.9942,-6.9942,-6.9942,-6.9942,-6.9942,-6.9942,-6.9942,-6.9942,-6.9942,-6.9942,-6.9942,-6.9942,-6.9942,-6.9942,-6.9942,-6.9942,-6.9942,-6.9942,-6.9942,-6.9942,-6.9942,-6.9829,-6.9515,-6.9439,-6.9325,-6.8908,-6.8452,-6.8186,-6.8186,-6.7427,-6.6895,-6.6895,-6.3069,-6.048,-6.048,-5.7019,-5.3976,-5.2107,-5.343,-5.2786,-4.9405,-4.7729,-4.6834,-4.6834,-4.5273,-4.4501,-4.4501,-4.4501,-4.4501,-4.4501,-4.4501,-4.4501,-3.1295,-3.2623,-3.4612,-3.7548,-3.8332,-3.8559,-3.8997,-4.032,-4.1494,-4.1884,-4.466,-4.6357,-4.4037,-4.8246,-5.046,-4.5509,-4.6426,-5.0913,-5.977,-5.9362,-5.9577,-6.333,-6.4466,-6.4898,-6.4898,-6.4898,-6.4898,-6.4898,-6.4898,-6.4898,-6.4898,-6.5643,-6.6161,-6.6313,-6.6895,-6.7617,-6.8414,-6.8414,-6.8452,-6.8604,-6.9439,-6.9819,-6.9819,-6.9905,-6.9942,-6.9942,-6.9942,-6.9942,-6.9942,-6.9942,-6.9942,-6.9942,-6.9942,-6.9942,-6.9942,-6.9942,-6.9942,-6.9942,-6.9942,-6.9942,-6.9942,-6.9942,-6.9942,-6.9942,-6.9942,-6.9942,-6.9942,-6.9942,-6.9942,-6.9942,-6.9942,-6.9942,-6.9942,-6.9942,-6.9942,-6.9942,-6.9942,-6.9867,-6.9819,-6.9819,-6.9705,-6.9401,-6.8718,-6.8604,-6.8338,-6.7579,-6.7351,-6.7275,-6.7275,-6.6554,-6.6085,-6.6085,-6.2781,-6.0663,-6.0663,-5.7989,-5.6341,-5.6341,-5.8557,-5.862,-5.5704,-5.2236,-5.0094,-4.9601,-4.624,-4.4767,-4.5273,-4.4767,-4.4767,-4.5273,-4.4767,-4.4501,-3.1883,-3.5443,-3.9513,-3.9839,-4.0358,-4.0886,-4.0981,-4.1216,-4.197,-4.3934,-4.488,-4.5386,-4.5711,-4.4917,-4.5673,-5.0322,-4.9637,-5.1193,-5.9174,-6.1135,-6.226,-6.3608,-6.4466,-6.4898,-6.4898,-6.4898,-6.4898,-6.4898,-6.4898,-6.4898,-6.4898,-6.505,-6.5491,-6.6275,-6.6427,-6.6541,-6.6693,-6.6693,-6.7035,-6.7655,-6.8566,-6.8984,-6.9022,-6.9639,-6.9942,-6.9942,-6.9942,-6.9942,-6.9942,-6.9942,-6.9942,-6.9942,-6.9942,-6.9942,-6.9942,-6.9942,-6.9942,-6.9942,-6.9942,-6.9942,-6.9942,-6.9942,-6.9942,-6.9942,-6.9942,-6.9942,-6.9942,-6.9942,-6.9942,-6.9942,-6.9942,-6.9942,-6.9942,-6.9942,-6.9942,-6.9942,-6.9942,-6.9477,-6.8984,-6.8984,-6.8376,-6.7807,-6.7693,-6.7655,-6.7617,-6.7465,-6.6857,-6.6465,-6.6465,-6.5681,-6.5149,-6.5149,-6.4543,-6.4122,-6.4122,-6.3691,-6.3382,-6.3382,-6.1162,-5.9626,-5.9124,-5.5832,-5.2624,-4.9601,-4.624,-4.5936,-4.8817,-4.5936,-4.6002,-4.8751,-4.587,-4.4501,-3.5852,-3.8995,-4.2361,-4.2675,-4.3041,-4.3291,-4.3291,-4.3291,-4.3592,-4.4654,-4.4904,-4.5061,-4.544,-4.5315,-4.6143,-4.9235,-4.9947,-5.1619,-5.6083,-5.9644,-6.2302,-6.3592,-6.4466,-6.4898,-6.4898,-6.4898,-6.4898,-6.4898,-6.4898,-6.4898,-6.4898,-6.4898,-6.5149,-6.5529,-6.5529,-6.5529,-6.5529,-6.6047,-6.6465,-6.6845,-6.7655,-6.8072,-6.8072,-6.8452,-6.8908,-6.9363,-6.9363,-6.9591,-6.9942,-6.9942,-6.9942,-6.9942,-6.9942,-6.9942,-6.9942,-6.9942,-6.9942,-6.9942,-6.9942,-6.9942,-6.9942,-6.9942,-6.9942,-6.9942,-6.9942,-6.9942,-6.9942,-6.9942,-6.9942,-6.9942,-6.9942,-6.9705,-6.9363,-6.9363,-6.8984,-6.8642,-6.8642,-6.8338,-6.8072,-6.8072,-6.7731,-6.7313,-6.6857,-6.6845,-6.663,-6.6174,-6.5794,-6.5529,-6.5529,-6.5187,-6.4898,-6.4898,-6.4898,-6.4898,-6.4898,-6.4898,-6.4898,-6.4898,-6.3468,-6.2566,-6.2566,-6.1136,-5.8683,-5.5225,-5.1848,-5.084,-5.243,-4.8948,-4.8058,-4.9471,-4.6068,-4.4501,-4.0607,0.0,-4.4492,-4.5326,-4.5321,-4.525,0.0,-4.5061,-4.4904,-4.4904,-4.4904,-4.4904,-4.4904,-4.5971,-4.7033,-4.7647,-4.9393,-5.153,-5.381,-5.7708,-6.1125,-6.3213,-6.4162,-6.4693,-6.4693,-6.4784,-6.4898,-6.4898,-6.4898,-6.4898,-6.4898,-6.4898,-6.4898,-6.4898,-6.4898,-6.4898,-6.4898,-6.5605,-6.6009,-6.5946,-6.6782,-6.7161,-6.7161,-6.7351,-6.7845,-6.849,-6.849,-6.8832,-6.9439,-6.9629,-6.9743,-6.9743,-6.9867,-6.9942,-6.9942,-6.9942,-6.9942,-6.9942,-6.9942,-6.9942,-6.9942,-6.9942,-6.9942,-6.9942,-6.9942,-6.9743,-6.9336,-6.9336,-6.9336,-6.9336,-6.9336,-6.8946,-6.849,-6.849,-6.7958,-6.7465,-6.7465,-6.7313,-6.7161,-6.7161,-6.7009,-6.6668,-6.606,-6.6009,-6.5718,-6.5012,-6.4898,-6.4898,-6.4898,-6.4898,-6.4898,-6.4898,-6.4898,-6.4898,-6.4898,-6.4898,-6.4898,-6.4898,-6.4898,-6.4898,-6.4898,-6.4898,-6.3345,-5.994,-5.7357,-5.5576,-5.4809,-5.1264,-4.9993,-5.068,-4.7268,-4.5273,0.0,-4.5927,-4.6242,-4.7033,-4.6736,-4.6166,-4.6166,-4.5516,0.0,-4.4904,-4.4904,-4.4904,-4.4904,-4.498,-4.5895,-4.83,-4.8832,-5.0352,-5.4329,-5.6622,-5.9016,-6.2284,-6.3327,-6.382,-6.382,-6.4504,-6.4898,-6.4898,-6.4898,-6.4898,-6.4898,-6.4898,-6.4898,-6.4898,-6.4898,-6.4898,-6.4898,-6.4974,-6.5012,-6.5073,-6.5908,-6.6389,-6.6427,-6.7123,-6.7503,-6.7541,-6.7541,-6.7579,-6.7693,-6.8528,-6.887,-6.8984,-6.9705,-6.9942,-6.9942,-6.9942,-6.9942,-6.9942,-6.9942,-6.9942,-6.9942,-6.9942,-6.9942,-6.9942,-6.9942,-6.8908,-6.7617,-6.7617,-6.7617,-6.7617,-6.7617,-6.7579,-6.7541,-6.7541,-6.7503,-6.7465,-6.7465,-6.6921,-6.6389,-6.6389,-6.5681,-6.505,-6.5012,-6.5012,-6.4974,-6.4936,-6.4898,-6.4898,-6.4898,-6.4898,-6.4898,-6.4898,-6.4898,-6.4898,-6.4898,-6.4898,-6.4898,-6.4898,-6.4898,-6.4898,-6.4898,-6.4898,-6.3345,-5.994,-5.9626,-5.7989,-5.4809,-5.1264,-5.12,-5.4361,-5.081,-4.7532,-4.602,-4.6622,-4.7077,-4.7336,-4.7229,-4.685,-4.64,-4.5976,-4.5554,-4.5023,-4.4904,-4.4904,-4.4904,-4.4904,-4.5402,-4.697,-4.7609,-4.9431,-5.3696,-5.6166,-5.8788,-6.217,-6.331,-6.3934,-6.4466,-6.4314,-6.4428,-6.486,-6.4898,-6.4898,-6.4898,-6.4898,-6.4898,-6.4898,-6.4898,-6.4898,-6.4898,-6.4898,-6.4898,-6.4898,-6.5301,-6.5453,-6.5453,-6.5756,-6.6174,-6.6769,-6.6769,-6.6971,0.0,-6.7807,-6.7958,-6.7996,-6.83,-6.8414,-6.8414,-6.8414,-6.8414,-6.8414,-6.8414,-6.8414,-6.8414,-6.8414,-6.8414,-6.8414,-6.8414,-6.7958,-6.7465,-6.7465,-6.7465,-6.7465,-6.7465,-6.7085,-6.6769,-6.6769,-6.6288,-6.5908,-6.5908,-6.5643,-6.5453,-6.5453,-6.5187,-6.4898,-6.4898,-6.4898,-6.4898,-6.4898,-6.4898,-6.4898,-6.4898,-6.4898,-6.4898,-6.4898,-6.4898,-6.4898,-6.4898,-6.4898,-6.4898,-6.4898,-6.4898,-6.4898,-6.4898,-6.4898,-6.4307,-6.3036,-6.3036,-6.238,-6.1136,-5.9787,-5.8746,-5.7863,-5.4425,-5.0795,-4.6932,-4.7419,-4.7913,-4.8171,-4.8064,-4.7647,-4.6812,-4.6432,-4.6014,-4.5098,-4.4904,-4.4904,-4.4904,-4.4904,-4.5288,-4.6432,-4.7115,-4.9014,-5.3582,-5.59,-5.8408,-6.179,-6.2871,-6.3668,-6.4504,-6.4314,-6.4352,-6.486,-6.4898,-6.4898,-6.4898,-6.4898,-6.4898,-6.4898,-6.4898,-6.4898,-6.4898,-6.4898,-6.4898,-6.4898,-6.4898,-6.4898,-6.4898,-6.4898,-6.5301,-6.5832,-6.5832,-6.6136,-6.6668,-6.6971,-6.7047,-6.7085,-6.7351,-6.7465,-6.7465,-6.7465,-6.7465,-6.7465,-6.7465,-6.7465,-6.7465,-6.7465,-6.7465,-6.7465,-6.7465,-6.7085,-6.6668,-6.6668,-6.6668,-6.6668,-6.6668,-6.625,-6.5832,-6.5832,-6.5377,-6.4898,-6.4898,-6.4898,-6.4898,-6.4898,-6.4898,-6.4898,-6.4898,-6.4898,-6.4898,-6.4898,-6.4898,-6.4898,-6.4898,-6.4898,-6.4898,-6.4898,-6.4898,-6.4898,-6.4898,-6.4898,-6.4898,-6.4898,-6.4898,-6.4898,-6.4898,-6.4898,-6.4898,-6.4898,-6.4898,-6.4898,-6.4898,-6.4898,-6.316,-5.9814,-5.7248,-5.328,-4.83,-4.8756,-4.8984,-4.9764,-4.9393,-4.8566,-4.7647,-4.685,-4.6014,-4.5098,-4.4904,-4.4904,-4.4904,-4.4904,-4.5435,-4.7147,-4.7412,-4.9241,-5.4291,-5.5696,-5.7426,-6.0801,-6.2036,-6.293,-6.3668,-6.4504,-6.4898,-6.4898,-6.4898,-6.4898,-6.4898,-6.4898,-6.4898,-6.4898,-6.4898,-6.4898,-6.4898,-6.4898,-6.4898,-6.4898,-6.4898,-6.4898,-6.4898,-6.4898,-6.4898,-6.4898,-6.4898,-6.4898,-6.4974,-6.587,-6.6275,-6.6351,-6.7123,-6.7427,-6.7427,-6.7427,-6.7427,-6.7427,-6.7427,-6.7427,-6.7427,-6.7427,-6.7427,-6.7427,-6.7427,-6.6288,-6.4898,-6.4898,-6.4898,-6.4898,-6.4898,-6.4898,-6.4898,-6.4898,-6.4898,-6.4898,-6.4898,-6.4898,-6.4898,-6.4898,-6.4898,-6.4898,-6.4898,-6.4898,-6.4898,-6.4898,-6.4898,-6.4898,-6.4898,-6.4898,-6.4898,-6.4898,-6.4898,-6.4898,-6.4898,-6.4898,-6.4898,-6.4898,-6.4898,-6.4898,-6.4898,-6.4898,-6.4898,-6.4898,-6.4898,-6.4898,-6.4898,-6.4898,-6.3184,-5.9842,-5.9105,-5.4669,-4.7875,-4.871,-4.965,-4.9916,-4.9802,-4.9241,-4.7754,-4.7267,-4.6654,-4.525,-4.4904,-4.4904,-4.4904,-4.4904,-4.5288,-4.6432,-4.8057,-5.0371,-5.3734,-5.6341,-5.8999,-6.1808,-6.2968,-6.3479,-6.3744,-6.4504,-6.4898,-6.4898,-6.4898,-6.4898,-6.4898,-6.4898,-6.4898,-6.4898,-6.4898,-6.4898,-6.4898,-6.4898,-6.4898,-6.4898,-6.4898,-6.4898,-6.4898,-6.4898,-6.4898,-6.4898,-6.4898,-6.4898,-6.4936,-6.5225,-6.5339,-6.5377,-6.5605,-6.5618,-6.5618,-6.5618,-6.5618,-6.5618,-6.5618,-6.5618,-6.5618,-6.5618,-6.5618,-6.5618,-6.5618,-6.5277,-6.4898,-6.4898,-6.4898,-6.4898,-6.4898,-6.4898,-6.4898,-6.4898,-6.4898,-6.4898,-6.4898,-6.4898,-6.4898,-6.4898,-6.4898,-6.4898,-6.4898,-6.4898,-6.4898,-6.4898,-6.4898,-6.4898,-6.4898,-6.4898,-6.4898,-6.4898,-6.4898,-6.4898,-6.4898,-6.4898,-6.4898,-6.4898,-6.4898,-6.4898,-6.4898,-6.4898,-6.4898,-6.4898,-6.4898,-6.4693,-6.4124,-6.4124,-6.33,-6.1737,-5.9178,-5.6802,-4.8474,-4.9195,-4.9944,-4.9944,-4.9944,-4.9489,-4.7791,-4.7412,-4.6957,-4.5245,-4.4904,-4.5023,-4.5364,-4.5174,-4.544,-4.7001,-4.852,-5.0608,-5.3886,-5.6265,-5.8923,-6.2208,-6.3006,-6.3516,-6.4162,-6.4693,-6.4898,-6.4898,-6.4898,-6.4898,-6.4898,-6.4898,-6.4898,-6.4898,-6.4898,-6.4898,-6.4898,-6.4898,-6.4898,-6.4898,-6.4898,-6.4898,-6.4898,-6.4898,-6.4898,-6.4898,-6.4898,-6.4898,-6.4898,-6.4898,-6.4898,-6.4898,-6.4898,-6.4898,-6.4898,-6.4898,-6.4898,-6.4898,-6.4898,-6.4898,-6.4898,-6.4898,-6.4898,-6.4898,-6.4898,-6.4898,-6.4898,-6.4898,-6.4898,-6.4898,-6.4898,-6.4898,-6.4898,-6.4898,-6.4898,-6.4898,-6.4898,-6.4898,-6.4898,-6.4898,-6.4898,-6.4898,-6.4898,-6.4898,-6.4898,-6.4898,-6.4898,-6.4898,-6.4898,-6.4898,-6.4898,-6.4898,-6.4898,-6.4898,-6.4898,-6.4898,-6.4898,-6.4898,-6.4898,-6.4898,-6.4898,-6.4655,-6.4466,-6.4466,-6.4162,-6.3744,-6.331,-6.331,-6.2389,-6.0638,-5.9618,-5.7772,-4.9688,-4.9916,-4.9944,-4.9944,-4.9944,-4.9489,-4.7791,-4.7412,-4.6957,-4.5245,-4.4904,-4.5169,-4.609,-4.5629,-4.5971,-4.849,-4.9136,-5.0694,-5.4557,-5.5961,-5.8049,-6.2132,-6.2588,-6.3234,-6.4746,-6.4898,-6.4898,-6.4898,-6.4898,-6.4898,-6.4898,-6.4898,-6.4898,-6.4898,-6.4898,-6.4898,-6.4898,-6.4898,-6.4898,-6.4898,-6.4898,-6.4898,-6.4898,-6.4898,-6.4898,-6.4898,-6.4898,-6.4898,-6.4898,-6.4898,-6.4898,-6.4898,-6.4898,-6.4898,-6.4898,-6.4898,-6.4898,-6.4898,-6.4898,-6.4898,-6.4898,-6.4898,-6.4898,-6.4898,-6.4898,-6.4898,-6.4898,-6.4898,-6.4898,-6.4898,-6.4898,-6.4898,-6.4898,-6.4898,-6.4898,-6.4898,-6.4898,-6.4898,-6.4898,-6.4898,-6.4898,-6.4898,-6.4898,-6.4898,-6.4898,-6.4898,-6.4898,-6.4898,-6.4898,-6.4898,-6.4898,-6.4898,-6.4898,-6.4898,-6.4898,-6.4898,-6.486,-6.4845,-6.4784,-6.4746,-6.467,-6.401,-6.363,-6.363,-6.2968,-6.255,-6.2474,-6.2474,-6.0884,-5.7985,-5.9855,-5.7403,-4.9128,-4.9507,-4.9944,-4.9944,-4.9944,-4.9489,-4.7791,-4.7412,-4.6957,-4.5245,-4.4904,-4.5169,-4.609,-4.6622,-4.7488,-4.9385,-5.1937,-5.4177,-5.5734,-5.7822,-6.0062,-6.2322,-6.2588,-6.3234,-6.4746,-6.4898,-6.4898,-6.4898,-6.4898,-6.4898,-6.4898,-6.4898,-6.4898,-6.4898,-6.4898,-6.4898,-6.4898,-6.4898,-6.4898,-6.4898,-6.4898,-6.4898,-6.4898,-6.4898,-6.4898,-6.4898,-6.4898,-6.4898,-6.4898,-6.4898,-6.4898,-6.4898,-6.4898,-6.4898,-6.4898,-6.4898,-6.4898,-6.4898,-6.4898,-6.4898,-6.4898,-6.4898,-6.4898,-6.4898,-6.4898,-6.4898,-6.4898,-6.4898,-6.4898,-6.4898,-6.4898,-6.4898,-6.4898,-6.4898,-6.4898,-6.4898,-6.4898,-6.4898,-6.4898,-6.4898,-6.4898,-6.4898,-6.4898,-6.4898,-6.4898,-6.4898,-6.4898,-6.4898,-6.4898,-6.4898,-6.4898,-6.4898,-6.4898,-6.4898,-6.4898,-6.4898,-6.4693,-6.4048,-6.401,-6.3744,-6.3158,-6.293,-6.2854,-6.2854,-6.2664,-6.2246,-6.1542,-6.1542,-6.0853,-5.9543,-5.7441,-5.4418,-4.9469,-4.965,-4.9944,-4.9944,-4.9944,-4.965,-4.8368,-4.7761,-4.7185,-4.6312,-4.5819,-4.5976,-4.7236,-4.7799,-4.8634,-5.0295,-5.2772,-5.4822,-5.5984,-5.8049,-6.0176,-6.236,-6.2588,-6.3234,-6.4746,-6.4898,-6.4898,-6.4898,-6.4898,-6.4898,-6.4898,-6.4898,-6.4898,-6.4898,-6.4898,-6.4898,-6.4898,-6.4898,-6.4898,-6.4898,-6.4898,-6.4898,-6.4898,-6.4898,-6.4898,-6.4898,-6.4898,-6.4898,-6.4898,-6.4898,-6.4898,-6.4898,-6.4898,-6.4898,-6.4898,-6.4898,-6.4898,-6.4898,-6.4898,-6.4898,-6.4898,-6.4898,-6.4898,-6.4898,-6.4898,-6.4898,-6.4898,-6.4898,-6.4898,-6.4898,-6.4898,-6.4898,-6.4898,-6.4898,-6.4898,-6.4898,-6.4898,-6.4898,-6.4898,-6.4898,-6.4898,-6.4898,-6.4898,-6.4898,-6.4898,-6.4898,-6.4898,-6.4898,-6.4898,-6.4898,-6.4807,-6.4428,-6.439,-6.4238,-6.382,-6.3782,-6.363,-6.3272,-6.3234,-6.3044,-6.2626,-6.215,-6.1922,-6.1922,-6.1542,-6.1125,-6.0669,-6.0669,-5.966,-5.7746,-5.7575,-5.5834,-4.9953,-4.9944,-4.9944,-4.9944,-4.9944,-4.9764,-4.8984,-4.8292,-4.7829,-4.7723,-4.7267,-4.7381,-4.8946,-4.9326,-4.9972,-5.172,-5.3392,-5.4988,-5.6417,-5.7974,-5.9834,-6.2322,-6.2588,-6.3234,-6.4746,-6.4898,-6.4898,-6.4898,-6.4898,-6.4898,-6.4898,-6.4898,-6.4898,-6.4898,-6.4898,-6.4898,-6.4898,-6.4898,-6.4898,-6.4898,-6.4898,-6.4898,-6.4898,-6.4898,-6.4898,-6.4898,-6.4898,-6.4898,-6.4898,-6.4898,-6.4898,-6.4898,-6.4898,-6.4898,-6.4898,-6.4898,-6.4898,-6.4898,-6.4898,-6.4898,-6.4898,-6.4898,-6.4898,-6.4898,-6.4898,-6.4898,-6.4898,-6.4898,-6.4898,-6.4898,-6.4898,-6.4898,-6.4898,-6.4898,-6.4898,-6.4898,-6.4898,-6.4898,-6.4898,-6.4898,-6.4898,-6.4898,-6.4898,-6.4898,-6.4898,-6.4898,-6.4898,-6.4898,-6.4898,-6.467,-6.4276,-6.3592,-6.3554,-6.331,-6.2664,-6.2588,-6.255,-6.2398,-6.236,-6.2322,-6.217,-6.1428,-6.1049,-6.1049,-6.0403,-6.0062,-6.0062,-6.0062,-5.8566,-5.5852,-5.8568,-5.8003,-4.9764,-4.9944,-4.9944,-4.9944,-4.9944,-4.9764,-4.8984,-4.9203,-4.9422,-4.8756,-4.909,-4.9764,-5.076,-5.1519,-5.2544,-5.4253,-5.5938,-5.7382,-5.8239,-5.9226,-6.0517,-6.236,-6.2588,-6.3234,-6.4746,-6.4898,-6.4898,-6.4898,-6.4898,-6.4898,-6.4898,-6.4898,-6.4898,-6.4898,-6.4898,-6.4898,-6.4898,-6.4898,-6.4898,-6.4898,-6.4898,-6.4898,-6.4898,-6.4898,-6.4898,-6.4898,-6.4898,-6.4898,-6.4898,-6.4898,-6.4898,-6.4898,-6.4898,-6.4898,-6.4898,-6.4898,-6.4898,-6.4898,-6.4898,-6.4898,-6.4898,-6.4898,-6.4898,-6.4898,-6.4898,-6.4898,-6.4898,-6.4898,-6.4898,-6.4898,-6.4898,-6.4898,-6.4898,-6.4898,-6.4898,-6.4898,-6.4898,-6.4898,-6.4898,-6.4898,-6.4898,-6.4898,-6.4898,-6.4898,-6.4898,-6.4898,-6.4898,-6.4898,-6.4898,-6.3744,-6.2854,-6.2778,-6.274,-6.2702,-6.2588,-6.2588,-6.2284,-6.1466,-6.137,-6.1125,-6.0403,-6.0251,-6.0213,-6.0213,-6.01,-6.0062,-6.0062,-6.0062,-5.9475,-5.829,-5.868,-5.6765,-4.9726,-4.9944,-4.9944,-4.9944,-4.9944,-4.9878,-4.9545,-4.9393,-4.9469,-5.0086,-5.0077,-5.0371,-5.1747,-5.2658,-5.3607,-5.4822,-5.6432,-5.7838,-5.8581,-5.9454,-6.0479,-6.1694,-6.2284,-6.3044,-6.4162,-6.4693,-6.4898,-6.4898,-6.4898,-6.4898,-6.4898,-6.4898,-6.4898,-6.4898,-6.4898,-6.4898,-6.4898,-6.4898,-6.4898,-6.4898,-6.4898,-6.4898,-6.4898,-6.4898,-6.4898,-6.4898,-6.4898,-6.4898,-6.4898,-6.4898,-6.4898,-6.4898,-6.4898,-6.4898,-6.4898,-6.4898,-6.4898,-6.4898,-6.4898,-6.4898,-6.4898,-6.4898,-6.4898,-6.4898,-6.4898,-6.4898,-6.4898,-6.4898,-6.4898,-6.4898,-6.4898,-6.4898,-6.4898,-6.4898,-6.4898,-6.4898,-6.4898,-6.4898,-6.4898,-6.4898,-6.4898,-6.4746,-6.4352,-6.4276,-6.4124,-6.3668,-6.3592,-6.3592,-6.3592,-6.3044,-6.2398,-6.1884,-6.1808,-6.1656,-6.122,-6.1182,-6.0973,-6.0593,-6.0593,-6.0403,-6.0062,-6.0062,-5.9796,-5.9302,-5.9302,-5.913,-5.8674,-5.8674,-5.8446,-5.8066,-5.8066,-5.7073,-4.9393,-4.965,-4.9688,-4.9868,-4.9944,-4.9944,-4.9944,-4.9697,-4.9782,-5.1074,-5.114,-5.1319,-5.262,-5.3582,-5.4418,-5.5164,-5.6584,-5.7838,-5.8581,-5.9454,-6.0365,-6.1105,-6.1998,-6.293,-6.3668,-6.4504,-6.4822,-6.4594,-6.4784,-6.4898,-6.4898,-6.4898,-6.4898,-6.4898,-6.4898,-6.4898,-6.4898,-6.4898,-6.4898,-6.4898,-6.4898,-6.4898,-6.4898,-6.4898,-6.4898,-6.4898,-6.4898,-6.4898,-6.4898,-6.4898,-6.4898,-6.4898,-6.4898,-6.4898,-6.4898,-6.4898,-6.4898,-6.4898,-6.4898,-6.4898,-6.4898,-6.4898,-6.4898,-6.4898,-6.4898,-6.4746,-6.4655,-6.4655,-6.4504,-6.4352,-6.4352,-6.4352,-6.4352,-6.4352,-6.4352,-6.4352,-6.4352,-6.4352,-6.4352,-6.4352,-6.4352,-6.4162,-6.3554,-6.3441,-6.3272,-6.2664,-6.2588,-6.2436,-6.2018,-6.1942,-6.1656,-6.1011,-6.0973,-6.0707,-6.01,-6.0062,-5.9948,-5.972,-5.9682,-5.9606,-5.9416,-5.9434,-5.9075,-5.8391,-5.8391,-5.8142,-5.7534,-5.7534,-5.742,-5.7192,-5.7192,-5.7116,-4.8414,-4.8832,-4.9022,-4.9764,-4.9944,-4.9944,-4.9944,-5.0608,-5.1226,-5.134,-5.2556,-5.3658,-5.3734,-5.4456,-5.5202,-5.5946,-5.691,-5.7838,-5.8581,-5.9454,-6.0365,-6.1105,-6.1998,-6.293,-6.3668,-6.4504,-6.4594,-6.3858,-6.4504,-6.4898,-6.4898,-6.4898,-6.4898,-6.4898,-6.4898,-6.4898,-6.4898,-6.4898,-6.4898,-6.4898,-6.4898,-6.4898,-6.4898,-6.4898,-6.4898,-6.4898,-6.4898,-6.4898,-6.4898,-6.4898,-6.4898,-6.4898,-6.4898,-6.4898,-6.4898,-6.4898,-6.4898,-6.4898,-6.4898,-6.4898,-6.4898,-6.4898,-6.4898,-6.4898,-6.4898,-6.4428,-6.382,-6.382,-6.331,-6.2702,-6.2702,-6.2702,-6.2702,-6.2702,-6.2702,-6.2702,-6.2702,-6.2702,-6.2702,-6.2702,-6.2702,-6.2702,-6.2664,-6.2664,-6.2626,-6.2588,-6.2588,-6.2018,-6.0365,-6.0176,-6.0176,-6.01,-6.01,-6.01,-6.0062,-6.0062,-5.9682,-5.8809,-5.8771,-5.8429,-5.7686,-5.7686,-5.7648,-5.761,-5.761,-5.7572,-5.7534,-5.7534,-5.7062,-5.6212,-5.6212,-5.5847,-4.8338,-4.8756,-4.8984,-4.9764,-4.9944,-4.9944,-4.9944,-5.0219,-5.0646,-5.1178,-5.1834,-5.2556,-5.362,-5.4076,-5.4722,-5.5946,-5.691,-5.7838,-5.8581,-5.9454,-6.0138,-6.0441,-6.1201,-6.1846,-6.2112,-6.2909,-6.3289,-6.3044,-6.3744,-6.4162,-6.4162,-6.4693,-6.4898,-6.4898,-6.4898,-6.4898,-6.4898,-6.4898,-6.4898,-6.4898,-6.4898,-6.4898,-6.4898,-6.4898,-6.4898,-6.4898,-6.4898,-6.4898,-6.4898,-6.4898,-6.4898,-6.4898,-6.4898,-6.4898,-6.4898,-6.4898,-6.4898,-6.4807,-6.3744,-6.3403,-6.3403,-6.3403,-6.3403,-6.3403,-6.3403,-6.3272,-6.3006,-6.3006,-6.2816,-6.2588,-6.2588,-6.2588,-6.2588,-6.2588,-6.2588,-6.2588,-6.2588,-6.2588,-6.2588,-6.2588,-6.2588,-6.2588,-6.2588,-6.2074,-6.1542,-6.1011,-6.0935,-6.0707,-6.0138,-5.953,-5.9188,-5.9188,-5.875,-5.8446,-5.8446,-5.8446,-5.8332,-5.799,-5.7952,-5.7838,-5.7534,-5.7534,-5.7268,-5.6683,-5.6645,-5.6417,-5.5885,-5.5885,-5.5734,-5.543,-5.4898,-5.3618,-4.6742,-4.7312,-4.7806,-4.8854,-4.9347,-4.9612,-4.9916,-4.9944,-5.0143,-5.076,-5.1102,-5.1682,-5.2784,-5.3468,-5.419,-5.5202,-5.6341,-5.7252,-5.7784,-5.8847,-5.9606,-5.9606,-6.0593,-6.1219,-6.1219,-6.177,-6.2112,-6.2112,-6.293,-6.3327,-6.3327,-6.3858,-6.4162,-6.4162,-6.4162,-6.4276,-6.4542,-6.4542,-6.4693,-6.4898,-6.4898,-6.4898,-6.4898,-6.4898,-6.4898,-6.4898,-6.4693,-6.4542,-6.4542,-6.4276,-6.4162,-6.4162,-6.4162,-6.4162,-6.4162,-6.4162,-6.4162,-6.401,-6.2968,-6.2588,-6.2588,-6.2588,-6.2588,-6.2588,-6.2588,-6.2398,-6.2112,-6.2112,-6.198,-6.1752,-6.1752,-6.1752,-6.1752,-6.1752,-6.1752,-6.1752,-6.1752,-6.1752,-6.1752,-6.1752,-6.1752,-6.1752,-6.1752,-6.1239,-6.0669,-6.0138,-6.0062,-5.9834,-5.932,-5.8657,-5.8277,-5.8277,-5.7838,-5.7534,-5.7534,-5.7534,-5.742,-5.7062,-5.7062,-5.6948,-5.6698,-5.6698,-5.6318,-5.5392,-5.5392,-5.4974,-5.4177,-5.4177,-5.4177,-5.4139,-5.3607,-5.2445,-4.3467,-4.4344,-4.5412,-4.7039,-4.8064,-4.8908,-4.9726,-4.9868,-4.9953,-4.9953,-5.0598,-5.1254,-5.1292,-5.267,-5.3772,-5.381,-5.5126,-5.6189,-5.6174,-5.7632,-5.8657,-5.8695,-6.0176,-6.1143,-6.1143,-6.1143,-6.1201,-6.1181,-6.1998,-6.255,-6.255,-6.2588,-6.2588,-6.2588,-6.2588,-6.2968,-6.3706,-6.3706,-6.4124,-6.4822,-6.4822,-6.4822,-6.4822,-6.4822,-6.4822,-6.4784,-6.4048,-6.3706,-6.363,-6.293,-6.2588,-6.2588,-6.2588,-6.2588,-6.2588,-6.255,-6.2512,-6.2512,-6.2512,-6.2512,-6.2512,-6.2512,-6.2512,-6.2512,-6.2512,-6.1884,-6.1181,-6.1181,-6.0669,-6.0062,-6.0062,-6.0062,-6.0062,-6.0062,-6.0024,-5.9986,-5.9986,-5.9986,-5.9986,-5.9986,-5.9986,-5.9986,-5.9986,-5.9986,-5.9986,-5.9986,-5.9986,-5.9434,-5.7762,-5.7534,-5.7534,-5.7496,-5.7496,-5.7458,-5.7458,-5.7458,-5.7116,-5.6136,-5.6098,-5.5772,-5.4936,-5.4936,-5.4608,-5.381,-5.381,-5.3392,-5.2457,-5.2457,-5.2457,-5.2358,-5.2457,-5.2369,-4.3205,-4.3509,-4.3926,-4.6736,-4.7191,-4.7153,-4.7943,-4.8634,-4.9136,-4.9136,-4.9773,-5.0522,-5.1178,-5.172,-5.2442,-5.362,-5.4722,-5.5544,-5.606,-5.7138,-5.8104,-5.8619,-5.9112,-5.9416,-5.9416,-5.9416,-5.9682,-6.0327,-6.1163,-6.1618,-6.1618,-6.2246,-6.2588,-6.2588,-6.2588,-6.2702,-6.293,-6.293,-6.3044,-6.3213,-6.3213,-6.3213,-6.3213,-6.3213,-6.3213,-6.3175,-6.3006,-6.293,-6.293,-6.2664,-6.2588,-6.2588,-6.2588,-6.2588,-6.2436,-6.122,-6.0745,-6.0745,-6.0745,-6.0745,-6.0745,-6.0745,-6.0745,-6.0745,-6.0745,-6.0555,-6.0365,-6.0365,-6.0213,-6.0062,-6.0062,-6.0062,-6.0062,-6.0062,-5.953,-5.9075,-5.9075,-5.8619,-5.8256,-5.8256,-5.8256,-5.8256,-5.8256,-5.8256,-5.8256,-5.8256,-5.8256,-5.8066,-5.7572,-5.7534,-5.7306,-5.6645,-5.6037,-5.5696,-5.5696,-5.5696,-5.5368,-5.457,-5.4494,-5.4063,-5.3228,-5.319,-5.3076,-5.2886,-5.2848,-5.2734,-5.2457,-5.2457,-5.1524,-4.9712,-5.1026,-4.9597,-4.0813,-4.1041,-4.1496,-4.3774,-4.4268,-4.4572,-4.609,-4.6812,-4.7381,-4.8064,-4.89,-4.9621,-5.0162,-5.0798,-5.1644,-5.2632,-5.3418,-5.4253,-5.5088,-5.5923,-5.6812,-5.7556,-5.767,-5.7784,-5.8163,-5.8256,-5.8543,-5.9416,-5.991,-6.0365,-6.0745,-6.1239,-6.1562,-6.1562,-6.1562,-6.1714,-6.1998,-6.1998,-6.2246,-6.2588,-6.2588,-6.2588,-6.2588,-6.2588,-6.2588,-6.255,-6.2208,-6.1998,-6.196,-6.1714,-6.1562,-6.1562,-6.1562,-6.1562,-6.1334,-5.9662,-5.9016,-5.9016,-5.9016,-5.9016,-5.9016,-5.9016,-5.9016,-5.9016,-5.9016,-5.9016,-5.9016,-5.9016,-5.9016,-5.9016,-5.9016,-5.9016,-5.9016,-5.9016,-5.8636,-5.8256,-5.8256,-5.7876,-5.7534,-5.7534,-5.7534,-5.7534,-5.7534,-5.7534,-5.7306,-5.6584,-5.6508,-5.6508,-5.6508,-5.6508,-5.6265,-5.5772,-5.4974,-5.4329,-5.3987,-5.3949,-5.3759,-5.3266,-5.3316,-5.3038,-5.2495,-5.2457,-5.2355,-5.2013,-5.2013,-5.1774,-5.1433,-5.1433,-5.0089,-4.7566,-4.8647,-4.6532,-3.7168,-3.7586,-3.8535,-3.9522,-4.0206,-4.1306,0.0,-4.4382,-4.4871,-4.6502,-4.7616,-4.8262,-4.8452,-4.982,-5.095,-5.114,-5.1861,-5.2658,-5.3582,-5.438,-5.5088,-5.5681,-5.5833,-5.6265,-5.7154,-5.7344,-5.7724,-5.8505,-5.8581,-5.8923,-5.972,-5.9758,-5.9758,-5.9758,-5.9834,-6.0251,-6.0915,-6.1087,-6.1504,-6.2322,-6.2322,-6.2322,-6.2322,-6.2322,-6.2322,-6.2284,-6.1466,-6.1067,-6.1049,-6.0251,-5.991,-5.991,-5.9796,-5.9758,-5.9568,-5.8104,-5.7534,-5.7534,-5.7534,-5.7534,-5.7534,-5.7534,-5.7534,-5.7534,-5.7534,-5.7534,-5.7534,-5.7534,-5.7534,-5.7534,-5.7534,-5.7534,-5.7534,-5.7534,-5.7458,-5.7382,-5.7382,-5.7306,-5.7268,-5.7268,-5.7268,-5.7268,-5.7268,-5.7268,-5.6698,-5.4974,-5.4708,-5.4708,-5.4708,-5.4708,-5.4708,-5.4708,-5.4114,-5.3392,-5.2582,-5.2457,-5.2468,-5.2393,-5.2343,-5.2267,-5.2191,-5.2191,-5.1752,-5.0753,-5.0753,-5.0157,-4.8999,-4.8999,-4.7749,-4.5406,-4.5454,-4.3217,0.0,0.0,0.0,0.0,0.0,0.0,0.0,-4.0471,-4.146,-4.3208,-4.4154,-4.5141,-4.647,-4.7533,-4.8626,-4.9991,-5.0988,-5.1823,-5.2658,-5.3544,-5.3886,-5.3253,-5.3835,-5.4646,-5.5392,-5.6075,-5.6797,-5.7724,-5.7762,-5.7838,-5.8028,-5.8028,-5.8028,-5.8028,-5.8674,-5.9037,-5.9188,-5.991,-6.0365,-6.0517,-6.0517,-6.0517,-6.0517,-6.0517,-6.0517,-6.0517,-6.0365,-6.0289,-6.0213,-5.934,-5.8961,-5.8885,-5.8294,-5.8028,-5.799,-5.7648,-5.7534,-5.7534,-5.7534,-5.7534,-5.7534,-5.7534,-5.7534,-5.7534,-5.7534,-5.7534,-5.7534,-5.7534,-5.7534,-5.7534,-5.7534,-5.7534,-5.7534,-5.7534,-5.6948,-5.6455,-5.6455,-5.5961,-5.5468,-5.5468,-5.5468,-5.5468,-5.5468,-5.5468,-5.4936,-5.3228,-5.295,-5.295,-5.295,-5.295,-5.295,-5.295,-5.2848,-5.2696,-5.2544,-5.2457,-5.2241,-5.1557,-5.1519,-5.1216,-5.0484,-5.0447,-4.9378,-4.7139,-4.7055,-4.5703,-4.2916,-4.2916,-4.233,-4.1203,-4.1438,-3.8776,0.0,0.0,0.0,0.0,0.0,0.0,0.0,0.0,0.0,0.0,0.0,-4.241,-4.412,0.0,-4.6729,-4.8436,-4.9469,-5.0504,-5.1709,-5.2279,-5.2442,-5.1937,-5.262,-5.3304,-5.3721,-5.4101,-5.4898,-5.6204,-5.628,-5.666,-5.7496,-5.7534,-5.7534,-5.7534,-5.7952,-5.8142,-5.8142,-5.8598,-5.8826,-5.8826,-5.8826,-5.8826,-5.8826,-5.8826,-5.8826,-5.8826,-5.8826,-5.8826,-5.8788,-5.8332,-5.8142,-5.799,-5.6318,-5.5444,-5.5012,-5.5012,-5.5012,-5.5012,-5.5012,-5.5012,-5.5012,-5.5012,-5.5012,-5.5012,-5.5012,-5.5012,-5.5012,-5.5012,-5.5012,-5.5012,-5.5012,-5.5012,-5.5012,-5.5012,-5.4671,-5.4315,-5.4315,-5.4025,-5.3759,-5.3759,-5.3759,-5.3759,-5.3759,-5.3759,-5.3456,-5.2658,-5.2457,-5.2457,-5.2457,-5.2457,-5.2305,-5.1937,-5.1899,-5.1747,-5.1243,-5.1205,-5.1053,-5.0636,-4.9408,-4.8513,-4.8063,-4.7614,-4.614,-4.3717,-4.4568,-4.3588,-4.0829,-4.0829,-3.9959,-3.8121,-3.5845,-3.3984,0.0,0.0,0.0,0.0,0.0,0.0,0.0,0.0,0.0,0.0,0.0,0.0,0.0,0.0,0.0,-4.6426,-4.7723,-4.906,-5.0618,-5.0846,-5.0846,-5.0846,-5.1671,-5.2229,-5.2229,-5.2381,-5.3076,-5.4405,-5.4519,-5.514,-5.6508,-5.6584,-5.6584,-5.6584,-5.6888,-5.704,-5.704,-5.7382,-5.7534,-5.7534,-5.7534,0.0,-5.7534,-5.7534,-5.7534,-5.7534,-5.7534,-5.7534,-5.7534,-5.7534,-5.7458,-5.704,-5.457,-5.3114,-5.2457,-5.2457,-5.2457,-5.2457,-5.2457,-5.2457,-5.2457,-5.2457,-5.2457,-5.2457,-5.2457,-5.2457,0.0,-5.2457,-5.2457,-5.2457,-5.2457,-5.2457,-5.2457,-5.2457,-5.2457,-5.2457,-5.2457,-5.2457,-5.2457,-5.2457,-5.2457,-5.2457,-5.2457,-5.2089,-5.1709,-5.1509,-5.1471,-5.1471,-5.1471,-5.1671,-5.1519,-5.0874,-5.095,-5.076,-4.9982,-4.984,-4.9613,-4.9206,-4.7033,-4.5563,-4.5005,-4.4137,-4.2429,-3.9832,-4.1221,-4.0763,-3.8263,-3.8263,-3.7339,-3.5544,-3.0618,-2.9434,0.0,0.0,0.0,0.0,0.0,0.0,0.0,0.0,0.0,0.0,0.0,0.0,0.0,0.0,0.0,0.0,-4.609,-4.7951,-4.8908,-4.906,-4.906,-4.906,-5.0504,-5.1443,-5.1443,-5.2089,-5.2533,-5.2722,-5.281,-5.2886,-5.3076,-5.3026,0.0,0.0,0.0,-5.5278,-5.5278,-5.6812,-5.7534,-5.7534,-5.7534,-5.7534,-5.7534,-5.7534,-5.7534,-5.7534,-5.7534,-5.7534,-5.7534,-5.7534,-5.7024,-5.6113,-5.3645,-5.2582,-5.2457,-5.2457,-5.2457,-5.2457,-5.2457,0.0,0.0,-5.2457,-5.2457,-5.2457,-5.2457,-5.2457,-5.2457,-5.2457,-5.2457,-5.2457,-5.2457,-5.2457,-5.2457,-5.2457,-5.2457,-5.2457,-5.2457,-5.2457,-5.2457,-5.2457,-5.2457,-5.2457,-5.2457,-5.0646,-4.8946,-4.814,-4.7981,-4.7981,-4.7981,-4.871,-4.9174,-4.906,-4.9697,0.0,-4.9944,-4.9317,-4.8234,-4.6613,-4.5452,-4.3716,-4.118,-4.0411,-3.8346,-3.4742,-3.4873,-3.3489,-3.0419,-3.0419,-3.1328,-3.295,-2.777,-2.6008,0.0,0.0,0.0,0.0,0.0,0.0,0.0,0.0,0.0,0.0,0.0,0.0,0.0,0.0,0.0,0.0,-4.366,-4.5402,-4.5787,-4.6242,-4.6926,-4.7875,-4.9098,-4.9858,-4.9858,-5.057,-5.1243,-5.1785,-5.1785,-5.2013,-5.2457,-5.2457,-5.2457,-5.2457,-5.319,-5.3532,-5.3532,-5.4253,-5.4595,-5.4595,-5.4595,-5.4595,-5.4595,-5.4595,-5.4595,-5.4595,-5.4595,-5.4595,-5.4595,-5.4595,-5.4367,-5.386,0.0,0.0,0.0,0.0,-5.1016,-5.1016,-5.1016,-5.1016,-5.1016,-5.1016,-5.1016,-5.1016,-5.1016,-5.1016,-5.1016,-5.1016,-5.1016,-5.1016,-5.1016,-5.1016,-5.1016,-5.1016,-5.1016,-5.1016,-5.1016,-5.1016,-5.1016,-5.1016,-5.1016,0.0,-5.1016,-5.0143,-4.9309,-4.8967,-4.8929,-4.8929,-4.8929,-4.9233,-4.9279,-4.8832,-4.9507,-4.9764,-4.9317,-4.9393,0.0,0.0,0.0,-4.2934,-3.8229,-3.7539,0.0,0.0,0.0,-3.0822,-2.8142,-2.7465,0.0,0.0,-2.4022,-2.3009,0.0,0.0,0.0,0.0,0.0,0.0,0.0,0.0,0.0,0.0,0.0,0.0,0.0,0.0,0.0,0.0,-4.0737,-4.2294,-4.2066,-4.3088,-4.4487,-4.6198,-4.7381,-4.8186,-4.8414,-4.8891,-4.9536,-5.0191,-5.0504,-5.0836,-5.1443,-5.166,-5.1774,-5.1774,-5.2051,-5.2165,-5.2165,-5.2343,-5.2457,-5.2457,-5.2457,-5.2457,-5.2457,-5.2457,-5.2457,-5.2457,-5.2457,-5.2457,-5.2457,-5.2457,-5.2457,-5.2393,-5.1102,-5.0656,-5.0542,-4.9574,-4.9271,-4.9271,-4.9271,-4.9271,-4.9271,-4.9271,-4.9271,-4.9271,-4.9271,-4.9271,-4.9271,-4.9271,-4.9271,-4.9271,-4.9271,-4.9271,-4.9271,-4.9271,-4.9271,-4.9347,-4.9574,-4.9612,-4.9688,-4.9953,-4.9612,-4.9195,-4.8967,-4.8929,-4.8854,-4.858,-4.8588,-4.8588,-4.8588,-4.8959,-4.9043,-4.849,-4.857,-4.8457,-4.787,-4.7294,-4.5783,-4.3002,-4.2624,-4.0224,-3.5015,-3.4296,-3.2518,-2.9286,-2.9073,-2.8129,0.0,0.0,0.0,0.0,0.0,0.0,0.0,0.0,0.0,0.0,0.0,0.0,0.0,0.0,0.0,0.0,0.0,0.0,0.0,0.0,0.0,0.0,0.0,0.0,-3.7814,-3.9788,-4.1949,-4.3657,-4.5331,-4.6622,-4.7374,-4.7488,-4.7526,-4.7526,-4.833,-4.887,-4.887,-4.9612,-5.002,-5.002,-5.0912,-5.1378,-5.1378,-5.2127,-5.2457,-5.2457,-5.2457,-5.2457,-5.2457,-5.2457,-5.2457,-5.2457,-5.2457,-5.2457,-5.2457,-5.2457,-5.2457,-5.2279,-4.982,-4.887,-4.8756,-4.7837,-4.7488,-4.7488,-4.7488,-4.7488,-4.7488,-4.7488,-4.7488,-4.7488,-4.7488,-4.7488,-4.7488,-4.7488,-4.7488,-4.7488,-4.7488,-4.7488,-4.7488,-4.7488,-4.7488,-4.7761,-4.8642,-4.8832,-4.906,-4.9802,-4.8626,-4.7305,-4.6508,-4.6356,-4.609,-4.5169,-4.5056,0.0,-4.5056,-4.6502,-4.7488,-4.745,-4.6245,-4.5419,-4.5383,-4.1723,-3.8619,-3.6759,-3.59,-3.4129,-3.1037,-3.0372,-2.9278,-2.7543,-2.5266,-2.4094,-2.4022,0.0,0.0,0.0,0.0,0.0,0.0,0.0,0.0,0.0,0.0,0.0,0.0,0.0,0.0,0.0,0.0,0.0,0.0,0.0,0.0,0.0,0.0,0.0,0.0,-3.6678,-3.8726,-4.1042,-4.2256,-4.324,-4.4116,-4.4643,-4.5212,-4.5743,-4.6622,-4.7305,-4.7875,-4.8133,-4.8285,-4.8285,-4.855,-4.9014,-4.963,-4.9896,-5.0304,-5.0826,-5.0826,-5.0826,-5.0826,-5.0826,-5.0826,-5.0826,-5.0826,-5.0826,-5.0826,-5.0826,-5.0143,-4.9043,-4.8216,-4.7571,-4.7084,-4.6774,-4.6318,-4.5906,-4.5781,-4.5781,-4.5781,-4.5825,-4.5906,-4.5906,-4.5781,-4.5781,-4.5781,-4.5825,-4.5906,-4.602,-4.6508,-4.666,-4.6774,-4.7343,-4.7412,-4.7488,-4.7837,-4.7875,-4.7989,-4.8209,-4.6919,-4.5705,-4.5526,-4.5407,-4.544,-4.5787,-4.4483,-4.3664,-4.4205,-4.3406,-4.2768,-4.2768,-4.2359,-4.2061,-4.2061,-4.0805,-3.8651,-3.5504,-3.5086,-3.3128,-2.9182,-2.8541,-2.7606,-2.6282,-2.5125,-2.3772,-2.2264,0.0,0.0,0.0,0.0,0.0,0.0,0.0,0.0,0.0,0.0,0.0,0.0,0.0,0.0,0.0,0.0,0.0,0.0,0.0,0.0,0.0,0.0,0.0,0.0,0.0,0.0,-3.8345,-3.9599,0.0,-4.1117,-4.1648,-4.214,-4.2671,-4.3547,-4.4538,-4.5635,-4.5933,-4.6236,-4.654,-4.6843,-4.7305,-4.7882,-4.8186,-4.8558,-4.9081,-4.9081,-4.9081,-4.9081,-4.9081,-4.9081,-4.9081,-4.9081,-4.9081,-4.9005,-4.839,-4.7526,-4.6464,-4.5895,-4.5369,-4.488,-4.4272,-4.3702,-4.3325,-4.3205,-4.3164,-4.3205,-4.3246,-4.3325,-4.3208,-4.2785,-4.2709,-4.2633,-4.2448,-4.279,-4.3398,-4.393,-4.45,-4.5108,-4.5597,-4.5711,-4.5787,-4.6047,-4.6085,-4.5862,-4.4951,-4.3926,-4.3091,-4.2866,-4.3015,-4.3395,-4.3968,-4.2971,-4.2215,-4.2267,-4.1411,-4.0494,-3.975,-3.9101,-3.8623,-3.8449,-3.7371,-3.5605,-3.2918,-3.2575,-3.1075,-2.8012,-2.7191,-2.623,-2.5061,-2.4292,-2.2862,0.0,0.0,0.0,0.0,0.0,0.0,0.0,0.0,0.0,0.0,0.0,0.0,0.0,0.0,0.0,0.0,0.0,0.0,0.0,0.0,0.0,0.0,0.0,0.0,0.0,0.0,0.0,-3.5696,-3.7361,0.0,0.0,0.0,0.0,-3.8423,-3.9332,-4.0548,-4.222,-4.3015,-4.3809,-4.4601,-4.5521,-4.602,-4.6128,-4.6888,-4.7305,-4.7298,-4.7298,-4.7298,-4.7298,-4.7298,-4.7298,-4.7298,-4.7298,-4.7298,-4.7147,-4.5364,-4.4563,-4.4412,-4.2977,-4.2334,-4.2068,-4.0396,-3.9787,-3.9749,-3.9673,-3.9711,-3.9749,-3.9749,-3.9749,-3.9597,-3.8687,-3.8385,0.0,0.0,-3.8458,-3.9749,-3.9825,-4.108,-4.2334,-4.2408,-4.2448,-4.2635,-4.3395,-4.3543,-4.2787,-4.0206,-3.9749,-3.9446,-3.8535,0.0,-3.9637,-3.9713,-4.024,-4.0241,-3.9035,-4.0017,-4.0008,-3.8035,-3.6288,-3.5065,-3.4543,-3.1709,-2.9676,-2.9078,-2.8489,-2.7892,-2.7243,-2.6178,-2.4983,-2.3711,-2.2612,0.0,0.0,0.0,0.0,0.0,0.0,0.0,0.0,0.0,0.0,0.0,0.0,0.0,0.0,0.0,0.0,0.0,0.0,0.0,0.0,0.0,0.0,0.0,0.0,0.0,0.0,-2.9481,-3.1292,-3.3195,-3.3258,-3.3441,0.0,0.0,0.0,0.0,0.0,0.0,-3.8725,-3.8991,-3.975,-4.1232,-4.1498,-4.2524,-4.4382,-4.4567,-4.5027,-4.5678,-4.5592,-4.5592,-4.5678,-4.5592,-4.5511,-4.5554,-4.5678,-4.5678,-4.5412,-4.18,-4.0281,-4.0243,-3.9826,-3.8916,-3.7664,-3.6675,-3.5949,-3.5303,-3.4663,-3.4852,-3.5417,-3.5417,-3.5417,-3.5379,-3.5151,0.0,0.0,0.0,0.0,-3.5683,-3.6865,-3.7966,-3.9142,-4.0396,-4.0662,-4.0738,-4.0928,-4.1004,-3.9864,-3.6139,-3.5417,-3.5151,-3.4213,-3.3783,0.0,-3.4969,-3.3698,-3.2889,-3.355,-3.2825,-3.2082,-3.1542,-3.1065,-3.0766,-3.0604,-2.9812,-2.8922,-2.7934,-2.7684,-2.6749,-2.4879,-2.4516,-2.3217,-2.0771,0.0,0.0,0.0,0.0,0.0,0.0,0.0,0.0,0.0,0.0,0.0,0.0,0.0,0.0,0.0,0.0,0.0,0.0,0.0,0.0,0.0,0.0,0.0,0.0,0.0,0.0,0.0,-2.7549,-2.9358,-3.0685,-3.0752,-3.0714,0.0,0.0,0.0,0.0,0.0,0.0,0.0,0.0,0.0,-3.7277,-3.7659,-3.8876,-4.1003,-4.1343,-4.199,-4.2906,-4.2787,-4.2787,-4.2906,-4.2787,-4.2787,-4.2787,-4.2408,-4.146,-3.9978,-3.7583,-3.6561,-3.6485,0.0,0.0,0.0,0.0,-3.2499,-3.2043,-3.152,-3.1967,-3.2674,-3.2233,0.0,0.0,0.0,0.0,0.0,0.0,0.0,-3.2909,-3.3789,-3.5232,-3.6637,-3.7586,-3.7849,-3.7849,-3.7849,-3.6221,-3.4262,-3.2482,-3.1198,-3.0331,-3.0039,-2.9431,0.0,0.0,0.0,-2.9467,-2.9616,-2.9487,-2.9152,-2.8435,-2.861,-2.8662,-2.8402,-2.8376,-2.7882,-2.6697,-2.6152,-2.5269,-2.397,-2.2957,-2.1587,0.0,0.0,0.0,0.0,0.0,0.0,0.0,0.0,0.0,0.0,0.0,0.0,0.0,0.0,0.0,0.0,0.0,0.0,0.0,0.0,0.0,0.0,0.0,0.0,0.0,0.0,0.0,0.0,0.0,-2.7246,-2.8197,0.0,0.0,0.0,0.0,0.0,0.0,0.0,0.0,0.0,0.0,0.0,0.0,0.0,-3.508,-3.6671,-3.7472,-3.8269,-3.9064,-3.9178,-3.9216,-3.9255,-3.9294,-3.9331,-3.9178,-3.8004,0.0,-3.3479,-3.3251,0.0,0.0,0.0,0.0,0.0,0.0,0.0,0.0,0.0,0.0,0.0,0.0,0.0,0.0,0.0,0.0,0.0,0.0,0.0,0.0,0.0,0.0,-3.4326,-3.444,-3.4511,-3.4359,-3.3827,-3.0467,-2.7898,-2.8937,-2.7314,-2.589,0.0,0.0,0.0,0.0,0.0,0.0,-2.6646,-2.8037,-2.8632,-2.729,-2.7606,-2.7643,-2.7191,-2.7165,-2.6671,-2.5529,-2.4412,-2.3659,-2.3373,-2.1483,0.0,0.0,0.0,0.0,0.0,0.0,0.0,0.0,0.0,0.0,0.0,0.0,0.0,0.0,0.0,0.0,0.0,0.0,0.0,0.0,0.0,0.0,0.0,0.0,0.0,0.0,0.0,0.0,0.0,0.0,0.0,0.0,0.0,0.0,0.0,0.0,0.0,0.0,0.0,0.0,0.0,0.0,0.0,0.0,0.0,0.0,0.0,0.0,0.0,0.0,-3.4549,-3.4885,-3.4923,-3.5574,-3.5498,-3.4771,-3.2461,-3.1579,-3.1609,-3.0211,0.0,0.0,0.0,0.0,0.0,0.0,0.0,0.0,0.0,0.0,0.0,0.0,0.0,0.0,0.0,0.0,0.0,0.0,0.0,0.0,0.0,0.0,-3.1018,-3.1731,-3.1951,-3.1,-2.7551,0.0,0.0,0.0,0.0,0.0,0.0,0.0,0.0,0.0,0.0,0.0,-2.3854,-2.4936,-2.5787,-2.5957,-2.6074,-2.6074,-2.5996,-2.597,-2.5477,-2.4308,-2.3616,-2.242,0.0,0.0,0.0,0.0,0.0,0.0,0.0,0.0,0.0,0.0,0.0,0.0,0.0,0.0,0.0,0.0,0.0,0.0,0.0,0.0,0.0,0.0,0.0,0.0,0.0,0.0,0.0,0.0,0.0,0.0,0.0,0.0,0.0,0.0,0.0,0.0,0.0,0.0,0.0,0.0,0.0,0.0,0.0,0.0,0.0,0.0,0.0,0.0,0.0,0.0,0.0,0.0,0.0,0.0,0.0,0.0,0.0,0.0,-2.9851,-2.8019,0.0,0.0,0.0,0.0,0.0,0.0,0.0,0.0,0.0,0.0,0.0,0.0,0.0,0.0,0.0,0.0,0.0,0.0,0.0,0.0,0.0,0.0,0.0,0.0,0.0,0.0,0.0,0.0,0.0,0.0,0.0,0.0,0.0,0.0,0.0,0.0,0.0,0.0,0.0,0.0,-2.1313,-2.2896,-2.4198,-2.4697,-2.5073,-2.5125,-2.4801,-2.4749,-2.4152,-2.2672,-2.2082,0.0,0.0,0.0,0.0,0.0,0.0,0.0,0.0,0.0,0.0,0.0,0.0,0.0,0.0,0.0,0.0,0.0,0.0,0.0,0.0,0.0,0.0,0.0,0.0,0.0,0.0,0.0,0.0,0.0,0.0,0.0,0.0,0.0,0.0,0.0,0.0,0.0,0.0,0.0,0.0,0.0,0.0,0.0,0.0,0.0,0.0,0.0,0.0,0.0,0.0,0.0,0.0,0.0,0.0,0.0,0.0,0.0,0.0,0.0,-2.7916,-2.5247,0.0,0.0,0.0,0.0,0.0,0.0,0.0,0.0,0.0,0.0,0.0,0.0,0.0,0.0,0.0,0.0,0.0,0.0,0.0,0.0,0.0,0.0,0.0,0.0,0.0,0.0,0.0,0.0,0.0,0.0,0.0,0.0,0.0,0.0,0.0,0.0,0.0,0.0,0.0,0.0,-1.9663,-2.1451,-2.2966,-2.3477,-2.398,-2.4084,-2.3581,-2.3555,-2.288,-2.1327,-2.0604,0.0,0.0,0.0,0.0,0.0,0.0,0.0,0.0,0.0,0.0,0.0,0.0,0.0,0.0,0.0,0.0,0.0,0.0,0.0,0.0,0.0,0.0,0.0,0.0,0.0,0.0,0.0,0.0,0.0,0.0,0.0,0.0,0.0,0.0,0.0,0.0,0.0,0.0,0.0,0.0,0.0,0.0,0.0,0.0,0.0,0.0,0.0,0.0,0.0,0.0,0.0,0.0,0.0,0.0,0.0,0.0,0.0,0.0,0.0,0.0,0.0,0.0,0.0,0.0,0.0,0.0,0.0,0.0,0.0,0.0,0.0,0.0,0.0,0.0,0.0,0.0,0.0,0.0,0.0,0.0,0.0,0.0,0.0,0.0,0.0,0.0,0.0,0.0,0.0,0.0,0.0,0.0,0.0,0.0,0.0,0.0,0.0,0.0,0.0,0.0,0.0,-1.9793,-2.075,-2.1737,-2.2241,-2.2379,-2.2379,-2.2327,-2.2327,-2.1867,-2.0734,0.0,0.0,0.0,0.0,0.0,0.0,0.0,0.0,0.0,0.0,0.0,0.0,0.0,0.0,0.0,0.0,0.0,0.0,0.0,0.0,0.0,0.0,0.0,0.0,0.0,0.0,0.0,0.0,0.0,0.0,0.0,0.0,0.0,0.0,0.0,0.0,0.0,0.0,0.0,0.0,0.0,0.0,0.0,0.0,0.0,0.0,0.0,0.0,0.0,0.0,0.0,0.0,0.0,0.0,0.0,0.0,0.0,0.0,0.0,0.0,0.0,0.0,0.0,0.0,0.0,0.0,0.0,0.0,0.0,0.0,0.0,0.0,0.0,0.0,0.0,0.0,0.0,0.0,0.0,0.0,0.0,0.0,0.0,0.0,0.0,0.0,0.0,0.0,0.0,0.0,0.0,0.0,0.0,0.0,0.0,0.0,0.0,0.0,0.0,0.0,0.0,0.0,-1.8652,-2.02,-2.1451,-2.1685,-2.1964,-2.2041,-2.1704,-2.1711,-2.0932,-1.9059,0.0,0.0,0.0,0.0,0.0,0.0,0.0,0.0,0.0,0.0,0.0,0.0,0.0,0.0,0.0,0.0,0.0,0.0,0.0,0.0,0.0,0.0,0.0,0.0,0.0,0.0,0.0,0.0,0.0,0.0,0.0,0.0,0.0,0.0,0.0,0.0,0.0,0.0,0.0,0.0,0.0,0.0,0.0,0.0,0.0,0.0,0.0,0.0,0.0,0.0,0.0,0.0,0.0,0.0,0.0,0.0,0.0,0.0,0.0,0.0,0.0,0.0,0.0,0.0,0.0,0.0,0.0,0.0,0.0,0.0,0.0,0.0,0.0,0.0,0.0,0.0,0.0,0.0,0.0,0.0,0.0,0.0,0.0,0.0,0.0,0.0,0.0,0.0,0.0,0.0,0.0,0.0,0.0,0.0,0.0,0.0,0.0,0.0,0.0,0.0,0.0,0.0,-1.7945,-1.9785,-2.1145,-2.1145,-2.1477,-2.1555,-2.1171,-2.0958,-2.0023,-1.7994,0.0,0.0,0.0,0.0,0.0,0.0,0.0,0.0,0.0,0.0,0.0,0.0,0.0,0.0,0.0,0.0,0.0,0.0,0.0,0.0,0.0,0.0,0.0,0.0,0.0,0.0,0.0,0.0,0.0,0.0,0.0,0.0,0.0,0.0,0.0,0.0,0.0,0.0,0.0,0.0,0.0,0.0,0.0,0.0,0.0,0.0,0.0,0.0,0.0,0.0,0.0,0.0,0.0,0.0,0.0,0.0,0.0,0.0,0.0,0.0,0.0,0.0,0.0,0.0,0.0,0.0,0.0,0.0,0.0,0.0,0.0,0.0,0.0,0.0,0.0,0.0,0.0,0.0,0.0,0.0,0.0,0.0,0.0,0.0,0.0,0.0,0.0,0.0,0.0,0.0,0.0,0.0,0.0,0.0,0.0,0.0,0.0,0.0,0.0,0.0,0.0,0.0,-1.8081,-1.9478,-2.0604,-2.0604,-2.0635,-2.0635,-2.0604,-1.9997,-1.9163,0.0,0.0,0.0,0.0,0.0,0.0,0.0,0.0,0.0,0.0,0.0,0.0,0.0,0.0,0.0,0.0,0.0,0.0,0.0,0.0,0.0,0.0,0.0,0.0,0.0,0.0,0.0,0.0,0.0,0.0,0.0,0.0,0.0,0.0,0.0,0.0,0.0,0.0,0.0,0.0,0.0,0.0,0.0,0.0,0.0,0.0,0.0,0.0,0.0,0.0,0.0,0.0,0.0,0.0,0.0,0.0,0.0,0.0,0.0,0.0,0.0,0.0,0.0,0.0,0.0,0.0,0.0,0.0,0.0,0.0,0.0,0.0,0.0,0.0,0.0,0.0,0.0,0.0,0.0,0.0,0.0,0.0,0.0,0.0,0.0,0.0,0.0,0.0,0.0,0.0,0.0,0.0,0.0,0.0,0.0,0.0,0.0,0.0,0.0,0.0,0.0,0.0,0.0,-1.7296,-1.8852,-2.0131,-2.0582,-2.0609,-2.0609,-2.0609,-1.9997,-1.8982,-1.7452,0.0,0.0,0.0,0.0,0.0,0.0,0.0,0.0,0.0,0.0,0.0,0.0,0.0,0.0,0.0,0.0,0.0,0.0,0.0,0.0,0.0,0.0,0.0,0.0,0.0,0.0,0.0,0.0,0.0,0.0,0.0,0.0,0.0,0.0,0.0,0.0,0.0,0.0,0.0,0.0,0.0,0.0,0.0,0.0,0.0,0.0,0.0,0.0,0.0,0.0,0.0,0.0,0.0,0.0,0.0,0.0,0.0,0.0,0.0,0.0,0.0,0.0,0.0,0.0,0.0,0.0,0.0,0.0,0.0,0.0,0.0,0.0,0.0,0.0,0.0,0.0,0.0,0.0,0.0,0.0,0.0,0.0,0.0,0.0,0.0,0.0,0.0,0.0,0.0,0.0,0.0,0.0,0.0,0.0,0.0,0.0,0.0,0.0,0.0,0.0,0.0,0.0,0.0,-1.8593,-1.9893,-2.0526,-2.0609,-2.0609,-2.0609,-1.9819,-1.8724,-1.7218,0.0,0.0,0.0,0.0,0.0,0.0,0.0,0.0,0.0,0.0,0.0,0.0,0.0,0.0,0.0,0.0,0.0,0.0,0.0,0.0,0.0,0.0,0.0,0.0,0.0,0.0,0.0,0.0,0.0,0.0,0.0,0.0,0.0,0.0,0.0,0.0,0.0,0.0,0.0,0.0,0.0,0.0,0.0,0.0,0.0,0.0,0.0,0.0,0.0,0.0,0.0,0.0,0.0,0.0,0.0,0.0,0.0,0.0,0.0,0.0,0.0,0.0,0.0,0.0,0.0,0.0,0.0,0.0,0.0,0.0,0.0,0.0,0.0,0.0,0.0,0.0,0.0,0.0,0.0,0.0,0.0,0.0,0.0,0.0,0.0,0.0,0.0,0.0,0.0,0.0,0.0,0.0,0.0,0.0,0.0,0.0,0.0,0.0,0.0,0.0,0.0,0.0,0.0,-1.8489,-1.9789,-2.0448,-2.05,-2.0474,-2.0526,-1.9455,-1.8283,-1.714,-1.4884,0.0,0.0,0.0,0.0,0.0,0.0,0.0,0.0,0.0,0.0,0.0,0.0,0.0,0.0,0.0,0.0,0.0,0.0,0.0,0.0,0.0,0.0,0.0,0.0,0.0,0.0,0.0,0.0,0.0,0.0,0.0,0.0,0.0,0.0,0.0,0.0,0.0,0.0,0.0,0.0,0.0,0.0,0.0,0.0,0.0,0.0,0.0,0.0,0.0,0.0,0.0,0.0,0.0,0.0,0.0,0.0,0.0,0.0,0.0,0.0,0.0,0.0,0.0,0.0,0.0,0.0,0.0,0.0,0.0,0.0,0.0,0.0,0.0,0.0,0.0,0.0,0.0,0.0,0.0,0.0,0.0,0.0,0.0,0.0,0.0,0.0,0.0,0.0,0.0,0.0,0.0,0.0,0.0,0.0,0.0,0.0,0.0,0.0,0.0,0.0,0.0,0.0,-1.7555,-1.8694,-1.9763,-1.9507,-1.9429,-1.9841,-1.88,-1.7659,-1.6568,-1.4677,0.0,0.0,0.0,0.0,0.0,0.0,0.0,0.0,0.0,0.0,0.0,0.0,0.0,0.0,0.0,0.0,0.0,0.0,0.0,0.0,0.0,0.0,0.0,0.0,0.0,0.0,0.0,0.0,0.0,0.0,0.0,0.0,0.0,0.0,0.0,0.0,0.0,0.0,0.0,0.0,0.0,0.0,0.0,0.0,0.0,0.0,0.0,0.0,0.0,0.0,0.0,0.0,0.0,0.0,0.0,0.0,0.0,0.0,0.0,0.0,0.0,0.0,0.0,0.0,0.0,0.0,0.0,0.0,0.0,0.0,0.0,0.0,0.0,0.0,0.0,0.0,0.0,0.0,0.0,0.0,0.0,0.0,0.0,0.0,0.0,0.0,0.0,0.0,0.0,0.0,0.0,0.0,0.0,0.0,0.0,0.0,0.0,0.0,0.0,0.0,0.0,0.0,-1.6724,-1.7791,-1.9117,-1.9039,-1.8987,-1.9244,-1.8409,-1.7322,-1.5972,-1.4232,0.0,0.0,0.0,0.0,0.0,0.0,0.0,0.0,0.0,0.0,0.0,0.0,0.0,0.0,0.0,0.0,0.0,0.0,0.0,0.0,0.0,0.0,0.0,0.0,0.0,0.0,0.0,0.0,0.0,0.0,0.0,0.0,0.0,0.0,0.0,0.0,0.0,0.0,0.0,0.0,0.0,0.0,0.0,0.0,0.0,0.0,0.0,0.0,0.0,0.0,0.0,0.0,0.0,0.0,0.0,0.0,0.0,0.0,0.0,0.0,0.0,0.0,0.0,0.0,0.0,0.0,0.0,0.0,0.0,0.0,0.0,0.0,0.0,0.0,0.0,0.0,0.0,0.0,0.0,0.0,0.0,0.0,0.0,0.0,0.0,0.0,0.0,0.0,0.0,0.0,0.0,0.0,0.0,0.0,0.0,0.0,0.0,0.0,0.0,0.0,0.0,0.0,0.0,-1.7118,-1.8559,-1.8655,-1.8622,-1.8726,-1.8048,-1.701,-1.5489,0.0,0.0,0.0,0.0,0.0,0.0,0.0,0.0,0.0,0.0,0.0,0.0,0.0,0.0,0.0,0.0,0.0,0.0,0.0,0.0,0.0,0.0,0.0,0.0,0.0,0.0,0.0,0.0,0.0,0.0,0.0,0.0,0.0,0.0,0.0,0.0,0.0,0.0,0.0,0.0,0.0,0.0,0.0,0.0,0.0,0.0,0.0,0.0,0.0,0.0,0.0,0.0,0.0,0.0,0.0,0.0,0.0,0.0,0.0,0.0,0.0,0.0,0.0,0.0,0.0,0.0,0.0,0.0,0.0,0.0,0.0,0.0,0.0,0.0,0.0,0.0,0.0,0.0,0.0,0.0,0.0,0.0,0.0,0.0,0.0,0.0,0.0,0.0,0.0,0.0,0.0,0.0,0.0,0.0,0.0,0.0,0.0,0.0,0.0,0.0,0.0,0.0,0.0,0.0,-1.7157,-1.7972,-1.765,-1.7555,-1.7995,-1.714,-1.6309,-1.5719,0.0,0.0,0.0,0.0,0.0,0.0,0.0,0.0,0.0,0.0,0.0,0.0,0.0,0.0]}],[{"header":{"parameterUnit":"kt","parameterCategory":2,"dx":1,"dy":1,"la1":29.285339999999998,"la2":30.599998999999997,"lo1":-89.70041500000002,"lo2":-87.6738589999976,"nx":112,"ny":82,"refTime":"2022-10-31T06:00:00:Z","depth":0,"parameterNumber":2,"parameterNumberName":"V-component_of_WINDS"},"data":[11.5234,11.2544,10.9618,10.9169,10.5102,10.0678,9.8609,9.4451,9.0956,9.0403,8.812,0.0,0.0,0.0,0.0,0.0,0.0,0.0,0.0,7.89,0.0,0.0,0.0,0.0,0.0,0.0,0.0,0.0,0.0,0.0,0.0,11.9562,12.2986,12.6839,12.8434,13.1502,13.6211,13.6282,13.7852,14.092,14.092,14.2062,14.4131,14.5101,14.6742,14.8811,14.981,15.0238,15.0238,15.0238,15.0238,15.0238,15.0238,15.0238,15.0238,15.0238,15.0238,15.0238,15.0238,15.0238,15.0238,15.0238,15.0238,15.0238,15.0238,15.0238,15.0166,14.9595,14.981,15.0166,14.9595,14.9881,15.0238,15.0238,15.0238,15.0238,15.0238,15.0238,14.9952,14.8953,14.8341,14.7627,14.6628,14.513,14.356,14.1991,14.1277,14.092,14.092,14.092,14.092,14.092,14.092,14.092,14.092,14.092,14.092,14.092,14.092,14.092,14.092,14.092,14.092,14.092,14.092,14.0421,13.9394,13.8895,13.7539,13.5542,13.4998,13.3928,10.9739,10.6529,10.3175,10.2696,9.9037,9.497,9.2829,8.9458,8.6604,8.5534,8.4909,0.0,0.0,0.0,0.0,0.0,0.0,0.0,0.0,0.0,0.0,0.0,0.0,0.0,0.0,0.0,0.0,0.0,11.2094,0.0,11.8016,12.1227,12.4128,12.6839,12.9504,13.2572,13.6211,13.6782,13.8352,14.092,14.092,14.1776,14.3303,14.4887,14.6457,14.7984,14.9595,15.0238,15.0238,15.0238,15.0238,15.0238,15.0238,15.0238,15.0238,15.0238,15.0238,15.0238,15.0238,15.0238,15.0238,15.0238,15.0238,15.0238,15.0238,15.0238,15.0238,15.0238,15.0238,15.0238,15.0238,15.0238,15.0238,15.0238,15.0238,15.0166,14.9595,14.9453,14.9025,14.7485,14.67,14.5986,14.4987,14.3489,14.2133,14.1063,14.092,14.092,14.092,14.092,14.092,14.092,14.092,14.092,14.092,14.092,14.092,14.092,14.092,14.092,14.092,14.092,14.092,14.092,14.0421,13.9608,13.8609,13.7539,13.597,13.3901,13.3357,13.2572,10.3511,9.8518,9.4185,9.5773,9.2705,8.919,8.9119,8.7906,8.5962,8.2911,8.3498,8.3641,0.0,0.0,0.0,0.0,0.0,0.0,0.0,0.0,0.0,0.0,0.0,0.0,0.0,10.5551,10.9547,0.0,11.4355,11.6566,11.9657,12.2893,12.5366,12.691,13.1476,13.4713,13.6211,13.7825,13.9394,14.092,14.092,14.1705,14.3204,14.4773,14.6414,14.7984,14.9524,15.0238,15.0238,15.0238,15.0238,15.0238,15.0238,15.0238,15.0238,15.0238,15.0238,15.0238,15.0238,15.0238,15.0238,15.0238,15.0238,15.0238,15.0238,15.0238,15.0238,15.0238,15.0238,15.0238,15.0238,15.0238,15.0238,15.0238,15.0166,14.9738,14.8198,14.7841,14.7413,14.5815,14.4274,14.3204,14.3232,14.1919,14.092,14.092,14.092,14.092,14.092,14.092,14.092,14.092,14.092,14.092,14.092,14.092,14.092,14.092,14.092,14.092,14.092,14.092,14.0849,14.0849,13.9323,13.8467,13.8467,13.5399,13.3928,13.383,13.2313,13.1599,9.6948,9.438,9.2026,9.1331,9.0189,8.8619,8.6353,8.5497,8.4926,8.4069,8.4283,0.0,0.0,0.0,8.2856,0.0,0.0,8.0985,7.9272,8.1484,0.0,9.299,9.7343,10.1911,10.7313,11.1073,11.3998,11.6018,11.7588,11.9301,12.1346,12.4485,12.7007,12.8576,13.2073,13.4713,13.6211,13.7825,13.9394,14.092,14.092,14.1134,14.1634,14.3204,14.4773,14.6314,14.7913,14.9239,15.0238,15.0238,15.0238,15.0238,15.0238,15.0238,15.0238,15.0238,15.0238,15.0238,15.0238,15.0238,15.0238,15.0238,15.0238,15.0238,15.0238,15.0238,15.0238,15.0238,15.0238,15.0238,15.0238,15.0238,14.9952,14.884,14.8555,14.8127,14.6528,14.6243,14.5743,14.4202,14.356,14.2847,14.1776,14.1206,14.092,14.092,14.092,14.092,14.092,14.092,14.092,14.092,14.092,14.092,14.092,14.092,14.092,14.092,14.092,14.092,14.092,13.9822,13.9252,13.9252,13.7709,13.6354,13.5185,13.4329,13.3357,13.2242,13.1813,13.1599,9.1384,8.9814,8.8388,8.7478,8.7281,8.6781,8.4997,8.4569,8.4355,8.3713,0.0,0.0,0.0,0.0,0.0,0.0,8.2626,8.4267,8.1611,8.6068,9.1491,9.6773,10.0769,10.4959,10.9932,11.4426,11.7707,11.9277,12.087,12.2155,12.3082,12.615,12.8362,12.9219,13.2929,13.5355,13.6282,13.8494,14.0036,14.092,14.092,14.092,14.0992,14.2561,14.3774,14.4773,14.6985,14.8412,14.931,15.0024,15.0238,15.0238,15.0238,15.0238,15.0238,15.0238,15.0238,15.0238,15.0238,15.0238,15.0238,15.0238,15.0238,15.0238,15.0238,15.0238,15.0238,15.0238,15.0238,15.0095,14.9453,14.931,14.8882,14.7313,14.6985,14.6557,14.4987,14.4631,14.4131,14.2561,14.2276,14.1991,14.1063,14.092,14.092,14.092,14.092,14.092,14.092,14.092,14.092,14.092,14.092,14.092,14.092,14.092,14.092,14.092,14.092,14.092,14.092,13.9394,13.8253,13.7638,13.6068,13.4855,13.3901,13.3286,13.2501,13.1599,13.1599,13.1599,8.6533,8.5123,8.4069,8.4212,8.4283,8.4355,8.4498,0.0,8.4212,8.2982,0.0,8.4426,8.3268,0.0,0.0,7.7972,8.4195,8.7834,8.2253,9.1188,9.8771,10.0178,10.4317,10.8241,11.1144,11.6518,12.0371,12.1988,12.3653,12.4677,12.4891,12.7649,12.9361,12.9504,13.3928,13.6282,13.6282,13.9351,14.092,14.092,14.092,14.092,14.0992,14.2347,14.3061,14.3446,14.62,14.7627,14.8055,14.9453,15.0095,15.0238,15.0238,15.0238,15.0238,15.0238,15.0238,15.0238,15.0238,15.0238,15.0238,15.0238,15.0238,15.0238,15.0238,15.0238,15.0238,15.0024,15.0024,14.9667,14.8055,14.7627,14.7271,14.5672,14.5315,14.4916,14.3346,14.3018,14.2561,14.1206,14.092,14.092,14.092,14.092,14.092,14.092,14.092,14.092,14.092,14.092,14.092,14.092,14.092,14.092,14.092,14.092,14.092,14.092,14.092,14.0849,14.0706,13.9323,13.7753,13.5997,13.4427,13.3642,13.3642,13.2313,13.1599,13.1599,13.1599,13.1599,8.2039,8.104,8.1111,8.234,8.2697,8.2982,0.0,0.0,0.0,8.5819,8.6247,8.6764,8.7692,8.812,8.8334,8.8388,9.1027,9.2525,9.1384,10.1819,10.9668,11.0025,11.3093,11.5876,11.7731,11.9039,12.0371,12.1988,12.3653,12.5151,12.6411,12.8291,12.9861,13.11,13.4427,13.6282,13.6282,13.9351,14.092,14.092,14.092,14.092,14.092,14.1277,14.2062,14.3275,14.3946,14.5558,14.7984,14.827,14.9096,15.0238,15.0238,15.0238,15.0238,15.0238,15.0238,15.0238,15.0238,15.0238,15.0238,15.0238,15.0238,15.0238,15.0238,15.0238,15.0024,14.8769,14.8412,14.8055,14.6457,14.6029,14.5672,14.406,14.3703,14.3275,14.1705,14.1348,14.1277,14.0992,14.092,14.092,14.092,14.092,14.092,14.092,14.092,14.092,14.092,14.092,14.092,14.092,14.092,14.092,14.092,14.092,14.092,14.092,14.092,14.0349,13.9109,13.8752,13.7254,13.4427,13.2857,13.2027,13.2027,13.1742,13.1599,13.1599,13.1599,13.1599,8.0326,8.0469,8.1254,8.2055,8.284,0.0,0.0,8.514,8.5425,8.8602,8.8602,8.8762,9.1117,9.2258,9.3062,9.3899,9.6591,9.9445,10.1799,10.8933,11.3927,11.3927,11.6018,11.8016,11.961,12.0442,12.1227,12.1988,12.4367,12.6436,12.8006,12.9575,13.0814,13.1599,13.4641,13.6282,13.6282,13.9351,14.092,14.092,14.092,14.092,14.092,14.092,14.1348,14.2133,14.2918,14.4131,14.5701,14.7271,14.7913,14.8026,14.8811,14.9096,14.9167,14.9952,15.0238,15.0238,15.0238,15.0238,15.0238,15.0238,15.0238,15.0238,15.0238,14.9738,14.8739,14.7199,14.6771,14.6414,14.4845,14.4417,14.406,14.249,14.2062,14.1848,14.1134,14.092,14.092,14.092,14.092,14.092,14.092,14.092,14.092,14.092,14.092,14.092,14.092,14.092,14.092,14.092,14.092,14.092,14.092,14.092,14.0635,13.9822,13.9751,13.9065,13.7495,13.6683,13.5542,13.3973,13.2358,13.1599,13.1599,13.1599,13.1599,13.1599,13.1599,13.1599,7.9042,8.0112,8.1413,8.1698,8.2911,0.0,8.6051,8.5908,8.6621,9.0724,9.1312,9.1973,9.4755,9.663,9.7843,9.82,10.1891,10.6436,11.1073,11.4212,11.5995,11.5995,11.7351,11.8801,12.0085,12.1346,12.2202,12.2558,12.4984,12.7292,12.9147,13.0743,13.1599,13.1599,13.4641,13.6282,13.6282,13.9351,14.092,14.092,14.092,14.092,14.092,14.092,14.092,14.0992,14.2276,14.2989,14.3418,14.5986,14.6272,14.5315,14.6842,14.7485,14.7627,14.8882,14.9381,14.9381,14.9381,14.9381,14.9381,14.9381,14.9381,14.9381,14.9381,14.8454,14.7199,14.5957,14.5387,14.4773,14.3204,14.2775,14.249,14.1206,14.092,14.092,14.092,14.092,14.092,14.092,14.092,14.092,14.092,14.092,14.092,14.092,14.092,14.092,14.092,14.092,14.092,14.092,14.092,14.092,14.092,14.0635,13.9894,13.8681,13.8324,13.7397,13.5854,13.457,13.3785,13.35,13.2215,13.1599,13.1599,13.1599,13.1599,13.1599,13.1599,13.1599,7.6133,7.6917,7.8431,7.9827,8.1325,0.0,8.4426,8.6853,8.9261,9.1152,9.4808,9.8252,9.9964,10.1534,10.3083,10.4459,10.7456,11.1287,11.5947,11.8159,11.9229,11.9229,12.0561,12.1631,12.1774,12.1988,12.2701,12.4224,12.4677,12.6175,12.9076,13.0743,13.1599,13.1599,13.4641,13.6282,13.6282,13.9351,14.092,14.092,14.092,14.092,14.092,14.092,14.092,14.092,14.1134,14.1991,14.3275,14.366,14.3632,14.3632,14.5244,14.5815,14.5886,14.6029,14.61,14.61,14.61,14.61,14.61,14.61,14.61,14.61,14.61,14.5957,14.5815,14.5672,14.4559,14.3132,14.1562,14.1206,14.1134,14.0992,14.092,14.092,14.092,14.092,14.092,14.092,14.092,14.092,14.092,14.092,14.092,14.092,14.092,14.092,14.092,14.092,14.092,14.092,14.092,14.092,14.092,13.9608,13.8823,13.8609,13.7281,13.5783,13.4285,13.4044,13.3286,13.1885,13.1671,13.1599,13.1599,13.1599,13.1599,13.1599,13.1599,13.1599,7.5419,7.7045,7.9042,7.974,0.0,0.0,8.671,8.8262,9.0688,9.604,9.868,10.1126,10.4551,10.7171,10.9097,10.9739,11.3236,11.6518,11.8516,12.0085,12.1084,12.1084,12.1702,12.2059,12.2059,12.3011,12.3867,12.4534,12.6293,12.7863,12.9219,13.0743,13.1599,13.1599,13.4641,13.6282,13.6282,13.9351,14.092,14.092,14.092,14.092,14.092,14.092,14.092,14.092,14.092,14.1277,14.1919,14.1919,14.1919,14.2062,14.3632,14.4202,14.4345,14.5244,14.5601,14.5601,14.5601,14.5601,14.5601,14.5601,14.5601,14.5601,14.5601,14.4987,14.4202,14.4202,14.3132,14.1776,14.1134,14.092,14.092,14.092,14.092,14.092,14.092,14.092,14.092,14.092,14.092,14.092,14.092,14.092,14.092,14.092,14.092,14.092,14.092,14.092,14.092,14.092,14.0108,13.9537,13.9537,13.811,13.6853,13.5899,13.5283,13.4213,13.2643,13.2572,13.2242,13.1599,13.1599,13.1599,13.1599,13.1599,13.1599,13.1599,13.1599,13.1599,7.5633,0.0,0.0,0.0,0.0,0.0,8.9261,9.1259,9.4132,9.9913,10.2839,10.5336,10.8762,11.188,11.4163,11.4591,11.7874,12.0371,12.0371,12.1346,12.2059,12.2059,12.2059,12.2273,12.2725,12.3867,12.4962,12.5794,12.8006,12.9433,12.9861,13.0957,13.1599,13.1599,13.4213,13.5783,13.6282,13.8922,14.0492,14.092,14.092,14.092,14.092,14.092,14.092,14.092,14.092,14.092,14.092,14.092,14.092,14.1063,14.2133,14.2633,14.2775,14.3917,14.4316,14.4316,14.4316,14.4316,14.4316,14.4316,14.4316,14.4316,14.4316,14.3489,14.2633,14.2633,14.1776,14.092,14.092,14.092,14.092,14.092,14.092,14.092,14.092,14.092,14.092,14.092,14.092,14.092,14.092,14.092,14.092,14.092,14.092,14.092,14.092,14.092,14.0778,14.0322,13.9252,13.8395,13.7967,13.6496,13.5141,13.3999,13.35,13.2786,13.1671,13.1599,13.1599,13.1599,13.1599,13.1599,13.1599,13.1599,13.1599,13.1599,13.1599,13.1385,0.0,0.0,0.0,8.3641,8.6781,8.9547,9.1152,9.6254,10.0769,10.1055,10.7121,11.2451,11.2594,11.5162,11.7731,11.9301,12.0942,12.1988,12.1988,12.2059,12.2059,12.2059,12.2059,12.2701,12.4391,12.4605,12.589,12.8862,12.9219,12.9932,13.1457,13.1599,13.1599,13.1599,13.3143,13.4713,13.6211,13.7825,13.9394,14.092,14.092,14.092,14.092,14.092,14.092,14.092,14.092,14.092,14.092,14.092,14.092,14.092,14.0992,14.0992,14.0992,14.1063,14.1063,14.1063,14.1063,14.1063,14.1063,14.1063,14.1063,14.1063,14.1063,14.1063,14.0992,14.0992,14.0992,14.092,14.092,14.092,14.092,14.092,14.092,14.092,14.092,14.092,14.092,14.092,14.092,14.092,14.092,14.092,14.092,14.092,14.092,14.092,14.092,14.092,14.0349,13.8823,13.8609,13.7967,13.6425,13.4927,13.3973,13.3901,13.2527,13.1671,13.1599,13.1599,13.1599,13.1599,13.1599,13.1599,13.1599,13.1599,13.1599,13.1599,13.1599,13.0814,7.6719,7.9486,8.2181,8.5337,8.8459,9.174,9.545,9.8823,10.2268,10.6457,11.0168,11.3378,11.5448,11.8421,12.0704,12.1203,12.1702,12.2059,12.2059,12.2059,12.2059,12.2059,12.2059,12.2701,12.4463,12.5508,12.7007,12.9076,13.0217,13.1028,13.1599,13.1599,13.1599,13.1599,13.2099,13.3669,13.6211,13.7825,13.9394,14.092,14.092,14.092,14.092,14.092,14.092,14.092,14.092,14.092,14.092,14.092,14.092,14.092,14.092,14.092,14.092,14.092,14.092,14.092,14.092,14.092,14.092,14.092,14.092,14.092,14.092,14.092,14.092,14.092,14.092,14.092,14.092,14.092,14.092,14.092,14.092,14.092,14.092,14.092,14.092,14.092,14.092,14.092,14.092,14.092,14.092,14.092,14.092,14.0564,13.9537,13.9394,13.8752,13.721,13.6113,13.5257,13.4784,13.3286,13.2358,13.2358,13.1885,13.1599,13.1599,13.1599,13.1599,13.1599,13.1599,13.1599,13.1599,13.1599,13.1599,13.1599,13.1599,13.0743,7.8217,8.1127,8.4053,8.8316,9.1312,9.4523,9.9302,10.2033,10.5051,11.0168,11.295,11.5162,11.7802,12.0347,12.2059,12.2059,12.2059,12.2059,12.2059,12.2059,12.2059,12.2059,12.2059,12.2986,12.5223,12.6364,12.7792,12.9932,13.1028,13.1599,13.1599,13.1599,13.1599,13.1599,13.1599,13.2598,13.4597,13.6711,13.8538,14.0108,14.0635,14.092,14.092,14.092,14.092,14.092,14.092,14.0539,14.0008,14.0624,14.0539,14.0037,14.0695,14.092,14.092,14.092,14.092,14.092,14.092,14.092,14.092,14.092,14.092,14.092,14.092,14.092,14.092,14.092,14.092,14.092,14.092,14.092,14.092,14.092,14.092,14.092,14.092,14.092,14.092,14.092,14.092,14.092,14.092,14.092,14.0778,14.0179,14.0108,13.9537,13.7967,13.7753,13.7139,13.5569,13.457,13.3714,13.3143,13.217,13.1599,13.1599,13.1599,13.1599,13.1599,13.1599,13.1599,13.1599,13.1599,13.1599,13.1599,13.1599,13.1314,13.0743,13.0743,12.9932,8.1056,8.3641,8.6353,9.2472,9.5326,9.7824,10.2584,10.61,10.919,11.2308,11.5376,11.8016,11.9586,12.1084,12.2059,12.2059,12.2059,12.2059,12.2059,12.2059,12.2059,12.2059,12.2059,12.3343,12.6625,12.691,12.822,13.1385,13.1599,13.1599,13.1599,13.1599,13.1573,13.1495,13.1495,13.1495,13.1495,13.449,13.6843,13.8609,13.998,14.0765,14.092,14.0836,14.0808,14.0808,14.0808,13.9891,13.8477,14.0095,13.9732,13.8385,14.0095,14.0808,14.0808,14.0892,14.092,14.092,14.092,14.092,14.092,14.092,14.092,14.092,14.092,14.092,14.092,14.092,14.092,14.092,14.092,14.092,14.092,14.092,14.092,14.092,14.092,14.092,14.092,14.092,14.092,14.092,14.0849,14.0849,14.025,13.8681,13.8467,13.7896,13.6354,13.614,13.5569,13.3999,13.3856,13.3214,13.1742,13.1599,13.1599,13.1599,13.1599,13.1599,13.1599,13.1599,13.1599,13.1599,13.1599,13.1599,13.1599,13.1528,13.0743,12.929,12.9219,12.8291,8.2071,8.6835,9.0742,9.4774,9.868,10.2533,10.61,10.9311,11.2451,11.559,11.7802,11.9657,12.1227,12.1774,12.2059,12.2059,12.2059,12.2059,12.2059,12.2059,12.2059,12.2059,12.2059,12.3343,12.6625,12.691,12.822,13.1385,13.1599,13.1599,13.1599,13.1599,13.1052,12.9781,12.9753,12.9753,12.9753,13.1685,13.4659,13.8582,13.7616,13.8453,14.0864,13.9526,13.8915,13.8915,13.8915,13.9437,14.0153,13.9247,13.8601,13.826,13.8692,13.8915,13.9067,14.0425,14.092,14.092,14.092,14.092,14.092,14.092,14.092,14.092,14.092,14.092,14.092,14.092,14.092,14.092,14.092,14.092,14.092,14.092,14.092,14.092,14.092,14.092,14.092,14.092,14.092,14.0564,13.9394,13.918,13.8609,13.7067,13.6853,13.6282,13.4713,13.4499,13.3928,13.2384,13.2144,13.2027,13.1671,13.1599,13.1599,13.1599,13.1599,13.1599,13.1599,13.1599,13.1599,13.1599,13.1599,13.1599,13.1599,13.0457,12.9647,12.9219,12.8077,12.6721,8.1572,8.7977,9.3381,9.6611,10.0464,10.4225,10.7335,11.0475,11.3664,11.6803,11.9229,12.1084,12.1916,12.2059,12.2059,12.2059,12.2059,12.2059,12.2059,12.2059,12.2059,12.2059,12.2059,12.3343,12.6625,12.691,12.822,13.1385,13.1599,13.1599,13.1599,13.1599,13.0793,12.9137,12.9078,12.8685,12.7895,12.8761,13.1285,13.541,13.5746,13.6832,13.8653,13.7534,13.7011,13.7076,13.7845,13.8323,13.8548,13.8323,13.7719,13.7011,13.7011,13.7011,13.7238,13.9067,13.9703,13.982,14.0695,14.092,14.092,14.092,14.092,14.092,14.092,14.092,14.092,14.092,14.092,14.092,14.092,14.092,14.092,14.092,14.092,14.092,14.092,14.092,14.092,14.092,14.0349,13.9394,13.7852,13.7567,13.7067,13.5498,13.5212,13.4641,13.3143,13.2929,13.2572,13.1671,13.1599,13.1599,13.1599,13.1599,13.1599,13.1599,13.1599,13.1599,13.1599,13.1599,13.1599,13.1599,13.0957,13.06,13.06,12.9004,12.7863,12.7149,12.6293,12.508,8.0985,8.796,9.438,9.7895,10.1371,10.4745,10.7477,11.0832,11.4163,11.6875,11.9919,12.2059,12.2059,12.2059,12.2059,12.2059,12.2059,12.2059,12.2059,12.2059,12.2059,12.2059,12.2059,12.3272,12.6339,12.6839,12.8148,13.11,13.1457,13.1599,13.1599,13.1599,13.0712,12.8744,12.8715,12.7865,12.6025,12.5992,12.758,13.0805,13.3614,13.5123,13.5481,13.4742,13.4567,13.488,13.6675,13.6679,13.5604,13.6876,13.6514,13.5051,13.5051,13.5051,13.5294,13.7173,13.7814,13.8104,13.9644,14.0253,14.0253,14.0253,14.0368,14.0539,14.0539,14.0752,14.092,14.092,14.092,14.092,14.092,14.092,14.092,14.092,14.0752,14.0539,14.0539,14.078,14.0849,14.0635,13.9537,13.811,13.6496,13.6068,13.5426,13.3856,13.3642,13.3143,13.1813,13.1599,13.1599,13.1599,13.1599,13.1599,13.1599,13.1599,13.1599,13.1599,13.1599,13.1599,13.1599,13.1599,13.1528,13.1314,12.9932,12.9147,12.8933,12.7363,12.5936,12.4605,12.4391,12.3439,8.3498,8.7977,9.3077,9.761,10.3032,10.7406,10.7977,11.2451,11.6732,11.7303,11.9919,12.2059,12.2059,12.2059,12.2059,12.2059,12.2059,12.2059,12.2059,12.2059,12.2059,12.2059,12.2059,12.2844,12.4819,12.615,12.7695,12.9504,13.0886,13.1599,13.1599,13.1599,13.0103,12.6889,12.6794,12.6028,12.4281,12.4246,12.5271,12.724,12.9036,13.128,13.37,13.0507,12.9914,13.135,13.2898,13.4309,13.5397,13.4094,13.3367,13.3071,13.3071,13.3071,13.3293,13.5225,13.5979,13.6013,13.6316,13.645,13.645,13.645,13.7432,13.8662,13.8662,13.9703,14.092,14.092,14.092,14.092,14.092,14.092,14.092,14.092,13.9762,13.8662,13.8662,13.9891,14.0564,13.9252,13.8752,13.811,13.6496,13.5212,13.3785,13.2215,13.2027,13.1885,13.1671,13.1599,13.1599,13.1599,13.1599,13.1599,13.1599,13.1599,13.1599,13.1599,13.1599,13.1599,13.1599,13.1599,13.1028,12.9718,12.9361,12.8648,12.7338,12.5794,12.4891,12.4534,12.3154,12.2344,8.4909,8.8602,9.2721,9.7519,10.346,10.8048,10.8048,11.2879,11.7137,11.6352,11.8635,12.087,12.087,12.1488,12.2059,12.2059,12.2059,12.2059,12.2059,12.2059,12.2059,12.2059,12.2059,12.2701,12.4463,12.6008,12.7552,12.9147,12.9887,13.0257,13.0257,13.0257,12.8645,12.5135,12.5862,12.5135,12.252,12.2484,12.3328,12.5034,12.5816,12.7314,12.939,12.6704,12.6347,12.8054,13.0416,13.1959,13.2825,13.269,13.2548,13.2435,13.1496,13.1133,13.1368,13.3287,13.395,13.4094,13.5154,13.5501,13.5501,13.5501,13.6115,13.6814,13.6814,13.7399,13.8104,13.8104,13.8104,13.8104,13.8104,13.8104,13.8104,13.8104,13.6835,13.5925,13.685,13.7083,13.7239,13.7331,13.6755,13.5899,13.5212,13.3022,13.1177,13.0399,13.1052,13.1599,13.1599,13.1599,13.1599,13.1599,13.1599,13.1599,13.1599,13.1599,13.1599,13.1599,13.1599,13.1599,13.1599,13.0814,12.9647,12.8077,12.7221,12.6436,12.5722,12.4081,12.3296,12.3296,12.2416,12.2059,8.5391,8.9172,9.3025,9.7181,10.241,10.6835,10.7834,11.2165,11.5639,11.4783,11.7303,11.9752,11.9752,12.1013,12.2059,12.2059,12.2059,12.2059,12.2059,12.2059,12.2059,12.2059,12.2059,12.2558,12.3938,12.5508,12.6951,12.8066,12.8399,12.8512,12.8507,12.8507,12.709,12.393,12.5101,12.4385,12.1335,12.1297,12.192,12.3288,12.3288,12.3891,12.4927,12.3631,12.3757,12.5283,12.814,12.9557,12.9892,13.1032,13.1702,13.1845,13.039,12.9832,13.0011,13.1485,13.197,13.2199,13.3764,13.427,13.427,13.427,13.4556,13.4841,13.4841,13.5189,13.5501,13.5501,13.5501,13.5501,13.5501,13.5501,13.5156,13.411,13.3056,13.2612,13.397,13.395,13.3898,13.4489,13.3961,13.3148,13.2419,13.017,12.8507,12.8507,12.9979,13.1186,13.1573,13.1599,13.1599,13.1599,13.1599,13.1599,13.1599,13.1599,13.1599,13.1599,13.1599,13.1457,13.11,12.9575,12.8006,12.6482,12.5223,12.4463,12.401,12.2701,12.2059,12.2059,12.2059,12.2059,8.464,8.9119,9.4095,9.5968,9.9108,10.2839,10.7121,10.9597,11.1358,11.2665,11.6589,11.9752,11.9752,12.1013,12.2059,12.2059,12.2059,12.2059,12.2059,12.2059,12.2059,12.2059,12.2059,12.213,12.2273,12.3796,12.4764,12.4672,12.595,12.6683,12.6599,12.6604,12.5766,12.3895,12.4,12.318,12.1297,12.1297,12.1373,12.1563,12.1563,12.1563,12.1761,12.157,12.2245,12.3757,12.5335,12.6771,12.7957,12.8089,12.8906,13.0052,12.9914,12.9832,12.9873,13.0077,13.0092,13.0092,13.0295,13.0376,13.0376,13.0376,13.1485,13.2811,13.2811,13.4058,13.5501,13.5501,13.5501,13.5501,13.5501,13.5501,13.432,12.9575,12.8615,12.8807,12.8987,13.149,13.2884,12.9979,13.06,13.0654,12.7593,12.6768,12.6604,12.6604,12.8138,12.9866,13.1442,13.1599,13.1599,13.1599,13.1599,13.1599,13.1599,13.1599,13.1599,13.1599,13.1599,13.0957,12.9504,12.8006,12.6436,12.4891,12.4677,12.3867,12.2273,12.213,12.2059,12.2059,12.2059,12.2059,8.4283,8.8477,9.3096,9.5702,9.7272,9.9484,10.4174,10.6457,10.8312,11.081,11.4306,11.7208,11.8159,11.8872,11.9848,12.1774,12.1274,12.1013,12.1916,12.1249,12.102,12.1962,12.1223,12.1046,12.1986,12.3582,12.417,12.2988,12.4226,12.4573,12.3605,12.4355,12.4038,12.2366,12.3324,12.3,12.1297,12.1297,12.1297,12.1297,12.1297,12.1297,12.1297,12.1297,12.1587,12.2179,12.2771,12.3823,12.5204,12.6059,12.6782,12.7374,12.8229,12.8558,12.8689,12.9503,12.9832,12.9832,12.9832,12.9832,12.9832,12.9832,13.0309,13.0923,13.0923,13.1446,13.2104,13.2104,13.2104,13.2104,13.2104,13.1472,13.0086,12.7153,12.5869,12.5695,12.6674,12.7381,12.7675,12.7348,12.7819,12.7933,12.6614,12.5467,12.5168,12.6187,12.699,12.8437,13.1239,13.1599,13.1599,13.1599,13.1599,13.1599,13.1599,13.1599,13.1171,13.0217,13.0217,12.9076,12.6579,12.5865,12.4723,12.3082,12.3082,12.2772,12.2059,12.2059,12.2059,12.2059,12.2059,12.2059,8.357,8.762,9.2026,9.3847,9.5702,9.8057,10.1891,10.3246,10.4602,10.7649,11.1572,11.4854,11.6423,11.7065,11.8302,12.0918,12.0442,12.0108,12.1186,12.0458,11.9964,12.0588,12.0097,12.015,12.1249,12.244,12.2653,12.1435,12.2137,12.2147,12.1006,12.227,12.252,12.1335,12.241,12.2484,12.1297,12.1297,12.1297,12.1297,12.1297,12.1297,12.1297,12.1297,12.1297,12.1297,12.1297,12.185,12.2864,12.4349,12.5204,12.5664,12.6651,12.7045,12.7177,12.8229,12.8886,12.9215,12.9215,12.9544,12.9832,12.9832,12.9832,12.9832,12.9832,12.9832,12.9766,12.9347,12.9215,12.9149,12.8649,12.7506,12.619,12.5204,12.3889,12.3156,12.4317,12.4174,12.4003,12.4694,12.5269,12.5401,12.4966,12.3828,12.3471,12.466,12.5302,12.6636,12.964,13.0477,13.1052,13.1547,13.1159,13.0866,13.0905,13.0886,13.0217,12.8648,12.8576,12.7149,12.401,12.3867,12.3296,12.2059,12.2059,12.2059,12.2059,12.2059,12.2059,12.2059,12.2059,12.2059,8.2269,8.6818,9.1152,8.969,9.4042,9.9108,10.0769,9.9893,9.9679,10.2798,10.8455,11.3236,11.4783,11.6352,11.7945,11.9515,11.9752,11.9722,11.9753,11.9775,11.9158,11.761,11.8795,11.9775,11.9775,11.9775,11.9703,11.9596,11.9468,11.9359,11.9201,12.0507,12.1297,12.1297,12.1297,12.1297,12.1297,12.1297,12.1297,12.1297,12.1297,12.1297,12.1297,12.1297,12.1297,12.1297,12.1297,12.1297,12.1428,12.2902,12.4244,12.5599,12.5599,12.5599,12.5599,12.5599,12.6519,12.7743,12.7743,12.8689,12.9832,12.9832,12.9832,12.9832,12.9832,12.9832,12.9544,12.8097,12.7743,12.7414,12.5993,12.4546,12.3455,12.3455,12.2376,12.1297,12.1297,12.263,12.336,12.1648,12.2704,12.3324,12.161,12.1335,12.1335,12.1335,12.2813,12.4488,12.6187,12.7986,12.9711,13.1442,13.009,12.9147,12.933,12.929,12.8648,12.7053,12.691,12.5483,12.2202,12.2059,12.2059,12.2059,12.2059,12.2059,12.2059,12.2059,12.2059,12.2059,12.2059,12.2059,8.0326,8.3625,8.7406,9.0171,9.2311,9.3952,9.4451,9.7538,10.0321,10.025,10.3511,10.7506,11.1216,11.2381,11.4313,11.8968,11.8056,11.7374,11.9478,11.8795,11.7934,11.7432,11.7817,11.8137,11.8137,11.9075,11.8764,11.6509,11.7322,11.7754,11.7555,11.9023,12.0272,12.1297,12.1297,12.1297,12.1297,12.1297,12.1297,12.1297,12.1297,12.1297,12.1297,12.1297,12.1297,12.1297,12.1297,12.1297,12.1362,12.1785,12.2245,12.2705,12.3757,12.4113,12.4218,12.5204,12.5862,12.6256,12.6256,12.6519,12.6914,12.6914,12.6914,12.6914,12.6914,12.6914,12.6848,12.6388,12.6256,12.5664,12.3297,12.2311,12.1982,12.1982,12.1587,12.1297,12.1297,12.1723,12.1949,12.1411,12.1723,12.1883,12.1373,12.1297,12.1297,12.1297,12.274,12.4035,12.4591,12.6159,12.7427,12.7947,12.7606,12.7427,12.7664,12.7695,12.7007,12.5437,12.4271,12.3129,12.213,12.2059,12.2059,12.2059,12.2059,12.2059,12.2059,12.2059,12.2059,12.2059,12.2059,12.2059,7.9613,8.2198,8.5425,8.8887,8.9796,9.0224,9.2008,9.4774,9.6812,9.6386,9.8892,10.2205,10.5569,10.8582,11.1997,11.6458,11.6514,11.6502,11.7739,11.764,11.692,11.5743,11.6086,11.646,11.646,11.7333,11.7093,11.5032,11.5716,11.6192,11.6034,11.8036,11.9549,12.0469,12.0995,12.1297,12.1297,12.1297,12.1297,12.1297,12.1297,12.1297,12.1297,12.1297,12.1297,12.1297,12.1297,12.1297,12.1297,12.1297,12.1297,12.1428,12.2245,12.2639,12.2771,12.3626,12.4283,12.4744,12.4744,12.5138,12.5599,12.5599,12.5599,12.5599,12.5599,12.5599,12.5467,12.4941,12.4744,12.4218,12.1916,12.1297,12.1297,12.1297,12.1297,12.1297,12.1297,12.1297,12.1297,12.1297,12.1297,12.1297,12.1297,12.1297,12.1297,12.1297,12.2181,12.3108,12.3754,12.4253,12.4581,12.4581,12.5259,12.5833,12.6025,12.6079,12.5366,12.3724,12.2114,12.147,12.2035,12.2059,12.2059,12.2059,12.2059,12.2059,12.2059,12.2059,12.2059,12.2059,12.2059,12.2059,7.9684,8.1912,8.464,8.6461,8.6838,8.7943,9.229,9.1555,9.0336,9.149,9.4403,9.7203,9.861,10.4587,10.9974,11.2279,11.5056,11.6405,11.4938,11.6174,11.6023,11.2904,11.3941,11.4837,11.4706,11.4804,11.4837,11.4706,11.4584,11.4581,11.4712,11.7379,11.8957,11.9154,12.0404,12.1231,12.1297,12.1297,12.1297,12.1297,12.1297,12.1297,12.1297,12.1297,12.1297,12.1297,12.1297,12.1297,12.1297,12.1297,12.1297,12.1297,12.1297,12.1297,12.1297,12.1297,12.2113,12.3258,12.3258,12.4152,12.527,12.527,12.527,12.527,12.527,12.527,12.5007,12.3653,12.3258,12.2929,12.1653,12.1297,12.1297,12.1297,12.1297,12.1297,12.1297,12.1297,12.1297,12.1297,12.1297,12.1297,12.1297,12.1297,12.1297,12.1297,12.1193,12.1675,12.3266,12.2204,12.1297,12.1297,12.288,12.3982,12.4053,12.4043,12.3477,12.1984,12.0536,12.0458,12.201,12.2059,12.2059,12.2059,12.2059,12.2059,12.2059,12.2059,12.2059,12.2059,12.2059,12.2059,7.7774,7.9558,8.1967,8.5891,8.6307,8.5985,8.7061,8.8738,8.9131,8.6216,8.8139,9.1205,9.3946,9.6607,10.0746,10.8128,11.0952,11.2449,11.3176,11.4551,11.4773,11.283,11.3941,11.441,11.3186,11.4176,11.4376,11.3218,11.3089,11.3499,11.4647,11.5304,11.675,11.9088,11.9483,12.0206,12.1258,12.1297,12.1297,12.1297,12.1297,12.1297,12.1297,12.1297,12.1297,12.1297,12.1297,12.1297,12.1297,12.1297,12.1297,12.1297,12.1297,12.1297,12.1297,12.1297,12.1522,12.1785,12.1785,12.1982,12.2349,12.2349,12.2349,12.2349,12.2349,12.2349,12.2218,12.1916,12.1785,12.1719,12.1324,12.1297,12.1297,12.1297,12.1297,12.1297,12.1297,12.1297,12.1297,12.1297,12.1297,12.1297,12.1297,12.1297,12.1297,12.1297,12.0338,11.9802,12.0184,11.8935,11.7979,11.7979,11.8472,11.8863,11.8901,11.906,11.941,12.0247,11.9937,12.0458,12.201,12.2059,12.2059,12.2059,12.2059,12.2059,12.2059,12.2059,12.2059,12.2059,12.2059,12.2059,7.644,7.7966,7.9937,8.3423,8.3843,8.364,8.4376,8.4864,8.4524,8.221,8.3718,8.6156,8.8541,9.1733,9.573,10.136,10.529,10.8149,10.9534,11.1558,11.2602,11.1705,11.2892,11.3496,11.2619,11.329,11.3462,11.2619,11.2548,11.2841,11.3631,11.4354,11.5435,11.7013,11.7773,11.8825,12.0272,12.0272,12.0272,12.0338,12.1034,12.1297,12.1297,12.1297,12.1297,12.1297,12.1297,12.1297,12.1297,12.1297,12.1297,12.1297,12.1297,12.1297,12.1297,12.1297,12.1297,12.1297,12.1297,12.1297,12.1297,12.1297,12.1297,12.1297,12.1297,12.1297,12.1297,12.1297,12.1297,12.1297,12.1297,12.1297,12.1297,12.1297,12.1297,12.1297,12.1297,12.1297,12.1297,12.1297,12.1297,12.1099,12.0404,12.0272,12.0075,11.9351,11.8562,11.8102,11.8102,11.6787,11.5866,11.5866,11.6009,11.6182,11.6182,11.6906,11.7758,11.8597,11.7923,11.8213,11.9829,12.0588,12.102,12.102,12.1694,12.2059,12.2059,12.2059,12.2059,12.2059,12.2059,12.2059,7.5553,7.6972,7.8429,8.0179,8.0817,8.1298,8.2686,8.1203,7.9497,7.9293,8.0466,8.2039,8.3479,8.794,9.2095,9.4218,9.8996,10.3241,10.5509,10.8343,11.0301,11.0384,11.1658,11.2548,11.2548,11.2548,11.2548,11.2548,11.2548,11.2548,11.2548,11.3696,11.4449,11.4712,11.5866,11.7116,11.8497,11.8497,11.8562,11.8825,12.0272,12.093,12.093,12.1231,12.1297,12.1297,12.1297,12.1297,12.1297,12.1297,12.1297,12.1297,12.1297,12.1297,12.1297,12.1297,12.1297,12.1297,12.1297,12.1297,12.1297,12.1297,12.1297,12.1297,12.1297,12.1297,12.1297,12.1297,12.1297,12.1297,12.1297,12.1297,12.1297,12.1297,12.1297,12.1297,12.1297,12.1165,12.093,12.093,12.0732,12.0206,11.9023,11.8825,11.8365,11.705,11.6655,11.6524,11.6524,11.5274,11.4318,11.4318,11.4435,11.4542,11.4542,11.5834,11.6645,11.6645,11.5548,11.5516,11.695,11.854,11.9461,11.9748,12.1249,12.1962,12.1694,12.1962,12.1962,12.1694,12.1962,12.2059,7.5225,7.6553,7.7444,7.7874,7.8888,7.9812,8.0105,7.9813,7.9247,7.8349,7.8424,7.9009,8.0486,8.2404,8.5448,9.0784,9.323,9.6788,10.3402,10.6829,10.9071,11.0312,11.1658,11.2548,11.2548,11.2548,11.2548,11.2548,11.2548,11.2548,11.2548,11.2811,11.3433,11.4647,11.4909,11.5107,11.537,11.537,11.5961,11.7181,11.876,11.9483,11.9549,12.077,12.1297,12.1297,12.1297,12.1297,12.1297,12.1297,12.1297,12.1297,12.1297,12.1297,12.1297,12.1297,12.1297,12.1297,12.1297,12.1297,12.1297,12.1297,12.1297,12.1297,12.1297,12.1297,12.1297,12.1297,12.1297,12.1297,12.1297,12.1297,12.1297,12.1297,12.1297,12.1297,12.1297,12.0338,11.9483,11.9483,11.8431,11.7444,11.7247,11.7181,11.7116,11.6853,11.5801,11.4975,11.4975,11.3762,11.2841,11.2841,11.2927,11.2904,11.2904,11.3148,11.3322,11.3322,11.4277,11.5,11.5259,11.6889,11.8368,11.9748,12.1249,12.1445,12.007,12.1445,12.142,12.0097,12.147,12.2059,7.485,7.5917,7.6618,7.7485,7.8151,7.8706,7.8706,7.8706,7.854,7.8029,7.7973,7.8146,7.8803,8.0709,8.303,8.5818,8.8732,9.2408,9.7384,10.3306,10.791,11.0145,11.1658,11.2548,11.2548,11.2548,11.2548,11.2548,11.2548,11.2548,11.2548,11.2548,11.2841,11.3499,11.3499,11.3499,11.3499,11.4252,11.4975,11.5633,11.7181,11.7905,11.7905,11.8562,11.9351,12.0141,12.0141,12.0535,12.1297,12.1297,12.1297,12.1297,12.1297,12.1297,12.1297,12.1297,12.1297,12.1297,12.1297,12.1297,12.1297,12.1297,12.1297,12.1297,12.1297,12.1297,12.1297,12.1297,12.1297,12.1297,12.1297,12.0732,12.0141,12.0141,11.9483,11.8891,11.8891,11.8365,11.7905,11.7905,11.7313,11.659,11.5801,11.5633,11.5406,11.4617,11.3959,11.3499,11.3499,11.2907,11.2548,11.2548,11.2548,11.2548,11.2548,11.2548,11.2548,11.2548,11.3186,11.3601,11.3601,11.4377,11.5484,11.7093,11.871,11.9228,11.8454,12.0017,12.0458,11.9802,12.1395,12.2059,7.5672,0.0,7.7159,7.8606,7.8697,7.8474,0.0,7.8146,7.7973,7.7973,7.7973,7.7973,7.7973,7.9724,8.1566,8.2527,8.5552,8.914,9.3085,9.9953,10.5871,10.9488,11.1132,11.2052,11.2052,11.2351,11.2548,11.2548,11.2548,11.2548,11.2548,11.2548,11.2548,11.2548,11.2548,11.2548,11.2548,11.3631,11.4186,11.4222,11.5669,11.6327,11.6327,11.6655,11.751,11.8628,11.8628,11.922,12.0272,12.0601,12.0798,12.0798,12.1165,12.1297,12.1297,12.1297,12.1297,12.1297,12.1297,12.1297,12.1297,12.1297,12.1297,12.1297,12.1297,12.0798,12.0244,12.0244,12.0244,12.0244,12.0244,11.9417,11.8628,11.8628,11.7708,11.6853,11.6853,11.659,11.6327,11.6327,11.6064,11.5472,11.442,11.4186,11.3828,11.2745,11.2548,11.2548,11.2548,11.2548,11.2548,11.2548,11.2548,11.2548,11.2548,11.2548,11.2548,11.2548,11.2548,11.2548,11.2548,11.2548,11.3255,11.4837,11.6148,11.7011,11.7372,11.8963,11.9585,11.9213,12.077,12.1694,0.0,7.9749,8.0094,8.1566,8.0949,7.9962,7.9962,7.8935,0.0,7.7973,7.7973,7.7973,7.7973,7.8104,7.9593,8.3553,8.4473,8.7102,9.41,9.7949,10.2091,10.7744,10.9685,11.054,11.054,11.1724,11.2548,11.2548,11.2548,11.2548,11.2548,11.2548,11.2548,11.2548,11.2548,11.2548,11.2548,11.268,11.2745,11.271,11.4157,11.4844,11.4909,11.6261,11.6918,11.6984,11.6984,11.705,11.7247,11.8694,11.9286,11.9483,12.0732,12.1297,12.1297,12.1297,12.1297,12.1297,12.1297,12.1297,12.1297,12.1297,12.1297,12.1297,12.1297,11.9351,11.7116,11.7116,11.7116,11.7116,11.7116,11.705,11.6984,11.6984,11.6918,11.6853,11.6853,11.5764,11.4844,11.4844,11.3762,11.2811,11.2745,11.2745,11.268,11.2614,11.2548,11.2548,11.2548,11.2548,11.2548,11.2548,11.2548,11.2548,11.2548,11.2548,11.2548,11.2548,11.2548,11.2548,11.2548,11.2548,11.3255,11.4837,11.5,11.5834,11.7372,11.8963,11.8991,11.758,11.9158,12.0666,7.9608,8.0751,8.154,8.2092,8.1803,8.1146,8.0266,7.9633,7.9001,7.808,7.7973,7.7973,7.7973,7.7973,7.8738,8.1252,8.2461,8.5617,9.2887,9.716,10.1696,10.7547,10.9519,11.0737,11.1658,11.1395,11.1592,11.2482,11.2548,11.2548,11.2548,11.2548,11.2548,11.2548,11.2548,11.2548,11.2548,11.2548,11.2548,11.2548,11.3104,11.3367,11.3367,11.3894,11.4617,11.5501,11.5501,11.5998,0.0,11.7444,11.7708,11.7773,11.8299,11.8497,11.8497,11.8497,11.8497,11.8497,11.8497,11.8497,11.8497,11.8497,11.8497,11.8497,11.8497,11.7708,11.6853,11.6853,11.6853,11.6853,11.6853,11.6195,11.5501,11.5501,11.4814,11.4157,11.4157,11.3696,11.3367,11.3367,11.2907,11.2548,11.2548,11.2548,11.2548,11.2548,11.2548,11.2548,11.2548,11.2548,11.2548,11.2548,11.2548,11.2548,11.2548,11.2548,11.2548,11.2548,11.2548,11.2548,11.2548,11.2548,11.2799,11.3428,11.3428,11.3703,11.4377,11.5002,11.5452,11.5897,11.7551,11.8586,8.1186,8.2132,8.2987,8.3539,8.325,8.2527,8.108,8.0423,7.9699,7.8211,7.7973,7.7973,7.7973,7.7973,7.854,8.0423,8.1606,8.4894,9.269,9.67,10.1039,10.6889,10.8896,11.0277,11.1724,11.1395,11.146,11.2482,11.2548,11.2548,11.2548,11.2548,11.2548,11.2548,11.2548,11.2548,11.2548,11.2548,11.2548,11.2548,11.2548,11.2548,11.2548,11.2548,11.3104,11.4025,11.4025,11.4551,11.5472,11.5998,11.6129,11.6195,11.6655,11.6853,11.6853,11.6853,11.6853,11.6853,11.6853,11.6853,11.6853,11.6853,11.6853,11.6853,11.6853,11.6195,11.5472,11.5472,11.5472,11.5472,11.5472,11.4748,11.4025,11.4025,11.3236,11.2548,11.2548,11.2548,11.2548,11.2548,11.2548,11.2548,11.2548,11.2548,11.2548,11.2548,11.2548,11.2548,11.2548,11.2548,11.2548,11.2548,11.2548,11.2548,11.2548,11.2548,11.2548,11.2548,11.2548,11.2548,11.2548,11.2548,11.2548,11.2548,11.2548,11.2548,11.2548,11.2548,11.3359,11.4902,11.561,11.6239,8.3553,8.4341,8.4736,8.6302,8.5552,8.4013,8.2527,8.1146,7.9699,7.8211,7.7973,7.7973,7.7973,7.7973,7.8894,8.1763,8.2224,8.5289,9.4035,9.6468,9.959,10.5444,10.7449,10.8862,11.0277,11.1724,11.2548,11.2548,11.2548,11.2548,11.2548,11.2548,11.2548,11.2548,11.2548,11.2548,11.2548,11.2548,11.2548,11.2548,11.2548,11.2548,11.2548,11.2548,11.2548,11.2548,11.2548,11.2548,11.268,11.4091,11.4647,11.4778,11.6261,11.6787,11.6787,11.6787,11.6787,11.6787,11.6787,11.6787,11.6787,11.6787,11.6787,11.6787,11.6787,11.4814,11.2548,11.2548,11.2548,11.2548,11.2548,11.2548,11.2548,11.2548,11.2548,11.2548,11.2548,11.2548,11.2548,11.2548,11.2548,11.2548,11.2548,11.2548,11.2548,11.2548,11.2548,11.2548,11.2548,11.2548,11.2548,11.2548,11.2548,11.2548,11.2548,11.2548,11.2548,11.2548,11.2548,11.2548,11.2548,11.2548,11.2548,11.2548,11.2548,11.2548,11.2548,11.2548,11.3258,11.4802,11.3388,11.3657,8.2921,8.4368,8.6105,8.6565,8.6368,8.5289,8.2816,8.1869,8.0908,7.8474,7.7973,7.7973,7.7973,7.7973,7.854,8.0423,8.3342,8.7355,9.2953,9.7585,10.2189,10.7055,10.8927,10.9948,11.0408,11.1724,11.2548,11.2548,11.2548,11.2548,11.2548,11.2548,11.2548,11.2548,11.2548,11.2548,11.2548,11.2548,11.2548,11.2548,11.2548,11.2548,11.2548,11.2548,11.2548,11.2548,11.2548,11.2548,11.2614,11.2973,11.317,11.3236,11.3631,11.3798,11.3798,11.3798,11.3798,11.3798,11.3798,11.3798,11.3798,11.3798,11.3798,11.3798,11.3798,11.3206,11.2548,11.2548,11.2548,11.2548,11.2548,11.2548,11.2548,11.2548,11.2548,11.2548,11.2548,11.2548,11.2548,11.2548,11.2548,11.2548,11.2548,11.2548,11.2548,11.2548,11.2548,11.2548,11.2548,11.2548,11.2548,11.2548,11.2548,11.2548,11.2548,11.2548,11.2548,11.2548,11.2548,11.2548,11.2548,11.2548,11.2548,11.2548,11.2548,11.2052,11.1066,11.1066,11.0751,11.024,11.086,11.133,8.4066,8.5315,8.6724,8.6724,8.6724,8.5934,8.2882,8.2224,8.1435,7.8565,7.7973,7.808,7.8672,7.8343,7.8803,8.1409,8.4039,8.7656,9.3216,9.7454,10.2057,10.7613,10.8993,11.0014,11.1132,11.2052,11.2548,11.2548,11.2548,11.2548,11.2548,11.2548,11.2548,11.2548,11.2548,11.2548,11.2548,11.2548,11.2548,11.2548,11.2548,11.2548,11.2548,11.2548,11.2548,11.2548,11.2548,11.2548,11.2548,11.2548,11.2548,11.2548,11.2548,11.2548,11.2548,11.2548,11.2548,11.2548,11.2548,11.2548,11.2548,11.2548,11.2548,11.2548,11.2548,11.2548,11.2548,11.2548,11.2548,11.2548,11.2548,11.2548,11.2548,11.2548,11.2548,11.2548,11.2548,11.2548,11.2548,11.2548,11.2548,11.2548,11.2548,11.2548,11.2548,11.2548,11.2548,11.2548,11.2548,11.2548,11.2548,11.2548,11.2548,11.2548,11.2548,11.2548,11.2548,11.2548,11.2548,11.2548,11.2548,11.1987,11.1658,11.1658,11.1132,11.0408,10.9519,10.9519,10.9435,10.9114,10.8809,10.9372,8.6171,8.6565,8.6724,8.6724,8.6724,8.5934,8.2882,8.2224,8.1435,7.8565,7.7973,7.8433,7.9831,7.9132,7.9724,8.3881,8.4999,8.7694,9.4495,9.6928,10.0545,10.7481,10.827,10.9387,11.2285,11.2548,11.2548,11.2548,11.2548,11.2548,11.2548,11.2548,11.2548,11.2548,11.2548,11.2548,11.2548,11.2548,11.2548,11.2548,11.2548,11.2548,11.2548,11.2548,11.2548,11.2548,11.2548,11.2548,11.2548,11.2548,11.2548,11.2548,11.2548,11.2548,11.2548,11.2548,11.2548,11.2548,11.2548,11.2548,11.2548,11.2548,11.2548,11.2548,11.2548,11.2548,11.2548,11.2548,11.2548,11.2548,11.2548,11.2548,11.2548,11.2548,11.2548,11.2548,11.2548,11.2548,11.2548,11.2548,11.2548,11.2548,11.2548,11.2548,11.2548,11.2548,11.2548,11.2548,11.2548,11.2548,11.2548,11.2548,11.2548,11.2548,11.2548,11.2548,11.2482,11.2315,11.2351,11.2285,11.2153,11.0869,11.0211,11.0211,10.8927,10.8204,10.8073,10.8073,10.8716,10.9774,10.729,10.7676,8.5091,8.5749,8.6724,8.6724,8.6724,8.5934,8.2882,8.2224,8.1435,7.8565,7.7973,7.8433,7.9831,8.0751,8.2355,8.5644,8.9957,9.3837,9.6533,10.015,10.403,10.781,10.827,10.9387,11.2285,11.2548,11.2548,11.2548,11.2548,11.2548,11.2548,11.2548,11.2548,11.2548,11.2548,11.2548,11.2548,11.2548,11.2548,11.2548,11.2548,11.2548,11.2548,11.2548,11.2548,11.2548,11.2548,11.2548,11.2548,11.2548,11.2548,11.2548,11.2548,11.2548,11.2548,11.2548,11.2548,11.2548,11.2548,11.2548,11.2548,11.2548,11.2548,11.2548,11.2548,11.2548,11.2548,11.2548,11.2548,11.2548,11.2548,11.2548,11.2548,11.2548,11.2548,11.2548,11.2548,11.2548,11.2548,11.2548,11.2548,11.2548,11.2548,11.2548,11.2548,11.2548,11.2548,11.2548,11.2548,11.2548,11.2548,11.2548,11.2548,11.2548,11.2548,11.2548,11.2052,11.0934,11.0869,11.0408,10.9256,10.8862,10.873,10.873,10.8401,10.7678,10.6594,10.6594,10.6202,10.5375,10.5931,10.709,8.5683,8.6105,8.6724,8.6724,8.6724,8.6105,8.3776,8.2724,8.1829,8.0316,7.9461,7.9633,8.1712,8.279,8.4236,8.7223,9.1404,9.4955,9.709,10.0545,10.4227,10.7876,10.827,10.9387,11.2285,11.2548,11.2548,11.2548,11.2548,11.2548,11.2548,11.2548,11.2548,11.2548,11.2548,11.2548,11.2548,11.2548,11.2548,11.2548,11.2548,11.2548,11.2548,11.2548,11.2548,11.2548,11.2548,11.2548,11.2548,11.2548,11.2548,11.2548,11.2548,11.2548,11.2548,11.2548,11.2548,11.2548,11.2548,11.2548,11.2548,11.2548,11.2548,11.2548,11.2548,11.2548,11.2548,11.2548,11.2548,11.2548,11.2548,11.2548,11.2548,11.2548,11.2548,11.2548,11.2548,11.2548,11.2548,11.2548,11.2548,11.2548,11.2548,11.2548,11.2548,11.2548,11.2548,11.2548,11.2548,11.2548,11.225,11.1592,11.1526,11.1263,11.054,11.0474,11.0211,10.9453,10.9387,10.9059,10.8336,10.7646,10.7252,10.7252,10.6594,10.5871,10.5082,10.5082,10.5047,10.4986,10.508,10.5844,8.6631,8.6724,8.6724,8.6724,8.6724,8.6302,8.4736,8.3645,8.2947,8.2658,8.1869,8.2066,8.467,8.5328,8.6445,8.9469,9.2361,9.5122,9.7717,10.0413,10.3635,10.781,10.827,10.9387,11.2285,11.2548,11.2548,11.2548,11.2548,11.2548,11.2548,11.2548,11.2548,11.2548,11.2548,11.2548,11.2548,11.2548,11.2548,11.2548,11.2548,11.2548,11.2548,11.2548,11.2548,11.2548,11.2548,11.2548,11.2548,11.2548,11.2548,11.2548,11.2548,11.2548,11.2548,11.2548,11.2548,11.2548,11.2548,11.2548,11.2548,11.2548,11.2548,11.2548,11.2548,11.2548,11.2548,11.2548,11.2548,11.2548,11.2548,11.2548,11.2548,11.2548,11.2548,11.2548,11.2548,11.2548,11.2548,11.2548,11.2548,11.2548,11.2548,11.2548,11.2548,11.2548,11.2548,11.2548,11.2548,11.2153,11.1329,11.0145,11.008,10.9519,10.8401,10.827,10.8204,10.7941,10.7876,10.781,10.7547,10.6397,10.5739,10.5739,10.4622,10.403,10.403,10.403,10.4444,10.5319,10.4181,10.4237,8.6302,8.6724,8.6724,8.6724,8.6724,8.6302,8.4736,8.5223,8.571,8.4341,8.5026,8.6302,8.7919,8.9234,9.101,9.3969,9.6766,9.9264,10.0873,10.2583,10.4819,10.7876,10.827,10.9387,11.2285,11.2548,11.2548,11.2548,11.2548,11.2548,11.2548,11.2548,11.2548,11.2548,11.2548,11.2548,11.2548,11.2548,11.2548,11.2548,11.2548,11.2548,11.2548,11.2548,11.2548,11.2548,11.2548,11.2548,11.2548,11.2548,11.2548,11.2548,11.2548,11.2548,11.2548,11.2548,11.2548,11.2548,11.2548,11.2548,11.2548,11.2548,11.2548,11.2548,11.2548,11.2548,11.2548,11.2548,11.2548,11.2548,11.2548,11.2548,11.2548,11.2548,11.2548,11.2548,11.2548,11.2548,11.2548,11.2548,11.2548,11.2548,11.2548,11.2548,11.2548,11.2548,11.2548,11.2548,11.2548,11.0408,10.873,10.8599,10.8533,10.8467,10.827,10.827,10.7744,10.6463,10.6431,10.5871,10.4622,10.4359,10.4293,10.4293,10.4096,10.403,10.403,10.403,10.3404,10.2245,10.2022,10.2145,8.6236,8.6724,8.6724,8.6724,8.6724,8.65,8.5815,8.5552,8.5683,8.6642,8.6735,8.7355,8.9629,9.1207,9.2851,9.4955,9.762,10.0053,10.1465,10.2978,10.4753,10.6857,10.7744,10.9059,11.1132,11.2052,11.2548,11.2548,11.2548,11.2548,11.2548,11.2548,11.2548,11.2548,11.2548,11.2548,11.2548,11.2548,11.2548,11.2548,11.2548,11.2548,11.2548,11.2548,11.2548,11.2548,11.2548,11.2548,11.2548,11.2548,11.2548,11.2548,11.2548,11.2548,11.2548,11.2548,11.2548,11.2548,11.2548,11.2548,11.2548,11.2548,11.2548,11.2548,11.2548,11.2548,11.2548,11.2548,11.2548,11.2548,11.2548,11.2548,11.2548,11.2548,11.2548,11.2548,11.2548,11.2548,11.2548,11.2548,11.2548,11.2285,11.146,11.1329,11.1066,11.0277,11.0145,11.0145,11.0145,10.9059,10.7941,10.7186,10.7055,10.6792,10.5903,10.5838,10.5608,10.495,10.495,10.4622,10.403,10.403,10.3569,10.2715,10.2715,10.2288,10.1499,10.1499,10.1105,10.0447,10.0447,10.0491,8.5552,8.6105,8.6171,8.6592,8.6724,8.6724,8.6724,8.6078,8.6116,8.8351,8.8577,8.8999,9.1141,9.269,9.4136,9.5547,9.7883,10.0053,10.1465,10.2978,10.4556,10.597,10.7383,10.8862,11.0277,11.1724,11.2416,11.2022,11.2351,11.2548,11.2548,11.2548,11.2548,11.2548,11.2548,11.2548,11.2548,11.2548,11.2548,11.2548,11.2548,11.2548,11.2548,11.2548,11.2548,11.2548,11.2548,11.2548,11.2548,11.2548,11.2548,11.2548,11.2548,11.2548,11.2548,11.2548,11.2548,11.2548,11.2548,11.2548,11.2548,11.2548,11.2548,11.2548,11.2548,11.2285,11.1987,11.1987,11.1724,11.146,11.146,11.146,11.146,11.146,11.146,11.146,11.146,11.146,11.146,11.146,11.146,11.1132,11.008,10.9882,10.9453,10.8401,10.827,10.8007,10.7284,10.7152,10.6792,10.5674,10.5608,10.5148,10.4096,10.403,10.3832,10.3438,10.3372,10.3241,10.2912,10.2814,10.232,10.1136,10.1136,10.0579,9.9527,9.9527,9.933,9.8935,9.8935,9.8804,8.375,8.4473,8.4802,8.6302,8.6724,8.6724,8.6724,8.7656,8.8614,8.8812,9.0915,9.2822,9.2953,9.4202,9.5613,9.7024,9.8572,10.0053,10.1465,10.2978,10.4556,10.597,10.7383,10.8862,11.0277,11.1724,11.2022,11.0606,11.1724,11.2548,11.2548,11.2548,11.2548,11.2548,11.2548,11.2548,11.2548,11.2548,11.2548,11.2548,11.2548,11.2548,11.2548,11.2548,11.2548,11.2548,11.2548,11.2548,11.2548,11.2548,11.2548,11.2548,11.2548,11.2548,11.2548,11.2548,11.2548,11.2548,11.2548,11.2548,11.2548,11.2548,11.2548,11.2548,11.2548,11.1592,11.054,11.054,10.9519,10.8467,10.8467,10.8467,10.8467,10.8467,10.8467,10.8467,10.8467,10.8467,10.8467,10.8467,10.8467,10.8467,10.8401,10.8401,10.8336,10.827,10.827,10.7284,10.4556,10.4227,10.4227,10.4096,10.4096,10.4096,10.403,10.403,10.3372,10.186,10.1794,10.1202,9.979,9.979,9.9724,9.9658,9.9658,9.9593,9.9527,9.9527,9.8835,9.7485,9.7485,9.6731,8.3618,8.4341,8.4736,8.6302,8.6724,8.6724,8.6724,8.7092,8.7722,8.8642,8.9666,9.0915,9.2756,9.3545,9.4662,9.7024,9.8572,10.0053,10.1465,10.2978,10.4161,10.4687,10.6003,10.712,10.7581,10.8962,10.9619,10.9059,11.0408,11.1132,11.1132,11.2052,11.2548,11.2548,11.2548,11.2548,11.2548,11.2548,11.2548,11.2548,11.2548,11.2548,11.2548,11.2548,11.2548,11.2548,11.2548,11.2548,11.2548,11.2548,11.2548,11.2548,11.2548,11.2548,11.2548,11.2548,11.2548,11.225,11.0408,10.9817,10.9817,10.9817,10.9817,10.9817,10.9817,10.9453,10.8993,10.8993,10.8664,10.827,10.827,10.827,10.827,10.827,10.827,10.827,10.827,10.827,10.827,10.827,10.827,10.827,10.827,10.7515,10.6594,10.5674,10.5542,10.5148,10.4161,10.3109,10.2517,10.2517,10.163,10.1105,10.1105,10.1105,10.0907,10.0316,10.025,10.0053,9.9527,9.9527,9.9067,9.8177,9.8112,9.7717,9.6796,9.6796,9.6533,9.6007,9.5087,9.4769,8.0857,8.1843,8.2698,8.4723,8.5579,8.6039,8.6565,8.6724,8.696,8.7919,8.8511,8.9403,9.131,9.2493,9.3742,9.5613,9.7585,9.9164,10.0084,10.1925,10.3241,10.3241,10.495,10.6167,10.6167,10.6989,10.7581,10.7581,10.8862,10.9685,10.9685,11.0606,11.1132,11.1132,11.1132,11.1329,11.1789,11.1789,11.2052,11.2548,11.2548,11.2548,11.2548,11.2548,11.2548,11.2548,11.2052,11.1789,11.1789,11.1329,11.1132,11.1132,11.1132,11.1132,11.1132,11.1132,11.1132,11.0869,10.8927,10.827,10.827,10.827,10.827,10.827,10.827,10.7941,10.7581,10.7581,10.7218,10.6824,10.6824,10.6824,10.6824,10.6824,10.6824,10.6824,10.6824,10.6824,10.6824,10.6824,10.6824,10.6824,10.6824,10.6068,10.5082,10.4161,10.403,10.3635,10.2617,10.1597,10.0939,10.0939,10.0053,9.9527,9.9527,9.9527,9.933,9.8835,9.8835,9.8638,9.8081,9.8081,9.7423,9.5941,9.5941,9.5218,9.3837,9.3837,9.3837,9.3771,9.2851,9.2815,7.5383,7.6806,7.8557,8.1475,8.325,8.4604,8.6236,8.6592,8.6631,8.6631,8.7749,8.8774,8.884,9.1112,9.3019,9.3085,9.5481,9.7322,9.7419,9.9821,10.1597,10.1662,10.4227,10.6036,10.6036,10.6036,10.6003,10.6102,10.7383,10.8204,10.8204,10.827,10.827,10.827,10.827,10.8927,11.0343,11.0343,11.1066,11.2416,11.2416,11.2416,11.2416,11.2416,11.2416,11.2351,11.0934,11.0343,11.0211,10.8862,10.827,10.827,10.827,10.827,10.827,10.8204,10.8138,10.8138,10.8138,10.8138,10.8138,10.8138,10.8138,10.8138,10.8138,10.7186,10.6102,10.6102,10.5082,10.403,10.403,10.403,10.403,10.403,10.3964,10.3898,10.3898,10.3898,10.3898,10.3898,10.3898,10.3898,10.3898,10.3898,10.3898,10.3898,10.3898,10.2814,9.9921,9.9527,9.9527,9.9461,9.9461,9.9395,9.9395,9.9395,9.8804,9.7353,9.7287,9.6599,9.5152,9.5152,9.4465,9.3085,9.3085,9.2361,9.0972,9.0972,9.0972,9.103,9.0972,9.0935,7.4833,7.5359,7.6082,8.0949,8.1738,8.1672,8.3145,8.4236,8.4999,8.4999,8.6209,8.7618,8.8642,8.9469,9.0718,9.2756,9.4662,9.6205,9.7221,9.8966,10.0513,10.1531,10.2386,10.2912,10.2912,10.2912,10.3372,10.449,10.5937,10.6726,10.6726,10.7678,10.827,10.827,10.827,10.8467,10.8862,10.8862,10.9059,10.9488,10.9488,10.9488,10.9488,10.9488,10.9488,10.9422,10.8993,10.8862,10.8862,10.8401,10.827,10.827,10.827,10.827,10.8007,10.5903,10.5213,10.5213,10.5213,10.5213,10.5213,10.5213,10.5213,10.5213,10.5213,10.4885,10.4556,10.4556,10.4293,10.403,10.403,10.403,10.403,10.403,10.3109,10.232,10.232,10.1531,10.0776,10.0776,10.0776,10.0776,10.0776,10.0776,10.0776,10.0776,10.0776,10.0447,9.9593,9.9527,9.9132,9.8112,9.7059,9.6468,9.6468,9.6468,9.578,9.4399,9.4268,9.364,9.2193,9.2128,9.193,9.1601,9.1536,9.1338,9.0972,9.0972,9.1417,9.2156,9.0303,9.0403,7.069,7.1085,7.1874,7.5819,7.6674,7.72,7.9831,8.108,8.2066,8.325,8.4697,8.5946,8.6774,8.7985,8.9338,9.1047,9.2522,9.3969,9.5415,9.6862,9.8278,9.969,9.9887,10.0084,10.0742,10.0776,10.1399,10.2912,10.3767,10.4556,10.5213,10.6068,10.6495,10.6495,10.6495,10.6758,10.7383,10.7383,10.7678,10.827,10.827,10.827,10.827,10.827,10.827,10.8204,10.7613,10.7383,10.7318,10.6758,10.6495,10.6495,10.6495,10.6495,10.6101,10.3208,10.2091,10.2091,10.2091,10.2091,10.2091,10.2091,10.2091,10.2091,10.2091,10.2091,10.2091,10.2091,10.2091,10.2091,10.2091,10.2091,10.2091,10.2091,10.1433,10.0776,10.0776,10.0118,9.9527,9.9527,9.9527,9.9527,9.9527,9.9527,9.9132,9.7883,9.7752,9.7752,9.7752,9.7752,9.7454,9.6599,9.5218,9.41,9.3508,9.3443,9.3114,9.2259,9.223,9.1864,9.1038,9.0972,9.0681,9.0089,9.0089,8.9788,8.9196,8.9196,8.9784,9.0889,8.9365,8.903,6.4377,6.5101,6.6745,6.8367,6.9638,7.1633,0.0,7.6872,7.7817,8.0645,8.2369,8.3487,8.3816,8.6182,8.8248,8.8577,8.9826,9.1207,9.269,9.4071,9.5415,9.6564,9.6827,9.7454,9.8869,9.9198,9.9856,10.1334,10.1465,10.2057,10.3438,10.3504,10.3504,10.3504,10.3635,10.4359,10.5641,10.5805,10.6529,10.781,10.781,10.781,10.781,10.781,10.781,10.7744,10.6463,10.5904,10.5739,10.4359,10.3767,10.3767,10.3569,10.3504,10.3175,10.0513,9.9527,9.9527,9.9527,9.9527,9.9527,9.9527,9.9527,9.9527,9.9527,9.9527,9.9527,9.9527,9.9527,9.9527,9.9527,9.9527,9.9527,9.9527,9.9395,9.9264,9.9264,9.9132,9.9067,9.9067,9.9067,9.9067,9.9067,9.9067,9.8081,9.5218,9.4758,9.4758,9.4758,9.4758,9.4758,9.4758,9.361,9.2361,9.1075,9.0972,9.0878,9.0747,9.0775,9.0644,9.0512,9.0512,8.9977,8.8799,8.8799,8.809,8.6826,8.6826,8.726,8.816,8.8136,8.7394,0.0,0.0,0.0,0.0,0.0,0.0,0.0,7.0098,7.172,7.4744,7.6477,7.8187,8.0488,8.233,8.4329,8.6697,8.8314,8.976,9.1207,9.2624,9.3216,9.2354,9.3245,9.4531,9.5941,9.7125,9.8375,9.9856,9.9921,10.0053,10.0381,10.0381,10.0381,10.0381,10.1499,10.2254,10.2517,10.3767,10.4556,10.4819,10.4819,10.4819,10.4819,10.4819,10.4819,10.4819,10.4556,10.4424,10.4293,10.278,10.2123,10.1991,10.0842,10.0381,10.0316,9.9724,9.9527,9.9527,9.9527,9.9527,9.9527,9.9527,9.9527,9.9527,9.9527,9.9527,9.9527,9.9527,9.9527,9.9527,9.9527,9.9527,9.9527,9.9527,9.8638,9.7783,9.7783,9.6928,9.6073,9.6073,9.6073,9.6073,9.6073,9.6073,9.5152,9.2193,9.1828,9.1828,9.1828,9.1828,9.1828,9.1828,9.1536,9.1273,9.101,9.0972,9.0484,8.93,8.9234,8.8708,8.7552,8.7486,8.7833,8.8539,8.8497,8.8263,8.7627,8.7627,8.7152,8.6262,8.615,8.6965,0.0,0.0,0.0,0.0,0.0,0.0,0.0,0.0,0.0,0.0,0.0,7.3363,7.6321,0.0,8.104,8.4,8.5683,8.7365,8.9563,9.0549,9.0718,8.9957,9.1141,9.2325,9.3048,9.3706,9.5087,9.7226,9.7358,9.8015,9.9461,9.9527,9.9527,9.9527,10.025,10.0579,10.0579,10.1368,10.1762,10.1762,10.1762,10.1762,10.1762,10.1762,10.1762,10.1762,10.1762,10.1762,10.1696,10.0907,10.0579,10.0316,9.7423,9.5911,9.5284,9.5284,9.5284,9.5284,9.5284,9.5284,9.5284,9.5284,9.5284,9.5284,9.5284,9.5284,9.5284,9.5284,9.5284,9.5284,9.5284,9.5284,9.5284,9.5284,9.4692,9.4196,9.4196,9.3574,9.3114,9.3114,9.3114,9.3114,9.3114,9.3114,9.2588,9.1207,9.0972,9.0972,9.0972,9.0972,9.0709,8.9957,8.9892,8.9629,8.8868,8.8802,8.8539,8.7815,8.8338,8.8313,8.7607,8.6901,8.7006,8.8163,8.6883,8.636,8.6692,8.6692,8.6678,8.6508,8.3936,8.3068,0.0,0.0,0.0,0.0,0.0,0.0,0.0,0.0,0.0,0.0,0.0,0.0,0.0,0.0,0.0,8.0514,8.2658,8.4867,8.7563,8.7957,8.7957,8.7957,8.9497,9.0578,9.0578,9.0841,9.193,9.4232,9.4429,9.5385,9.7752,9.7883,9.7883,9.7883,9.8409,9.8672,9.8672,9.9264,9.9527,9.9527,9.9527,0.0,9.9527,9.9527,9.9527,9.9527,9.9527,9.9527,9.9527,9.9527,9.9395,9.8672,9.4399,9.1996,9.0972,9.0972,9.0972,9.0972,9.0972,9.0972,9.0972,9.0972,9.0972,9.0972,9.0972,9.0972,0.0,9.0972,9.0972,9.0972,9.0972,9.0972,9.0972,9.0972,9.0972,9.0972,9.0972,9.0972,9.0972,9.0972,9.0972,9.0972,9.0972,9.0221,8.9563,8.9328,8.9262,8.9262,8.9262,8.9497,8.9234,8.8116,8.8248,8.7919,8.679,8.6434,8.6476,8.6971,8.7648,8.7994,8.7854,8.6507,8.592,8.6402,8.4399,8.3693,8.4448,8.4448,8.486,8.5546,8.0154,7.7435,0.0,0.0,0.0,0.0,0.0,0.0,0.0,0.0,0.0,0.0,0.0,0.0,0.0,0.0,0.0,0.0,7.9831,8.3053,8.4604,8.4867,8.4867,8.4867,8.7365,8.9103,8.9103,9.0221,9.1104,9.1433,9.147,9.1601,9.193,9.1959,0.0,0.0,0.0,9.5744,9.5744,9.8278,9.9527,9.9527,9.9527,9.9527,9.9527,9.9527,9.9527,9.9527,9.9527,9.9527,9.9527,9.9527,9.8769,9.7191,9.2917,9.1075,9.0972,9.0972,9.0972,9.0972,9.0972,0.0,0.0,9.0972,9.0972,9.0972,9.0972,9.0972,9.0972,9.0972,9.0972,9.0972,9.0972,9.0972,9.0972,9.0972,9.0972,9.0972,9.0972,9.0972,9.0972,9.0972,9.0972,9.0972,9.0972,8.7722,8.467,8.3382,8.3211,8.3211,8.3211,8.4368,8.5065,8.4867,8.6078,0.0,8.6724,8.542,8.5688,8.813,8.7196,8.638,8.5853,8.4368,8.2823,8.1352,8.1048,8.0726,8.0554,8.0554,8.0042,7.9059,7.2463,7.0853,0.0,0.0,0.0,0.0,0.0,0.0,0.0,0.0,0.0,0.0,0.0,0.0,0.0,0.0,0.0,0.0,7.5622,7.8738,7.9305,8.0094,8.1277,8.2921,8.4933,8.6248,8.6248,8.759,8.8868,8.9694,8.9694,9.0089,9.0972,9.0972,9.0972,9.0972,9.2128,9.2719,9.2719,9.3969,9.4561,9.4561,9.4561,9.4561,9.4561,9.4561,9.4561,9.4561,9.4561,9.4561,9.4561,9.4561,9.4166,9.3406,0.0,0.0,0.0,0.0,8.8473,8.8473,8.8473,8.8473,8.8473,8.8473,8.8473,8.8473,8.8473,8.8473,8.8473,8.8473,8.8473,8.8473,8.8473,8.8473,8.8473,8.8473,8.8473,8.8473,8.8473,8.8473,8.8473,8.8473,8.8473,0.0,8.8473,8.696,8.5513,8.4921,8.4855,8.4855,8.4855,8.5381,8.5354,8.4473,8.5749,8.6302,8.542,8.5552,0.0,0.0,0.0,8.6348,8.6626,8.5187,0.0,0.0,0.0,7.6648,7.7188,7.5333,0.0,0.0,6.4463,6.3218,0.0,0.0,0.0,0.0,0.0,0.0,0.0,0.0,0.0,0.0,0.0,0.0,0.0,0.0,0.0,0.0,7.0559,7.3255,7.286,7.4725,7.7249,8.0119,8.2066,8.3355,8.375,8.4789,8.5907,8.6933,8.7365,8.805,8.9103,8.9591,8.9788,8.9788,9.0155,9.0352,9.0352,9.0775,9.0972,9.0972,9.0972,9.0972,9.0972,9.0972,9.0972,9.0972,9.0972,9.0972,9.0972,9.0972,9.0972,9.0747,8.8511,8.7628,8.7431,8.5973,8.5447,8.5447,8.5447,8.5447,8.5447,8.5447,8.5447,8.5447,8.5447,8.5447,8.5447,8.5447,8.5447,8.5447,8.5447,8.5447,8.5447,8.5447,8.5447,8.5579,8.5973,8.6039,8.6171,8.6631,8.6039,8.5315,8.4921,8.4855,8.4723,8.4355,8.4263,8.4263,8.4263,8.5013,8.5052,8.3881,8.5411,8.6085,8.4934,8.543,8.5992,8.6484,8.6078,8.6137,8.6665,8.5154,8.3082,8.0326,7.4401,7.1754,0.0,0.0,0.0,0.0,0.0,0.0,0.0,0.0,0.0,0.0,0.0,0.0,0.0,0.0,0.0,0.0,0.0,0.0,0.0,0.0,0.0,0.0,0.0,0.0,6.5495,6.9002,7.284,7.5712,7.8516,8.0751,8.2158,8.2355,8.2421,8.2421,8.371,8.4539,8.4539,8.6039,8.6856,8.6856,8.8182,8.8877,8.8877,9.0286,9.0972,9.0972,9.0972,9.0972,9.0972,9.0972,9.0972,9.0972,9.0972,9.0972,9.0972,9.0972,9.0972,9.0549,8.6182,8.4539,8.4341,8.2856,8.2355,8.2355,8.2355,8.2355,8.2355,8.2355,8.2355,8.2355,8.2355,8.2355,8.2355,8.2355,8.2355,8.2355,8.2355,8.2355,8.2355,8.2355,8.2355,8.2724,8.4144,8.4473,8.4867,8.6368,8.4329,8.1935,8.0554,8.0291,7.9831,7.8433,7.8236,0.0,7.8236,8.0645,8.2355,8.229,8.4621,8.6099,8.6031,8.449,8.462,8.726,8.6138,8.5139,8.4699,8.3163,8.0168,7.5547,6.9184,6.5974,6.6001,0.0,0.0,0.0,0.0,0.0,0.0,0.0,0.0,0.0,0.0,0.0,0.0,0.0,0.0,0.0,0.0,0.0,0.0,0.0,0.0,0.0,0.0,0.0,0.0,6.3608,6.716,7.0997,7.3189,7.4988,7.6411,7.7422,7.8409,7.933,8.0751,8.1935,8.2921,8.3474,8.3737,8.3737,8.4197,8.4894,8.5853,8.6314,8.713,8.8144,8.8144,8.8144,8.8144,8.8144,8.8144,8.8144,8.8144,8.8144,8.8144,8.8144,8.696,8.5052,8.3513,8.2395,8.1449,8.1014,8.0225,7.9411,7.9395,7.9395,7.9395,7.937,7.9411,7.9411,7.9395,7.9395,7.9395,7.937,7.9411,7.9608,8.0554,8.0817,8.1014,8.2001,8.2224,8.2355,8.2856,8.2921,8.3119,8.3605,8.1369,7.9264,7.8754,7.8647,7.8803,7.9305,8.0043,8.0838,8.184,8.3382,8.4392,8.4392,8.5192,8.5763,8.5763,8.519,8.4689,8.441,8.3927,8.2513,8.0041,7.8416,7.5847,7.2208,6.8912,6.5203,6.1065,0.0,0.0,0.0,0.0,0.0,0.0,0.0,0.0,0.0,0.0,0.0,0.0,0.0,0.0,0.0,0.0,0.0,0.0,0.0,0.0,0.0,0.0,0.0,0.0,0.0,0.0,6.6416,6.8673,0.0,7.1216,7.2137,7.3081,7.4001,7.5425,7.7045,7.9042,7.9658,8.0185,8.0711,8.1237,8.1935,8.2829,8.3355,8.4105,8.5118,8.5118,8.5118,8.5118,8.5118,8.5118,8.5118,8.5118,8.5118,8.4987,8.4026,8.2421,8.0579,7.9593,7.8581,7.7636,7.6584,7.5598,7.4852,7.4833,7.4857,7.4833,7.4809,7.4852,7.4744,7.4199,7.4067,7.3936,7.3429,7.4021,7.5072,7.5993,7.6979,7.8031,7.8976,7.9173,7.9305,7.9856,7.9922,7.9436,7.7858,7.6082,7.4636,7.4152,7.4504,7.5162,7.6058,7.7322,7.8772,8.055,8.227,8.3486,8.3926,8.4816,8.5119,8.4614,8.4432,8.3626,8.1861,8.1263,7.9652,7.6831,7.4706,7.2066,6.8855,6.663,6.2706,0.0,0.0,0.0,0.0,0.0,0.0,0.0,0.0,0.0,0.0,0.0,0.0,0.0,0.0,0.0,0.0,0.0,0.0,0.0,0.0,0.0,0.0,0.0,0.0,0.0,0.0,0.0,6.1983,6.4792,0.0,0.0,0.0,0.0,6.6634,6.8038,7.0142,7.3035,7.4504,7.5975,7.7446,7.8844,7.9608,7.9896,8.1212,8.1935,8.2027,8.2027,8.2027,8.2027,8.2027,8.2027,8.2027,8.2027,8.2027,8.1763,7.8672,7.7381,7.7117,7.4439,7.3232,7.2772,6.9879,6.874,6.8674,6.8543,6.8608,6.8674,6.8674,6.8674,6.8411,6.7008,6.6568,0.0,0.0,6.6527,6.8674,6.8806,7.1062,7.3232,7.3452,7.3429,7.3847,7.5162,7.5514,7.411,6.955,6.8674,6.8236,6.6745,0.0,6.8739,6.8958,7.0406,7.2411,7.4785,7.7697,7.9916,8.0874,8.3332,8.4265,8.2755,8.2337,8.1396,7.9756,7.8273,7.6632,7.4848,7.1923,6.8641,6.5144,6.2231,0.0,0.0,0.0,0.0,0.0,0.0,0.0,0.0,0.0,0.0,0.0,0.0,0.0,0.0,0.0,0.0,0.0,0.0,0.0,0.0,0.0,0.0,0.0,0.0,0.0,0.0,5.1192,5.4268,5.7641,5.7604,5.7849,0.0,0.0,0.0,0.0,0.0,0.0,6.7074,6.7534,6.8849,7.1325,7.1786,7.356,7.6872,7.729,7.7989,7.9017,7.9066,7.9066,7.9017,7.9066,7.9026,7.9001,7.9017,7.9017,7.8557,7.24,6.9857,6.9792,6.9068,6.7489,6.5319,6.3523,6.2188,6.107,6.0037,6.0366,6.1268,6.1268,6.1268,6.1202,6.0807,0.0,0.0,0.0,0.0,6.1728,6.3851,6.5758,6.771,6.9879,7.0339,7.0471,7.0799,7.0931,6.8959,6.2517,6.1268,6.0807,5.9333,6.0711,0.0,6.5081,6.8806,7.2378,7.5245,7.8041,7.9906,8.0202,8.0795,8.1072,8.0646,8.0538,7.9328,7.6617,7.6061,7.3493,6.8355,6.7356,6.3789,5.7164,0.0,0.0,0.0,0.0,0.0,0.0,0.0,0.0,0.0,0.0,0.0,0.0,0.0,0.0,0.0,0.0,0.0,0.0,0.0,0.0,0.0,0.0,0.0,0.0,0.0,0.0,0.0,4.7836,5.0913,5.3215,5.3264,5.3199,0.0,0.0,0.0,0.0,0.0,0.0,0.0,0.0,0.0,6.4403,6.5146,6.725,7.1019,7.1699,7.2729,7.4129,7.411,7.411,7.4129,7.411,7.411,7.411,7.3452,7.172,6.9156,6.5015,6.3325,6.3194,0.0,0.0,0.0,0.0,5.6289,5.55,5.4662,5.5369,5.6451,5.5829,0.0,0.0,0.0,0.0,0.0,0.0,0.0,5.6929,5.8525,6.1024,6.3457,6.5101,6.5475,6.5475,6.5475,6.3695,6.079,5.6474,5.6066,5.5936,5.4191,5.5643,0.0,0.0,0.0,6.7668,7.0412,7.3911,7.6568,7.7727,7.8472,7.8614,7.7901,7.783,7.6474,7.335,7.1852,6.9426,6.5858,6.3075,5.921,0.0,0.0,0.0,0.0,0.0,0.0,0.0,0.0,0.0,0.0,0.0,0.0,0.0,0.0,0.0,0.0,0.0,0.0,0.0,0.0,0.0,0.0,0.0,0.0,0.0,0.0,0.0,0.0,0.0,4.731,4.8777,0.0,0.0,0.0,0.0,0.0,0.0,0.0,0.0,0.0,0.0,0.0,0.0,0.0,6.0761,6.3437,6.4904,6.6284,6.7491,6.7688,6.7754,6.782,6.7973,6.7951,6.7688,6.5824,0.0,5.7915,5.752,0.0,0.0,0.0,0.0,0.0,0.0,0.0,0.0,0.0,0.0,0.0,0.0,0.0,0.0,0.0,0.0,0.0,0.0,0.0,0.0,0.0,0.0,5.953,5.9727,5.9774,5.9511,5.8591,5.4822,5.1382,5.0629,5.1437,5.1574,0.0,0.0,0.0,0.0,0.0,0.0,6.3835,6.8108,7.1881,7.4346,7.5847,7.6076,7.4706,7.4634,7.3279,7.0139,6.7071,6.5002,6.4217,5.8925,0.0,0.0,0.0,0.0,0.0,0.0,0.0,0.0,0.0,0.0,0.0,0.0,0.0,0.0,0.0,0.0,0.0,0.0,0.0,0.0,0.0,0.0,0.0,0.0,0.0,0.0,0.0,0.0,0.0,0.0,0.0,0.0,0.0,0.0,0.0,0.0,0.0,0.0,0.0,0.0,0.0,0.0,0.0,0.0,0.0,0.0,0.0,0.0,0.0,0.0,5.984,6.0347,6.0413,6.1616,6.1484,6.015,5.6223,5.4628,5.4611,5.2261,0.0,0.0,0.0,0.0,0.0,0.0,0.0,0.0,0.0,0.0,0.0,0.0,0.0,0.0,0.0,0.0,0.0,0.0,0.0,0.0,0.0,0.0,5.3725,5.4891,5.5202,5.3559,4.766,0.0,0.0,0.0,0.0,0.0,0.0,0.0,0.0,0.0,0.0,0.0,6.3066,6.6473,6.9316,7.1195,7.1637,7.1637,7.1423,7.1352,6.9996,6.6786,6.4775,6.1493,0.0,0.0,0.0,0.0,0.0,0.0,0.0,0.0,0.0,0.0,0.0,0.0,0.0,0.0,0.0,0.0,0.0,0.0,0.0,0.0,0.0,0.0,0.0,0.0,0.0,0.0,0.0,0.0,0.0,0.0,0.0,0.0,0.0,0.0,0.0,0.0,0.0,0.0,0.0,0.0,0.0,0.0,0.0,0.0,0.0,0.0,0.0,0.0,0.0,0.0,0.0,0.0,0.0,0.0,0.0,0.0,0.0,0.0,5.1768,4.853,0.0,0.0,0.0,0.0,0.0,0.0,0.0,0.0,0.0,0.0,0.0,0.0,0.0,0.0,0.0,0.0,0.0,0.0,0.0,0.0,0.0,0.0,0.0,0.0,0.0,0.0,0.0,0.0,0.0,0.0,0.0,0.0,0.0,0.0,0.0,0.0,0.0,0.0,0.0,0.0,5.826,6.2694,6.626,6.7856,6.877,6.8912,6.8141,6.7998,6.6357,6.229,6.0566,0.0,0.0,0.0,0.0,0.0,0.0,0.0,0.0,0.0,0.0,0.0,0.0,0.0,0.0,0.0,0.0,0.0,0.0,0.0,0.0,0.0,0.0,0.0,0.0,0.0,0.0,0.0,0.0,0.0,0.0,0.0,0.0,0.0,0.0,0.0,0.0,0.0,0.0,0.0,0.0,0.0,0.0,0.0,0.0,0.0,0.0,0.0,0.0,0.0,0.0,0.0,0.0,0.0,0.0,0.0,0.0,0.0,0.0,0.0,4.8413,4.3729,0.0,0.0,0.0,0.0,0.0,0.0,0.0,0.0,0.0,0.0,0.0,0.0,0.0,0.0,0.0,0.0,0.0,0.0,0.0,0.0,0.0,0.0,0.0,0.0,0.0,0.0,0.0,0.0,0.0,0.0,0.0,0.0,0.0,0.0,0.0,0.0,0.0,0.0,0.0,0.0,5.3931,5.8937,6.2991,6.4502,6.5774,6.6059,6.4788,6.4716,6.2861,5.8497,5.6417,0.0,0.0,0.0,0.0,0.0,0.0,0.0,0.0,0.0,0.0,0.0,0.0,0.0,0.0,0.0,0.0,0.0,0.0,0.0,0.0,0.0,0.0,0.0,0.0,0.0,0.0,0.0,0.0,0.0,0.0,0.0,0.0,0.0,0.0,0.0,0.0,0.0,0.0,0.0,0.0,0.0,0.0,0.0,0.0,0.0,0.0,0.0,0.0,0.0,0.0,0.0,0.0,0.0,0.0,0.0,0.0,0.0,0.0,0.0,0.0,0.0,0.0,0.0,0.0,0.0,0.0,0.0,0.0,0.0,0.0,0.0,0.0,0.0,0.0,0.0,0.0,0.0,0.0,0.0,0.0,0.0,0.0,0.0,0.0,0.0,0.0,0.0,0.0,0.0,0.0,0.0,0.0,0.0,0.0,0.0,0.0,0.0,0.0,0.0,0.0,0.0,5.356,5.701,5.9722,6.1316,6.1589,6.1589,6.1446,6.1446,6.0078,5.6774,0.0,0.0,0.0,0.0,0.0,0.0,0.0,0.0,0.0,0.0,0.0,0.0,0.0,0.0,0.0,0.0,0.0,0.0,0.0,0.0,0.0,0.0,0.0,0.0,0.0,0.0,0.0,0.0,0.0,0.0,0.0,0.0,0.0,0.0,0.0,0.0,0.0,0.0,0.0,0.0,0.0,0.0,0.0,0.0,0.0,0.0,0.0,0.0,0.0,0.0,0.0,0.0,0.0,0.0,0.0,0.0,0.0,0.0,0.0,0.0,0.0,0.0,0.0,0.0,0.0,0.0,0.0,0.0,0.0,0.0,0.0,0.0,0.0,0.0,0.0,0.0,0.0,0.0,0.0,0.0,0.0,0.0,0.0,0.0,0.0,0.0,0.0,0.0,0.0,0.0,0.0,0.0,0.0,0.0,0.0,0.0,0.0,0.0,0.0,0.0,0.0,0.0,5.0986,5.5594,5.8937,5.9579,6.0447,6.0661,5.9734,5.965,5.751,5.2454,0.0,0.0,0.0,0.0,0.0,0.0,0.0,0.0,0.0,0.0,0.0,0.0,0.0,0.0,0.0,0.0,0.0,0.0,0.0,0.0,0.0,0.0,0.0,0.0,0.0,0.0,0.0,0.0,0.0,0.0,0.0,0.0,0.0,0.0,0.0,0.0,0.0,0.0,0.0,0.0,0.0,0.0,0.0,0.0,0.0,0.0,0.0,0.0,0.0,0.0,0.0,0.0,0.0,0.0,0.0,0.0,0.0,0.0,0.0,0.0,0.0,0.0,0.0,0.0,0.0,0.0,0.0,0.0,0.0,0.0,0.0,0.0,0.0,0.0,0.0,0.0,0.0,0.0,0.0,0.0,0.0,0.0,0.0,0.0,0.0,0.0,0.0,0.0,0.0,0.0,0.0,0.0,0.0,0.0,0.0,0.0,0.0,0.0,0.0,0.0,0.0,0.0,4.9304,5.4452,5.7998,5.7998,5.9008,5.9222,5.8069,5.7581,5.5012,4.9691,0.0,0.0,0.0,0.0,0.0,0.0,0.0,0.0,0.0,0.0,0.0,0.0,0.0,0.0,0.0,0.0,0.0,0.0,0.0,0.0,0.0,0.0,0.0,0.0,0.0,0.0,0.0,0.0,0.0,0.0,0.0,0.0,0.0,0.0,0.0,0.0,0.0,0.0,0.0,0.0,0.0,0.0,0.0,0.0,0.0,0.0,0.0,0.0,0.0,0.0,0.0,0.0,0.0,0.0,0.0,0.0,0.0,0.0,0.0,0.0,0.0,0.0,0.0,0.0,0.0,0.0,0.0,0.0,0.0,0.0,0.0,0.0,0.0,0.0,0.0,0.0,0.0,0.0,0.0,0.0,0.0,0.0,0.0,0.0,0.0,0.0,0.0,0.0,0.0,0.0,0.0,0.0,0.0,0.0,0.0,0.0,0.0,0.0,0.0,0.0,0.0,0.0,4.9012,5.3514,5.6417,5.6417,5.6406,5.6406,5.6417,5.4941,5.274,0.0,0.0,0.0,0.0,0.0,0.0,0.0,0.0,0.0,0.0,0.0,0.0,0.0,0.0,0.0,0.0,0.0,0.0,0.0,0.0,0.0,0.0,0.0,0.0,0.0,0.0,0.0,0.0,0.0,0.0,0.0,0.0,0.0,0.0,0.0,0.0,0.0,0.0,0.0,0.0,0.0,0.0,0.0,0.0,0.0,0.0,0.0,0.0,0.0,0.0,0.0,0.0,0.0,0.0,0.0,0.0,0.0,0.0,0.0,0.0,0.0,0.0,0.0,0.0,0.0,0.0,0.0,0.0,0.0,0.0,0.0,0.0,0.0,0.0,0.0,0.0,0.0,0.0,0.0,0.0,0.0,0.0,0.0,0.0,0.0,0.0,0.0,0.0,0.0,0.0,0.0,0.0,0.0,0.0,0.0,0.0,0.0,0.0,0.0,0.0,0.0,0.0,0.0,4.7359,5.1883,5.5216,5.6263,5.6334,5.6334,5.6334,5.4941,5.224,4.8029,0.0,0.0,0.0,0.0,0.0,0.0,0.0,0.0,0.0,0.0,0.0,0.0,0.0,0.0,0.0,0.0,0.0,0.0,0.0,0.0,0.0,0.0,0.0,0.0,0.0,0.0,0.0,0.0,0.0,0.0,0.0,0.0,0.0,0.0,0.0,0.0,0.0,0.0,0.0,0.0,0.0,0.0,0.0,0.0,0.0,0.0,0.0,0.0,0.0,0.0,0.0,0.0,0.0,0.0,0.0,0.0,0.0,0.0,0.0,0.0,0.0,0.0,0.0,0.0,0.0,0.0,0.0,0.0,0.0,0.0,0.0,0.0,0.0,0.0,0.0,0.0,0.0,0.0,0.0,0.0,0.0,0.0,0.0,0.0,0.0,0.0,0.0,0.0,0.0,0.0,0.0,0.0,0.0,0.0,0.0,0.0,0.0,0.0,0.0,0.0,0.0,0.0,0.0,5.117,5.4656,5.6203,5.6334,5.6334,5.6334,5.4359,5.1445,4.7306,0.0,0.0,0.0,0.0,0.0,0.0,0.0,0.0,0.0,0.0,0.0,0.0,0.0,0.0,0.0,0.0,0.0,0.0,0.0,0.0,0.0,0.0,0.0,0.0,0.0,0.0,0.0,0.0,0.0,0.0,0.0,0.0,0.0,0.0,0.0,0.0,0.0,0.0,0.0,0.0,0.0,0.0,0.0,0.0,0.0,0.0,0.0,0.0,0.0,0.0,0.0,0.0,0.0,0.0,0.0,0.0,0.0,0.0,0.0,0.0,0.0,0.0,0.0,0.0,0.0,0.0,0.0,0.0,0.0,0.0,0.0,0.0,0.0,0.0,0.0,0.0,0.0,0.0,0.0,0.0,0.0,0.0,0.0,0.0,0.0,0.0,0.0,0.0,0.0,0.0,0.0,0.0,0.0,0.0,0.0,0.0,0.0,0.0,0.0,0.0,0.0,0.0,0.0,5.0884,5.437,5.5989,5.6132,5.606,5.6203,5.3361,5.0232,4.7092,4.0964,0.0,0.0,0.0,0.0,0.0,0.0,0.0,0.0,0.0,0.0,0.0,0.0,0.0,0.0,0.0,0.0,0.0,0.0,0.0,0.0,0.0,0.0,0.0,0.0,0.0,0.0,0.0,0.0,0.0,0.0,0.0,0.0,0.0,0.0,0.0,0.0,0.0,0.0,0.0,0.0,0.0,0.0,0.0,0.0,0.0,0.0,0.0,0.0,0.0,0.0,0.0,0.0,0.0,0.0,0.0,0.0,0.0,0.0,0.0,0.0,0.0,0.0,0.0,0.0,0.0,0.0,0.0,0.0,0.0,0.0,0.0,0.0,0.0,0.0,0.0,0.0,0.0,0.0,0.0,0.0,0.0,0.0,0.0,0.0,0.0,0.0,0.0,0.0,0.0,0.0,0.0,0.0,0.0,0.0,0.0,0.0,0.0,0.0,0.0,0.0,0.0,0.0,4.8315,5.1537,5.4299,5.3503,5.3289,5.4513,5.174,4.86,4.5442,4.0393,0.0,0.0,0.0,0.0,0.0,0.0,0.0,0.0,0.0,0.0,0.0,0.0,0.0,0.0,0.0,0.0,0.0,0.0,0.0,0.0,0.0,0.0,0.0,0.0,0.0,0.0,0.0,0.0,0.0,0.0,0.0,0.0,0.0,0.0,0.0,0.0,0.0,0.0,0.0,0.0,0.0,0.0,0.0,0.0,0.0,0.0,0.0,0.0,0.0,0.0,0.0,0.0,0.0,0.0,0.0,0.0,0.0,0.0,0.0,0.0,0.0,0.0,0.0,0.0,0.0,0.0,0.0,0.0,0.0,0.0,0.0,0.0,0.0,0.0,0.0,0.0,0.0,0.0,0.0,0.0,0.0,0.0,0.0,0.0,0.0,0.0,0.0,0.0,0.0,0.0,0.0,0.0,0.0,0.0,0.0,0.0,0.0,0.0,0.0,0.0,0.0,0.0,4.3356,4.7743,5.2433,5.2219,5.2077,5.2872,5.0751,4.7753,4.3881,3.9101,0.0,0.0,0.0,0.0,0.0,0.0,0.0,0.0,0.0,0.0,0.0,0.0,0.0,0.0,0.0,0.0,0.0,0.0,0.0,0.0,0.0,0.0,0.0,0.0,0.0,0.0,0.0,0.0,0.0,0.0,0.0,0.0,0.0,0.0,0.0,0.0,0.0,0.0,0.0,0.0,0.0,0.0,0.0,0.0,0.0,0.0,0.0,0.0,0.0,0.0,0.0,0.0,0.0,0.0,0.0,0.0,0.0,0.0,0.0,0.0,0.0,0.0,0.0,0.0,0.0,0.0,0.0,0.0,0.0,0.0,0.0,0.0,0.0,0.0,0.0,0.0,0.0,0.0,0.0,0.0,0.0,0.0,0.0,0.0,0.0,0.0,0.0,0.0,0.0,0.0,0.0,0.0,0.0,0.0,0.0,0.0,0.0,0.0,0.0,0.0,0.0,0.0,0.0,4.4018,4.9887,5.0823,5.1078,5.1363,4.9671,4.6736,4.2198,0.0,0.0,0.0,0.0,0.0,0.0,0.0,0.0,0.0,0.0,0.0,0.0,0.0,0.0,0.0,0.0,0.0,0.0,0.0,0.0,0.0,0.0,0.0,0.0,0.0,0.0,0.0,0.0,0.0,0.0,0.0,0.0,0.0,0.0,0.0,0.0,0.0,0.0,0.0,0.0,0.0,0.0,0.0,0.0,0.0,0.0,0.0,0.0,0.0,0.0,0.0,0.0,0.0,0.0,0.0,0.0,0.0,0.0,0.0,0.0,0.0,0.0,0.0,0.0,0.0,0.0,0.0,0.0,0.0,0.0,0.0,0.0,0.0,0.0,0.0,0.0,0.0,0.0,0.0,0.0,0.0,0.0,0.0,0.0,0.0,0.0,0.0,0.0,0.0,0.0,0.0,0.0,0.0,0.0,0.0,0.0,0.0,0.0,0.0,0.0,0.0,0.0,0.0,0.0,4.2532,4.4905,4.6741,4.8315,4.9609,4.7092,4.3838,4.0162,0.0,0.0,0.0,0.0,0.0,0.0,0.0,0.0,0.0,0.0,0.0,0.0,0.0,0.0]}]]]